[[{"header":{"parameterUnit":"m.s-1","parameterCategory":1,"la1":31.0,"la2":29.5877,"lo1":-88.7671,"lo2":-86.6584,"dy":0.0162,"dx":0.0185,"nx":115,"ny":88,"refTime":"2026-03-16T12:00:00:Z","depth":0,"parameterNumber":2,"parameterNumberName":"U-component_of_WINDS"},"data":[0.0,0.0,0.0,0.0,0.0,0.0,0.0,0.0,0.0,0.0,0.0,0.0,0.0,0.0,0.0,0.0,0.0,0.0,0.0,0.0,0.0,0.0,0.0,0.0,0.0,0.0,0.0,0.0,0.0,0.0,0.0,0.0,0.0,0.0,0.0,0.0,0.0,0.0,0.0,0.0,0.0,0.0,0.0,0.0,0.0,0.0,0.0,0.0,0.0,0.0,0.0,0.0,0.0,0.0,0.0,0.0,0.0,0.0,0.0,0.0,0.0,0.0,0.0,0.0,0.0,0.0,0.0,0.0,0.0,0.0,0.0,0.0,0.0,0.0,0.0,0.0,0.0,0.0,0.0,0.0,0.0,0.0,0.0,0.0,0.0,0.0,0.0,0.0,0.0,0.0,0.0,0.0,0.0,0.0,0.0,0.0,0.0,0.0,0.0,0.0,0.0,0.0,0.0,0.0,0.0,0.0,0.0,0.0,0.0,0.0,0.0,0.0,0.0,0.0,0.0,0.0,0.0,0.0,0.0,0.0,0.0,0.0,0.0,0.0,0.0,0.0,0.0,0.0,0.0,0.0,0.0,0.0,0.0,0.0,0.0,0.0,0.0,0.0,0.0,0.0,0.0,0.0,0.0,0.0,0.0,0.0,0.0,0.0,0.0,0.0,0.0,0.0,0.0,0.0,0.0,0.0,0.0,0.0,0.0,0.0,0.0,0.0,0.0,0.0,0.0,0.0,0.0,0.0,0.0,0.0,0.0,0.0,0.0,0.0,0.0,0.0,0.0,0.0,0.0,0.0,0.0,0.0,0.0,0.0,0.0,0.0,0.0,0.0,0.0,0.0,0.0,0.0,0.0,0.0,0.0,0.0,0.0,0.0,0.0,0.0,0.0,0.0,0.0,0.0,0.0,0.0,0.0,0.0,0.0,0.0,0.0,0.0,0.0,0.0,0.0,0.0,0.0,0.0,0.0,0.0,0.0,0.0,0.0,0.0,0.0,0.0,0.0,0.0,0.0,0.0,0.0,0.0,0.0,0.0,0.0,0.0,0.0,0.0,0.0,0.0,0.0,0.0,0.0,0.0,0.0,0.0,0.0,0.0,0.0,0.0,0.0,0.0,0.0,0.0,0.0,0.0,0.0,0.0,0.0,0.0,0.0,0.0,0.0,0.0,0.0,0.0,0.0,0.0,0.0,0.0,0.0,0.0,0.0,0.0,0.0,0.0,0.0,0.0,0.0,0.0,0.0,0.0,0.0,0.0,0.0,0.0,0.0,0.0,0.0,0.0,0.0,0.0,0.0,0.0,0.0,0.0,0.0,0.0,0.0,0.0,0.0,0.0,0.0,0.0,0.0,0.0,0.0,0.0,0.0,0.0,0.0,0.0,0.0,0.0,0.0,0.0,0.0,0.0,0.0,0.0,0.0,0.0,0.0,0.0,0.0,0.0,0.0,0.0,0.0,0.0,0.0,0.0,0.0,0.0,0.0,0.0,0.0,0.0,0.0,0.0,0.0,0.0,0.0,0.0,0.0,0.0,0.0,0.0,0.0,0.0,0.0,0.0,0.0,0.0,0.0,0.0,0.0,0.0,0.0,0.0,0.0,0.0,0.0,0.0,0.0,0.0,0.0,0.0,0.0,0.0,0.0,0.0,0.0,0.0,0.0,0.0,0.0,0.0,0.0,0.0,0.0,0.0,0.0,0.0,0.0,0.0,0.0,0.0,0.0,0.0,0.0,0.0,0.0,0.0,0.0,0.0,0.0,0.0,0.0,0.0,0.0,0.0,0.0,0.0,0.0,0.0,0.0,0.0,0.0,0.0,0.0,0.0,0.0,0.0,0.0,0.0,0.0,0.0,0.0,0.0,0.0,0.0,0.0,0.0,0.0,0.0,0.0,0.0,0.0,0.0,0.0,0.0,0.0,0.0,0.0,0.0,0.0,0.0,0.0,0.0,0.0,0.0,0.0,0.0,0.0,0.0,0.0,0.0,0.0,0.0,0.0,0.0,0.0,0.0,0.0,0.0,0.0,0.0,0.0,0.0,0.0,0.0,0.0,0.0,0.0,0.0,0.0,0.0,0.0,0.0,0.0,0.0,0.0,0.0,0.0,0.0,0.0,0.0,0.0,0.0,0.0,0.0,0.0,0.0,0.0,0.0,0.0,0.0,0.0,0.0,0.0,0.0,0.0,0.0,0.0,0.0,0.0,0.0,0.0,0.0,0.0,0.0,0.0,0.0,0.0,0.0,0.0,0.0,0.0,0.0,0.0,0.0,0.0,0.0,0.0,0.0,0.0,0.0,0.0,0.0,0.0,0.0,0.0,0.0,0.0,0.0,0.0,0.0,0.0,0.0,0.0,0.0,0.0,0.0,0.0,0.0,0.0,0.0,0.0,0.0,0.0,0.0,0.0,0.0,0.0,0.0,0.0,0.0,0.0,0.0,0.0,0.0,0.0,0.0,0.0,0.0,0.0,0.0,0.0,0.0,0.0,0.0,0.0,0.0,0.0,0.0,0.0,0.0,0.0,0.0,0.0,0.0,0.0,0.0,0.0,0.0,0.0,0.0,0.0,0.0,0.0,0.0,0.0,0.0,0.0,0.0,0.0,0.0,0.0,0.0,0.0,0.0,0.0,0.0,0.0,0.0,0.0,0.0,0.0,0.0,0.0,0.0,0.0,0.0,0.0,0.0,0.0,0.0,0.0,0.0,0.0,0.0,0.0,0.0,0.0,0.0,0.0,0.0,0.0,0.0,0.0,0.0,0.0,0.0,0.0,0.0,0.0,0.0,0.0,0.0,0.0,0.0,0.0,0.0,0.0,0.0,0.0,0.0,0.0,0.0,0.0,0.0,0.0,0.0,0.0,0.0,0.0,0.0,0.0,0.0,0.0,0.0,0.0,0.0,0.0,0.0,0.0,0.0,0.0,0.0,0.0,0.0,0.0,0.0,0.0,0.0,0.0,0.0,0.0,0.0,0.0,0.0,0.0,0.0,0.0,0.0,0.0,0.0,0.0,0.0,0.0,0.0,0.0,0.0,0.0,0.0,0.0,0.0,0.0,0.0,0.0,0.0,0.0,0.0,0.0,0.0,0.0,0.0,0.0,0.0,0.0,0.0,0.0,0.0,0.0,0.0,0.0,0.0,0.0,0.0,0.0,0.0,0.0,0.0,0.0,0.0,0.0,0.0,0.0,0.0,0.0,0.0,0.0,0.0,0.0,0.0,0.0,0.0,0.0,0.0,0.0,0.0,0.0,0.0,0.0,0.0,0.0,0.0,0.0,0.0,0.0,0.0,0.0,0.0,0.0,0.0,0.0,0.0,0.0,0.0,0.0,0.0,0.0,0.0,0.0,0.0,0.0,0.0,0.0,0.0,0.0,0.0,0.0,0.0,0.0,0.0,0.0,0.0,0.0,0.0,0.0,0.0,0.0,0.0,0.0,0.0,0.0,0.0,0.0,0.0,0.0,0.0,0.0,0.0,0.0,0.0,0.0,0.0,0.0,0.0,0.0,0.0,0.0,0.0,0.0,0.0,0.0,0.0,0.0,0.0,0.0,0.0,0.0,0.0,0.0,0.0,0.0,0.0,0.0,0.0,0.0,0.0,0.0,0.0,0.0,0.0,0.0,0.0,0.0,0.0,0.0,0.0,0.0,0.0,0.0,0.0,0.0,0.0,0.0,0.0,0.0,0.0,0.0,0.0,0.0,0.0,0.0,0.0,0.0,0.0,0.0,0.0,0.0,0.0,0.0,0.0,0.0,0.0,0.0,0.0,0.0,0.0,0.0,0.0,0.0,0.0,0.0,0.0,0.0,0.0,0.0,0.0,0.0,0.0,0.0,0.0,0.0,0.0,0.0,0.0,0.0,0.0,0.0,0.0,0.0,0.0,0.0,0.0,0.0,0.0,0.0,0.0,0.0,0.0,0.0,0.0,0.0,0.0,0.0,0.0,0.0,0.0,0.0,0.0,0.0,0.0,0.0,0.0,0.0,0.0,0.0,0.0,0.0,0.0,0.0,0.0,0.0,0.0,0.0,0.0,0.0,0.0,0.0,0.0,0.0,0.0,0.0,0.0,0.0,0.0,0.0,0.0,0.0,0.0,0.0,0.0,0.0,0.0,0.0,0.0,0.0,0.0,0.0,0.0,0.0,0.0,0.0,0.0,0.0,0.0,0.0,0.0,0.0,0.0,0.0,0.0,0.0,0.0,0.0,0.0,0.0,0.0,0.0,0.0,0.0,0.0,0.0,0.0,0.0,0.0,0.0,0.0,0.0,0.0,0.0,0.0,-1.1479,0.0,0.0,0.0,0.0,0.0,0.0,0.0,0.0,0.0,0.0,0.0,0.0,0.0,0.0,0.0,0.0,0.0,0.0,0.0,0.0,0.0,0.0,0.0,0.0,0.0,0.0,0.0,0.0,0.0,0.0,0.0,0.0,0.0,0.0,0.0,0.0,0.0,0.0,0.0,0.0,0.0,0.0,0.0,0.0,0.0,0.0,0.0,0.0,0.0,0.0,0.0,0.0,0.0,0.0,0.0,0.0,0.0,0.0,0.0,0.0,0.0,0.0,0.0,0.0,0.0,0.0,0.0,0.0,0.0,0.0,0.0,0.0,0.0,0.0,0.0,0.0,0.0,0.0,0.0,0.0,0.0,0.0,0.0,0.0,0.0,0.0,0.0,0.0,0.0,0.0,0.0,0.0,0.0,0.0,0.0,0.0,0.0,0.0,0.0,0.0,0.0,0.0,0.0,0.0,0.0,0.0,0.0,0.0,0.0,0.0,-1.4787,-1.4983,-1.4934,-1.4535,-1.3645,0.0,0.0,0.0,0.0,0.0,0.0,0.0,0.0,0.0,0.0,0.0,0.0,0.0,0.0,0.0,0.0,0.0,0.0,0.0,0.0,0.0,0.0,0.0,0.0,0.0,0.0,0.0,0.0,0.0,0.0,0.0,0.0,0.0,0.0,0.0,0.0,0.0,0.0,0.0,0.0,0.0,0.0,0.0,0.0,0.0,0.0,0.0,0.0,0.0,0.0,0.0,0.0,0.0,0.0,0.0,0.0,0.0,0.0,0.0,0.0,0.0,0.0,0.0,0.0,0.0,0.0,0.0,0.0,0.0,0.0,0.0,0.0,0.0,0.0,0.0,0.0,0.0,0.0,0.0,0.0,0.0,0.0,0.0,0.0,0.0,0.0,0.0,0.0,0.0,0.0,0.0,0.0,0.0,0.0,0.0,0.0,0.0,0.0,0.0,0.0,0.0,0.0,0.0,0.0,0.0,0.0,0.0,0.0,0.0,0.0,0.0,0.0,-1.68,-1.6307,-1.533,0.0,0.0,0.0,0.0,0.0,0.0,0.0,0.0,0.0,0.0,0.0,0.0,0.0,0.0,0.0,0.0,0.0,0.0,0.0,0.0,0.0,0.0,0.0,0.0,0.0,0.0,0.0,0.0,0.0,0.0,0.0,0.0,0.0,0.0,0.0,0.0,0.0,0.0,0.0,0.0,0.0,0.0,0.0,0.0,0.0,0.0,0.0,0.0,0.0,0.0,0.0,0.0,0.0,0.0,0.0,0.0,0.0,0.0,0.0,0.0,0.0,0.0,0.0,0.0,0.0,0.0,0.0,0.0,0.0,0.0,0.0,0.0,0.0,0.0,0.0,0.0,0.0,0.0,0.0,0.0,0.0,0.0,0.0,0.0,0.0,0.0,0.0,0.0,0.0,0.0,0.0,0.0,0.0,0.0,0.0,0.0,0.0,0.0,0.0,0.0,0.0,0.0,0.0,0.0,0.0,0.0,0.0,0.0,0.0,0.0,-1.7379,-1.7523,-1.7146,0.0,-1.5102,0.0,0.0,0.0,0.0,0.0,0.0,0.0,0.0,0.0,0.0,0.0,0.0,0.0,0.0,0.0,0.0,0.0,0.0,0.0,0.0,0.0,0.0,0.0,0.0,0.0,0.0,0.0,0.0,0.0,0.0,0.0,0.0,0.0,0.0,0.0,0.0,0.0,0.0,0.0,0.0,0.0,0.0,0.0,0.0,0.0,0.0,0.0,0.0,0.0,0.0,0.0,0.0,0.0,0.0,0.0,0.0,0.0,0.0,0.0,0.0,0.0,0.0,0.0,0.0,0.0,0.0,0.0,0.0,0.0,0.0,0.0,0.0,0.0,0.0,0.0,0.0,0.0,0.0,0.0,0.0,0.0,0.0,0.0,0.0,0.0,0.0,0.0,0.0,0.0,0.0,0.0,0.0,0.0,0.0,0.0,0.0,0.0,0.0,0.0,0.0,0.0,0.0,0.0,0.0,0.0,0.0,0.0,0.0,0.0,0.0,-1.8584,-1.8685,-1.7833,-1.6951,0.0,0.0,0.0,0.0,0.0,0.0,0.0,0.0,0.0,0.0,0.0,0.0,0.0,0.0,0.0,0.0,0.0,0.0,0.0,0.0,0.0,0.0,0.0,0.0,0.0,0.0,0.0,0.0,0.0,0.0,0.0,0.0,0.0,0.0,0.0,0.0,0.0,0.0,0.0,0.0,0.0,0.0,0.0,0.0,0.0,0.0,0.0,0.0,0.0,0.0,0.0,0.0,0.0,0.0,0.0,0.0,0.0,0.0,0.0,0.0,0.0,0.0,0.0,0.0,0.0,0.0,0.0,0.0,0.0,0.0,0.0,0.0,0.0,0.0,0.0,0.0,0.0,0.0,0.0,0.0,0.0,0.0,0.0,0.0,0.0,0.0,0.0,0.0,0.0,0.0,0.0,0.0,0.0,0.0,0.0,0.0,0.0,0.0,0.0,0.0,0.0,0.0,0.0,0.0,0.0,0.0,0.0,0.0,0.0,0.0,-1.962,0.0,-1.9812,-1.902,-1.8153,-1.7218,0.0,0.0,0.0,0.0,0.0,0.0,0.0,0.0,0.0,0.0,0.0,0.0,0.0,0.0,0.0,0.0,0.0,0.0,0.0,0.0,0.0,0.0,0.0,0.0,0.0,0.0,0.0,0.0,0.0,0.0,0.0,0.0,0.0,0.0,0.0,0.0,0.0,0.0,0.0,0.0,0.0,0.0,0.0,0.0,0.0,0.0,0.0,0.0,0.0,0.0,0.0,0.0,0.0,0.0,0.0,0.0,0.0,0.0,0.0,0.0,0.0,0.0,0.0,0.0,0.0,0.0,0.0,0.0,0.0,0.0,0.0,0.0,0.0,0.0,0.0,0.0,0.0,0.0,0.0,0.0,0.0,0.0,0.0,0.0,0.0,0.0,0.0,0.0,0.0,0.0,0.0,0.0,0.0,0.0,0.0,0.0,0.0,0.0,0.0,0.0,0.0,0.0,0.0,0.0,0.0,0.0,0.0,0.0,0.0,-2.1077,-2.1175,-2.0944,-2.0988,-2.0066,0.0,0.0,0.0,0.0,0.0,0.0,0.0,0.0,0.0,0.0,0.0,0.0,0.0,0.0,0.0,0.0,0.0,0.0,0.0,0.0,0.0,0.0,0.0,0.0,0.0,0.0,0.0,0.0,0.0,0.0,0.0,0.0,0.0,0.0,0.0,0.0,0.0,0.0,0.0,0.0,0.0,0.0,0.0,0.0,0.0,0.0,0.0,0.0,0.0,0.0,0.0,0.0,0.0,0.0,0.0,0.0,0.0,0.0,0.0,0.0,0.0,0.0,0.0,0.0,0.0,0.0,0.0,0.0,0.0,0.0,0.0,0.0,0.0,0.0,0.0,0.0,0.0,0.0,0.0,0.0,0.0,0.0,0.0,0.0,0.0,0.0,0.0,0.0,0.0,0.0,0.0,0.0,0.0,0.0,0.0,0.0,0.0,0.0,0.0,0.0,0.0,0.0,0.0,0.0,0.0,0.0,0.0,0.0,0.0,-2.1328,-2.1534,-2.1724,-2.1913,-2.0795,-1.968,0.0,0.0,0.0,0.0,0.0,0.0,0.0,0.0,0.0,0.0,0.0,0.0,0.0,0.0,0.0,0.0,0.0,0.0,0.0,0.0,0.0,0.0,0.0,0.0,0.0,0.0,0.0,0.0,0.0,0.0,0.0,0.0,0.0,0.0,0.0,0.0,0.0,0.0,0.0,0.0,0.0,0.0,0.0,0.0,0.0,0.0,0.0,0.0,0.0,0.0,0.0,0.0,0.0,0.0,0.0,0.0,0.0,0.0,0.0,0.0,0.0,0.0,0.0,0.0,0.0,0.0,0.0,0.0,0.0,0.0,0.0,0.0,0.0,0.0,0.0,0.0,0.0,0.0,0.0,0.0,0.0,0.0,0.0,0.0,0.0,0.0,0.0,0.0,0.0,0.0,0.0,0.0,0.0,0.0,0.0,0.0,0.0,0.0,0.0,0.0,0.0,0.0,0.0,0.0,0.0,0.0,0.0,0.0,0.0,-2.2457,0.0,-2.2653,0.0,-2.1513,-2.0212,0.0,0.0,0.0,0.0,0.0,0.0,0.0,0.0,0.0,0.0,0.0,0.0,0.0,0.0,0.0,0.0,0.0,0.0,0.0,0.0,0.0,0.0,0.0,0.0,0.0,0.0,0.0,0.0,0.0,0.0,0.0,0.0,0.0,0.0,0.0,0.0,0.0,0.0,0.0,0.0,0.0,0.0,0.0,0.0,0.0,0.0,0.0,0.0,0.0,0.0,0.0,0.0,0.0,0.0,0.0,0.0,0.0,0.0,0.0,0.0,0.0,0.0,0.0,0.0,0.0,0.0,0.0,0.0,0.0,0.0,0.0,0.0,0.0,0.0,0.0,0.0,0.0,0.0,0.0,0.0,0.0,0.0,0.0,0.0,0.0,0.0,0.0,0.0,0.0,0.0,0.0,0.0,0.0,0.0,0.0,0.0,0.0,0.0,0.0,0.0,0.0,0.0,0.0,0.0,0.0,0.0,0.0,0.0,-2.3493,-2.4153,-2.4153,-2.4127,-2.4101,-2.3264,-2.1875,0.0,0.0,0.0,0.0,0.0,0.0,0.0,0.0,0.0,0.0,0.0,0.0,0.0,0.0,0.0,0.0,0.0,0.0,0.0,0.0,0.0,0.0,0.0,0.0,0.0,0.0,0.0,0.0,0.0,0.0,0.0,0.0,0.0,0.0,0.0,0.0,0.0,0.0,0.0,0.0,0.0,0.0,0.0,0.0,0.0,0.0,0.0,0.0,0.0,0.0,0.0,0.0,0.0,0.0,0.0,0.0,0.0,0.0,0.0,0.0,0.0,0.0,0.0,0.0,0.0,0.0,0.0,0.0,0.0,0.0,0.0,0.0,0.0,0.0,0.0,0.0,0.0,0.0,0.0,0.0,0.0,0.0,0.0,0.0,0.0,0.0,0.0,0.0,0.0,0.0,0.0,0.0,0.0,0.0,0.0,0.0,0.0,0.0,0.0,0.0,0.0,0.0,0.0,0.0,0.0,0.0,0.0,0.0,0.0,-2.4486,-2.4736,-2.5132,-2.5519,-2.3931,-2.2647,0.0,0.0,0.0,0.0,0.0,0.0,0.0,0.0,0.0,0.0,0.0,0.0,0.0,0.0,0.0,0.0,0.0,0.0,0.0,0.0,0.0,0.0,0.0,0.0,0.0,0.0,0.0,0.0,0.0,0.0,0.0,0.0,0.0,0.0,0.0,0.0,0.0,0.0,0.0,0.0,0.0,0.0,0.0,0.0,0.0,0.0,0.0,0.0,0.0,0.0,0.0,0.0,0.0,0.0,0.0,0.0,0.0,0.0,0.0,0.0,0.0,0.0,0.0,0.0,0.0,0.0,0.0,0.0,0.0,0.0,0.0,0.0,0.0,0.0,0.0,0.0,0.0,0.0,0.0,0.0,0.0,0.0,0.0,0.0,0.0,0.0,0.0,0.0,0.0,0.0,0.0,0.0,0.0,0.0,0.0,0.0,0.0,0.0,0.0,0.0,0.0,0.0,0.0,0.0,0.0,0.0,0.0,0.0,0.0,-2.5357,-2.5486,-2.5788,-2.6189,-2.4413,-2.3194,-2.254,0.0,0.0,0.0,0.0,0.0,0.0,0.0,0.0,0.0,0.0,0.0,0.0,0.0,0.0,0.0,0.0,0.0,0.0,0.0,0.0,0.0,0.0,0.0,0.0,0.0,0.0,0.0,0.0,0.0,0.0,0.0,0.0,0.0,0.0,0.0,0.0,0.0,0.0,0.0,0.0,0.0,0.0,0.0,0.0,0.0,0.0,0.0,0.0,0.0,0.0,0.0,0.0,0.0,0.0,0.0,0.0,0.0,0.0,0.0,0.0,0.0,0.0,0.0,0.0,0.0,0.0,0.0,0.0,0.0,0.0,0.0,0.0,0.0,0.0,0.0,0.0,0.0,0.0,0.0,0.0,0.0,0.0,0.0,0.0,0.0,0.0,0.0,0.0,0.0,0.0,0.0,0.0,0.0,0.0,0.0,0.0,0.0,0.0,0.0,0.0,0.0,0.0,0.0,0.0,0.0,0.0,0.0,0.0,-2.659,-2.6454,-2.6329,-2.6214,-2.4834,-2.3707,0.0,0.0,0.0,0.0,0.0,0.0,0.0,0.0,0.0,0.0,0.0,0.0,0.0,0.0,0.0,0.0,0.0,0.0,0.0,0.0,0.0,0.0,0.0,0.0,0.0,0.0,0.0,0.0,0.0,0.0,0.0,0.0,0.0,0.0,0.0,0.0,0.0,0.0,0.0,0.0,0.0,0.0,0.0,0.0,0.0,0.0,0.0,0.0,0.0,0.0,0.0,0.0,0.0,0.0,0.0,0.0,0.0,0.0,0.0,0.0,0.0,0.0,0.0,0.0,0.0,0.0,0.0,0.0,0.0,0.0,0.0,0.0,0.0,0.0,0.0,0.0,0.0,0.0,0.0,0.0,0.0,0.0,0.0,0.0,0.0,0.0,0.0,0.0,0.0,0.0,0.0,0.0,0.0,0.0,0.0,0.0,0.0,0.0,0.0,0.0,0.0,0.0,0.0,0.0,0.0,0.0,0.0,0.0,0.0,-2.7596,-2.7374,-2.7599,-2.8193,-2.5793,-2.4751,0.0,0.0,0.0,0.0,0.0,0.0,0.0,0.0,0.0,0.0,0.0,0.0,0.0,0.0,0.0,0.0,0.0,0.0,0.0,0.0,0.0,0.0,0.0,0.0,0.0,0.0,0.0,0.0,0.0,0.0,0.0,0.0,0.0,0.0,0.0,0.0,0.0,0.0,0.0,0.0,0.0,0.0,0.0,0.0,0.0,0.0,0.0,0.0,0.0,0.0,0.0,0.0,0.0,0.0,0.0,0.0,0.0,0.0,0.0,0.0,0.0,0.0,0.0,0.0,0.0,0.0,0.0,0.0,0.0,0.0,0.0,0.0,0.0,0.0,0.0,0.0,0.0,0.0,0.0,0.0,0.0,0.0,0.0,0.0,0.0,0.0,0.0,0.0,0.0,0.0,0.0,0.0,0.0,0.0,0.0,0.0,0.0,0.0,0.0,0.0,0.0,0.0,0.0,0.0,0.0,0.0,0.0,0.0,-2.8037,-2.8166,-2.7862,-2.8106,-2.8938,-2.6852,-2.5717,0.0,0.0,0.0,0.0,0.0,0.0,0.0,0.0,0.0,0.0,0.0,0.0,0.0,0.0,0.0,0.0,0.0,0.0,0.0,0.0,0.0,0.0,0.0,0.0,0.0,0.0,0.0,0.0,0.0,0.0,0.0,0.0,0.0,0.0,0.0,0.0,0.0,0.0,0.0,0.0,0.0,0.0,0.0,0.0,0.0,0.0,0.0,0.0,0.0,0.0,0.0,0.0,0.0,0.0,0.0,0.0,0.0,0.0,0.0,0.0,0.0,0.0,0.0,0.0,0.0,0.0,0.0,0.0,0.0,0.0,0.0,0.0,0.0,0.0,0.0,0.0,0.0,0.0,0.0,0.0,0.0,0.0,0.0,0.0,0.0,0.0,0.0,0.0,0.0,0.0,0.0,0.0,0.0,0.0,0.0,0.0,0.0,0.0,0.0,0.0,0.0,0.0,0.0,0.0,0.0,0.0,0.0,0.0,-2.8237,-2.8478,-2.8057,-2.8147,-2.8649,-2.7623,-2.6463,0.0,0.0,0.0,0.0,0.0,0.0,0.0,0.0,0.0,0.0,0.0,0.0,0.0,0.0,0.0,0.0,0.0,0.0,0.0,0.0,0.0,0.0,0.0,0.0,0.0,0.0,0.0,0.0,0.0,0.0,0.0,0.0,0.0,0.0,0.0,0.0,0.0,0.0,0.0,0.0,0.0,0.0,0.0,0.0,0.0,0.0,0.0,0.0,0.0,0.0,0.0,0.0,0.0,0.0,0.0,0.0,0.0,0.0,0.0,0.0,0.0,0.0,0.0,0.0,0.0,0.0,0.0,0.0,0.0,0.0,0.0,0.0,0.0,0.0,0.0,0.0,0.0,0.0,0.0,0.0,0.0,0.0,0.0,0.0,0.0,0.0,0.0,0.0,0.0,0.0,0.0,0.0,0.0,0.0,0.0,0.0,0.0,0.0,0.0,0.0,0.0,0.0,0.0,0.0,0.0,0.0,0.0,0.0,-2.8883,-2.9086,-2.8554,-2.8255,-2.8269,-2.6736,-2.6011,0.0,0.0,0.0,0.0,0.0,0.0,0.0,0.0,0.0,0.0,0.0,0.0,0.0,0.0,0.0,0.0,0.0,0.0,0.0,0.0,0.0,0.0,0.0,0.0,0.0,0.0,0.0,0.0,0.0,0.0,0.0,0.0,0.0,0.0,0.0,0.0,0.0,0.0,0.0,0.0,0.0,0.0,0.0,0.0,0.0,0.0,0.0,0.0,-1.4243,0.0,0.0,0.0,0.0,0.0,0.0,0.0,0.0,0.0,0.0,0.0,0.0,0.0,0.0,0.0,0.0,0.0,0.0,0.0,0.0,0.0,0.0,0.0,0.0,0.0,0.0,0.0,0.0,0.0,0.0,0.0,0.0,0.0,0.0,0.0,0.0,0.0,0.0,0.0,0.0,0.0,0.0,0.0,0.0,0.0,0.0,0.0,0.0,0.0,0.0,0.0,0.0,0.0,0.0,0.0,0.0,0.0,0.0,0.0,-2.9193,-2.9355,-2.8888,-2.8504,-2.8219,-2.7122,-2.6184,0.0,0.0,0.0,0.0,0.0,0.0,0.0,0.0,0.0,0.0,0.0,0.0,0.0,0.0,0.0,0.0,0.0,0.0,0.0,0.0,0.0,0.0,0.0,0.0,0.0,0.0,0.0,0.0,0.0,0.0,0.0,0.0,0.0,0.0,0.0,0.0,0.0,0.0,0.0,0.0,0.0,0.0,0.0,0.0,0.0,0.0,0.0,0.0,0.0,0.0,0.0,0.0,0.0,0.0,0.0,0.0,0.0,0.0,0.0,0.0,0.0,0.0,0.0,0.0,0.0,0.0,0.0,0.0,0.0,0.0,0.0,0.0,0.0,0.0,0.0,0.0,0.0,0.0,0.0,0.0,0.0,0.0,0.0,0.0,0.0,0.0,0.0,0.0,0.0,0.0,0.0,0.0,0.0,0.0,0.0,0.0,0.0,0.0,0.0,0.0,0.0,0.0,0.0,0.0,0.0,0.0,0.0,-2.9353,-2.9358,-2.9493,-2.9148,-2.8772,-2.8446,-2.7929,-2.6619,-2.4489,0.0,0.0,0.0,0.0,0.0,0.0,0.0,0.0,0.0,0.0,0.0,0.0,0.0,0.0,0.0,0.0,0.0,0.0,0.0,0.0,0.0,0.0,0.0,0.0,0.0,0.0,0.0,0.0,0.0,0.0,0.0,0.0,0.0,0.0,0.0,0.0,0.0,0.0,-1.8338,-1.9163,0.0,0.0,0.0,0.0,0.0,0.0,0.0,0.0,-1.7975,0.0,0.0,0.0,0.0,0.0,0.0,0.0,0.0,0.0,0.0,0.0,0.0,0.0,0.0,0.0,0.0,0.0,0.0,0.0,0.0,0.0,0.0,0.0,0.0,0.0,0.0,0.0,0.0,0.0,0.0,0.0,0.0,0.0,0.0,0.0,0.0,0.0,0.0,0.0,0.0,0.0,0.0,0.0,0.0,0.0,0.0,0.0,0.0,0.0,0.0,0.0,0.0,0.0,0.0,0.0,0.0,-3.0843,-3.0038,-2.9608,-2.957,-2.9235,-2.8883,-2.8504,-2.8057,-2.6883,-2.496,0.0,0.0,0.0,0.0,0.0,0.0,0.0,0.0,0.0,0.0,0.0,0.0,0.0,0.0,0.0,0.0,0.0,0.0,0.0,0.0,0.0,0.0,0.0,0.0,0.0,0.0,0.0,0.0,0.0,0.0,0.0,0.0,0.0,0.0,0.0,0.0,0.0,0.0,0.0,-2.426,-2.4604,0.0,0.0,0.0,0.0,0.0,0.0,0.0,0.0,-2.0171,0.0,0.0,0.0,0.0,0.0,0.0,0.0,0.0,0.0,0.0,0.0,0.0,0.0,0.0,0.0,0.0,0.0,0.0,0.0,0.0,0.0,0.0,0.0,0.0,0.0,0.0,0.0,0.0,0.0,0.0,0.0,0.0,0.0,0.0,0.0,0.0,0.0,0.0,0.0,0.0,0.0,0.0,0.0,0.0,0.0,0.0,0.0,0.0,0.0,0.0,0.0,0.0,0.0,0.0,0.0,-3.0525,-3.0132,-2.9855,-2.977,-2.9456,-2.9107,-2.8724,-2.8246,-2.7063,0.0,0.0,0.0,0.0,0.0,0.0,0.0,0.0,0.0,0.0,0.0,0.0,0.0,0.0,0.0,0.0,0.0,0.0,0.0,0.0,0.0,0.0,0.0,0.0,0.0,0.0,0.0,0.0,0.0,0.0,0.0,0.0,0.0,0.0,0.0,0.0,0.0,0.0,0.0,0.0,-2.5522,-2.5445,-2.6209,0.0,0.0,0.0,0.0,0.0,0.0,-2.2911,-2.2329,0.0,0.0,0.0,0.0,0.0,0.0,0.0,0.0,0.0,0.0,0.0,0.0,0.0,0.0,0.0,0.0,0.0,0.0,0.0,0.0,0.0,0.0,0.0,0.0,0.0,0.0,0.0,0.0,0.0,0.0,0.0,0.0,0.0,0.0,0.0,0.0,0.0,0.0,0.0,0.0,0.0,0.0,0.0,0.0,0.0,0.0,0.0,0.0,0.0,0.0,0.0,0.0,0.0,0.0,0.0,-3.0053,-3.0068,-3.0038,-2.9924,-2.9681,-2.9355,-2.8952,-2.858,-2.7449,0.0,0.0,0.0,0.0,0.0,0.0,0.0,0.0,0.0,0.0,0.0,0.0,0.0,0.0,0.0,0.0,0.0,0.0,0.0,0.0,0.0,0.0,0.0,0.0,0.0,0.0,0.0,0.0,0.0,0.0,0.0,0.0,0.0,0.0,0.0,0.0,0.0,0.0,0.0,0.0,0.0,-2.5949,-2.7289,-2.569,0.0,0.0,0.0,0.0,-2.576,-2.4742,0.0,0.0,0.0,0.0,0.0,0.0,0.0,0.0,0.0,0.0,0.0,0.0,0.0,0.0,0.0,0.0,0.0,0.0,0.0,0.0,0.0,0.0,0.0,0.0,0.0,0.0,0.0,0.0,0.0,0.0,0.0,0.0,0.0,0.0,0.0,0.0,0.0,0.0,0.0,0.0,0.0,0.0,0.0,0.0,0.0,0.0,0.0,0.0,0.0,0.0,0.0,0.0,0.0,0.0,0.0,0.0,-3.0171,-3.0109,-3.0064,-2.9972,-2.9841,-2.9551,-2.9086,-2.9325,-2.8468,0.0,0.0,0.0,0.0,0.0,0.0,0.0,0.0,0.0,0.0,0.0,0.0,0.0,0.0,0.0,0.0,0.0,0.0,0.0,0.0,0.0,0.0,0.0,0.0,0.0,0.0,0.0,0.0,0.0,0.0,0.0,0.0,0.0,0.0,0.0,0.0,0.0,0.0,0.0,0.0,0.0,-2.7846,-2.6336,-2.577,-2.541,0.0,0.0,-2.6447,-2.7214,-2.7146,0.0,0.0,0.0,0.0,0.0,0.0,0.0,0.0,0.0,0.0,0.0,0.0,0.0,0.0,0.0,0.0,0.0,0.0,0.0,0.0,0.0,0.0,0.0,0.0,0.0,0.0,0.0,0.0,0.0,0.0,0.0,0.0,0.0,0.0,0.0,0.0,0.0,0.0,0.0,0.0,0.0,0.0,0.0,0.0,0.0,0.0,0.0,0.0,0.0,0.0,0.0,0.0,0.0,0.0,0.0,-3.0253,-3.0221,-2.9748,-2.944,-2.9436,-2.9216,-2.8703,-2.7883,-2.8636,-2.7978,0.0,0.0,0.0,0.0,0.0,0.0,0.0,0.0,0.0,0.0,0.0,0.0,0.0,0.0,0.0,0.0,0.0,0.0,0.0,0.0,0.0,0.0,0.0,0.0,0.0,0.0,0.0,0.0,0.0,0.0,0.0,0.0,0.0,0.0,0.0,0.0,0.0,0.0,0.0,0.0,0.0,0.0,-2.7631,-2.6814,0.0,0.0,0.0,-2.7605,-2.7635,0.0,0.0,0.0,0.0,0.0,0.0,0.0,0.0,0.0,0.0,0.0,0.0,0.0,0.0,0.0,0.0,0.0,0.0,0.0,0.0,0.0,0.0,0.0,0.0,0.0,0.0,0.0,0.0,0.0,0.0,0.0,0.0,0.0,0.0,0.0,0.0,0.0,0.0,0.0,0.0,0.0,0.0,0.0,0.0,0.0,0.0,0.0,0.0,0.0,0.0,0.0,0.0,0.0,0.0,0.0,0.0,0.0,-3.0292,-2.9449,-2.9015,-2.8989,-2.8565,-2.7897,-2.7007,-2.7769,0.0,0.0,0.0,0.0,0.0,0.0,0.0,0.0,0.0,0.0,0.0,0.0,0.0,0.0,0.0,0.0,0.0,0.0,0.0,0.0,0.0,0.0,0.0,0.0,0.0,0.0,0.0,-2.0795,0.0,0.0,0.0,0.0,0.0,0.0,0.0,0.0,0.0,0.0,0.0,0.0,0.0,0.0,-2.6333,-2.8232,-2.7313,-2.6638,0.0,0.0,-2.8129,-2.7717,-2.7736,-2.7399,0.0,0.0,0.0,0.0,0.0,0.0,0.0,0.0,0.0,0.0,0.0,0.0,0.0,0.0,0.0,0.0,0.0,0.0,0.0,0.0,0.0,0.0,0.0,0.0,0.0,0.0,0.0,0.0,0.0,0.0,0.0,0.0,0.0,0.0,0.0,0.0,0.0,0.0,0.0,0.0,0.0,0.0,0.0,0.0,0.0,0.0,0.0,0.0,0.0,0.0,0.0,0.0,0.0,0.0,0.0,-3.0273,-2.9512,-2.9051,-2.8976,-2.8128,-2.7475,-2.7112,-2.6916,-2.6326,0.0,0.0,0.0,0.0,0.0,0.0,0.0,0.0,0.0,0.0,0.0,0.0,0.0,0.0,0.0,0.0,0.0,0.0,0.0,0.0,0.0,0.0,0.0,0.0,0.0,0.0,0.0,0.0,0.0,0.0,0.0,0.0,0.0,0.0,0.0,0.0,0.0,0.0,0.0,0.0,0.0,-2.6588,-2.683,-2.6646,-2.6564,0.0,0.0,-2.7616,-2.7542,-2.7523,-2.7069,-2.5764,0.0,0.0,0.0,0.0,0.0,0.0,0.0,0.0,0.0,0.0,0.0,0.0,0.0,0.0,0.0,0.0,0.0,0.0,0.0,0.0,0.0,0.0,0.0,0.0,0.0,0.0,0.0,0.0,0.0,0.0,0.0,0.0,0.0,0.0,0.0,0.0,0.0,0.0,0.0,0.0,0.0,0.0,0.0,0.0,0.0,0.0,0.0,0.0,0.0,0.0,0.0,0.0,0.0,-3.0371,-3.034,-2.9047,-2.8343,-2.8299,-2.7447,-2.6562,-2.564,-2.6969,-2.6628,0.0,0.0,0.0,0.0,0.0,0.0,0.0,0.0,0.0,0.0,0.0,0.0,0.0,0.0,0.0,0.0,0.0,0.0,0.0,0.0,0.0,0.0,0.0,0.0,0.0,0.0,0.0,0.0,-2.3201,-2.3127,-2.3351,0.0,0.0,0.0,0.0,0.0,0.0,0.0,0.0,0.0,0.0,-2.6131,-2.6743,-2.6792,0.0,0.0,-2.7277,-2.7877,-2.8307,-2.7837,-2.7308,-2.6873,-2.6858,0.0,0.0,0.0,0.0,0.0,0.0,0.0,0.0,0.0,0.0,0.0,0.0,0.0,0.0,0.0,0.0,0.0,0.0,0.0,0.0,0.0,0.0,0.0,0.0,0.0,0.0,0.0,0.0,0.0,0.0,0.0,0.0,0.0,0.0,0.0,0.0,0.0,0.0,0.0,0.0,0.0,0.0,0.0,0.0,0.0,0.0,0.0,0.0,0.0,0.0,0.0,0.0,-3.0177,-3.0409,-2.8521,-2.7673,-2.7883,-2.6785,-2.575,-2.4846,-2.6338,-2.6172,0.0,0.0,0.0,0.0,0.0,0.0,0.0,0.0,0.0,0.0,0.0,0.0,0.0,0.0,0.0,0.0,0.0,0.0,0.0,0.0,0.0,0.0,0.0,0.0,0.0,0.0,0.0,0.0,-2.422,-2.3945,-2.4081,0.0,0.0,0.0,0.0,0.0,0.0,0.0,0.0,0.0,0.0,-2.6282,-2.7189,-2.7305,-2.7259,-2.7151,-2.7795,-2.8327,-2.853,-2.7982,-2.7437,-2.7249,0.0,0.0,0.0,0.0,0.0,0.0,0.0,0.0,0.0,0.0,0.0,0.0,0.0,0.0,0.0,0.0,0.0,0.0,0.0,0.0,0.0,0.0,0.0,0.0,0.0,0.0,0.0,0.0,0.0,0.0,-3.0056,0.0,0.0,0.0,0.0,0.0,0.0,0.0,0.0,0.0,0.0,0.0,0.0,0.0,0.0,0.0,0.0,0.0,0.0,0.0,0.0,0.0,0.0,-2.965,-3.0422,-2.802,-2.7113,-2.7817,-2.6208,-2.5198,-2.4915,-2.4846,-2.4601,-2.415,0.0,0.0,0.0,0.0,0.0,0.0,0.0,0.0,0.0,0.0,0.0,0.0,0.0,0.0,0.0,0.0,0.0,0.0,0.0,0.0,0.0,0.0,0.0,0.0,0.0,0.0,-2.4888,-2.443,-2.4119,0.0,0.0,0.0,0.0,0.0,0.0,0.0,0.0,0.0,0.0,-2.6991,-2.7281,-2.8125,-2.8207,-2.8122,-2.8125,-2.876,-2.8913,-2.802,-2.7804,-2.7459,0.0,0.0,0.0,0.0,0.0,0.0,0.0,0.0,0.0,0.0,0.0,0.0,0.0,0.0,0.0,0.0,0.0,0.0,0.0,0.0,0.0,0.0,0.0,0.0,0.0,0.0,0.0,-2.9886,-2.9247,0.0,0.0,0.0,0.0,0.0,0.0,0.0,0.0,0.0,0.0,0.0,-2.9718,-2.9416,0.0,0.0,0.0,0.0,0.0,0.0,0.0,0.0,0.0,0.0,0.0,0.0,-2.9419,-2.9603,-2.7774,-2.6865,-2.7073,-2.6002,-2.5264,-2.4904,-2.5352,-2.5394,-2.4921,0.0,0.0,0.0,0.0,0.0,0.0,0.0,0.0,0.0,0.0,0.0,0.0,0.0,0.0,0.0,0.0,0.0,0.0,0.0,0.0,0.0,0.0,0.0,0.0,0.0,-2.5056,0.0,0.0,0.0,0.0,0.0,0.0,0.0,0.0,0.0,0.0,0.0,-2.7012,-2.7011,-2.7519,-2.7968,-2.8281,-2.8299,-2.8256,0.0,0.0,0.0,0.0,0.0,0.0,0.0,0.0,0.0,0.0,0.0,0.0,0.0,0.0,-2.8912,-2.7809,-2.7317,-2.7195,-2.7475,0.0,0.0,0.0,0.0,0.0,0.0,0.0,0.0,0.0,0.0,0.0,0.0,0.0,0.0,-2.9975,0.0,-3.0125,0.0,0.0,0.0,0.0,0.0,0.0,0.0,0.0,-3.0597,-3.0324,-2.979,-2.9478,-2.902,0.0,-2.8753,-2.9306,0.0,0.0,0.0,0.0,0.0,0.0,0.0,0.0,-2.8711,-2.9205,-2.7369,-2.6459,-2.6691,-2.5936,-2.534,-2.5022,-2.5422,-2.5324,-2.4672,-2.4169,-2.3815,0.0,0.0,0.0,0.0,0.0,0.0,0.0,0.0,0.0,0.0,0.0,0.0,0.0,0.0,0.0,0.0,0.0,0.0,0.0,0.0,0.0,0.0,0.0,-2.5302,0.0,0.0,0.0,0.0,0.0,0.0,0.0,0.0,0.0,-2.5654,-2.6719,-2.734,-2.7046,-2.8022,-2.8765,-2.8768,0.0,0.0,0.0,0.0,0.0,0.0,0.0,-2.7821,-2.8598,-2.7768,-2.694,-2.6718,-2.7295,-2.7708,-2.7324,0.0,0.0,-2.8651,-2.83,-2.8083,-2.8096,-2.7763,-2.7219,-2.6395,-2.6217,-2.5915,0.0,0.0,0.0,0.0,0.0,0.0,0.0,0.0,-3.0155,-3.0636,0.0,-3.0662,0.0,0.0,0.0,0.0,0.0,0.0,0.0,0.0,-3.0665,-3.068,-3.0564,-2.979,-2.9369,-2.9292,-2.8515,-2.8541,-2.9279,-2.9249,0.0,0.0,0.0,0.0,0.0,0.0,-2.7625,-2.9156,-2.6798,-2.5906,-2.6694,-2.594,-2.5393,-2.5197,-2.4956,-2.4398,-2.3539,-2.4035,-2.3861,-2.2923,-2.3388,0.0,0.0,0.0,0.0,0.0,0.0,0.0,0.0,0.0,0.0,0.0,0.0,0.0,0.0,0.0,0.0,0.0,0.0,0.0,0.0,-2.5293,0.0,0.0,0.0,0.0,0.0,0.0,0.0,0.0,0.0,0.0,-2.5605,-2.7165,-2.7975,-2.7173,0.0,0.0,0.0,0.0,-2.9863,-3.0605,-3.0717,-3.0612,-3.0486,-2.9796,-2.8961,-2.8158,0.0,0.0,-2.6939,-2.7372,-2.7575,-2.6766,-2.7259,-2.8211,-2.9729,-2.9398,-2.897,-2.8957,-2.833,-2.752,-2.6721,-2.6453,-2.6184,-3.4828,0.0,0.0,0.0,0.0,-3.1096,-3.0729,-3.0305,-3.0311,-3.0175,-2.9902,-3.0282,0.0,0.0,0.0,0.0,0.0,0.0,-3.0604,-3.0665,-3.0703,-3.0354,-2.9765,-2.9561,-2.9157,-2.8554,-2.8301,-2.7975,-2.7629,-2.7615,-2.8079,-2.8981,0.0,0.0,0.0,0.0,-2.7103,-2.7427,-2.6236,-2.5667,-2.5867,-2.5673,-2.5437,-2.5146,-2.4962,-2.47,-2.432,-2.4532,-2.45,-2.4174,-2.434,0.0,0.0,0.0,0.0,0.0,0.0,0.0,0.0,0.0,0.0,0.0,0.0,0.0,0.0,0.0,0.0,0.0,0.0,0.0,-2.5318,-2.5414,-2.5485,0.0,0.0,0.0,0.0,0.0,0.0,0.0,0.0,0.0,-2.5691,-2.7208,-2.822,0.0,0.0,-3.0474,-3.0517,-2.9993,-2.9683,-2.9919,0.0,0.0,0.0,-2.8162,-2.7717,-2.8027,-2.7559,-2.7067,-2.683,-2.6889,-2.6901,-2.6631,-2.7201,-2.7854,-2.8294,-2.8804,-2.9032,-2.9013,-2.8434,-2.761,-2.6764,-2.611,-2.555,-3.4831,-3.4168,-3.316,-3.2089,-3.1066,-3.1009,-3.0784,-3.0444,-3.0436,-3.0362,-3.023,-3.0443,-3.0443,-3.0279,-3.0462,0.0,0.0,0.0,-3.0673,-3.0697,-3.0348,-2.9919,-2.9416,-2.8788,-2.8188,-2.7682,-2.7331,-2.7082,-2.6938,-2.6587,-2.7106,-2.8369,0.0,0.0,-2.809,-2.6972,-2.6525,-2.6782,-2.6028,-2.5576,-2.5535,-2.5582,-2.5505,-2.5254,-2.5102,-2.5,-2.4907,-2.487,-2.4827,-2.4779,-2.4823,-2.479,0.0,0.0,0.0,0.0,0.0,0.0,0.0,0.0,0.0,0.0,0.0,-2.3681,0.0,0.0,0.0,0.0,-2.5082,-2.5387,-2.546,-2.5515,0.0,0.0,0.0,0.0,0.0,0.0,0.0,-2.6364,-2.5948,-2.5646,-2.5723,-2.6916,-2.778,-2.7783,-2.923,-3.0289,-3.0333,0.0,-2.9572,-2.9556,-2.8838,-2.8279,-2.8193,-2.7481,-2.6991,-2.7068,-2.6701,-2.6345,-2.6326,-2.6241,-2.616,-2.6195,-2.6468,-2.6845,-2.7163,-2.7727,-2.8107,-2.8107,-2.7725,-2.7122,-2.6285,-2.5707,-2.5283,-3.4624,-3.4417,-3.3436,-3.2097,-3.0646,-3.0539,-3.0518,-3.05,-3.0511,-3.0956,-3.1652,-3.0924,-3.1047,-3.1743,-3.0967,0.0,0.0,-3.0707,-3.0697,-3.0684,-2.9814,-2.9396,-2.9303,-2.771,-2.6872,-2.6775,-2.5976,-2.6045,-2.6822,-2.6083,-2.6105,-2.6869,-2.6032,-2.6404,-2.7838,-2.6404,-2.5995,-2.6775,-2.6015,-2.5605,-2.5601,-2.561,-2.5574,-2.5499,-2.5329,-2.5206,-2.5205,-2.5024,-2.491,-2.4915,-2.4921,-2.4921,-2.4915,0.0,0.0,0.0,0.0,0.0,0.0,0.0,0.0,0.0,0.0,0.0,0.0,0.0,0.0,0.0,-2.4994,0.0,-2.56,-2.5597,0.0,0.0,0.0,-2.5613,-2.5605,-2.5605,-2.564,-2.5697,0.0,0.0,0.0,0.0,-2.6864,-2.689,-2.8398,-2.9475,-2.9416,-2.9396,-2.9377,-2.9084,-2.8447,-2.7897,-2.746,-2.691,-2.6195,-2.5527,-2.5407,-2.5364,-2.536,-2.543,-2.5343,-2.5156,-2.5271,-2.5504,-2.6215,-2.6418,-2.6486,-2.6554,-2.6602,-2.6381,-2.5648,-2.532,-2.512,-3.4877,-3.3668,-3.335,-3.2591,-3.1591,-3.1559,-3.1188,-3.0603,-3.0646,-3.0756,-3.0956,-3.0768,-3.0787,-3.0964,-3.0756,-3.0678,-3.0704,-3.0767,-3.0784,-3.0716,-2.9877,-2.9145,-2.847,-2.7449,-2.6637,-2.5996,-2.5783,-2.5806,-2.6008,-2.5813,-2.5793,-2.5989,-2.5772,-2.5883,-2.6264,-2.5874,-2.5776,-2.5971,-2.5791,-2.5645,-2.5613,-2.5598,-2.5566,-2.5517,-2.541,-2.5292,-2.5215,-2.5149,-2.5111,-2.5068,-2.5103,-2.5126,-2.5126,-2.5084,0.0,0.0,0.0,0.0,0.0,0.0,0.0,0.0,0.0,-2.4274,-2.4887,0.0,-2.4381,0.0,-2.5434,-2.5597,-2.5668,-2.5637,0.0,0.0,-2.5679,-2.5676,-2.5666,-2.5679,-2.5687,-2.5694,-2.5707,-2.5675,-2.5639,-2.5814,-2.5926,-2.5989,-2.7983,-2.9299,-2.8694,-2.8597,-2.8086,-2.6897,-2.598,-2.51,-2.457,-2.4168,-2.4007,-2.3731,-2.3708,-2.3708,-2.3688,-2.4204,-2.4369,-2.3814,-2.4606,-2.5108,-2.4803,-2.5202,-2.5628,-2.5734,-2.6197,-2.6419,-2.556,-2.485,-2.4293,-3.4257,-3.3339,-3.2558,-3.1945,-3.1451,-3.1387,-3.1086,-3.0647,-3.0681,-3.0696,-3.07,-3.0735,-3.0739,-3.0737,-3.0748,-3.0739,-3.0739,-3.0794,-3.0789,-3.0739,-2.9893,-2.9045,-2.8212,-2.7386,-2.6532,-2.5714,-2.5696,-2.5698,-2.57,-2.57,-2.57,-2.57,-2.57,-2.5699,-2.5698,-2.5696,-2.5694,-2.5694,-2.5693,-2.5668,-2.5637,-2.5648,-2.5632,-2.558,-2.549,-2.5596,-2.5886,-2.5884,-2.5831,-2.5783,-2.5803,-2.5659,-2.5271,-2.5241,-2.5233,0.0,0.0,0.0,0.0,0.0,0.0,0.0,0.0,0.0,0.0,0.0,-2.4536,0.0,-2.56,0.0,-2.5662,-2.5644,-2.5658,-2.5705,-2.5698,-2.5693,-2.5704,-2.5697,-2.5687,-2.5656,-2.5648,-2.5639,-2.5615,-2.5609,-2.5599,-2.5621,-2.7162,-2.8145,-2.774,-2.7662,-2.7312,-2.6334,-2.5149,-2.4066,-2.3239,-2.3102,-2.3103,-2.311,-2.311,-2.3113,-2.3107,-2.3455,-2.3579,-2.3186,-2.3742,-2.4329,-2.4173,-2.4169,-2.4485,-2.5274,-2.5506,-2.5374,-2.4924,-2.4407,-2.3919,-3.3607,-3.3273,-3.1947,-3.1263,-3.105,-3.1047,-3.093,-3.071,-3.0833,-3.0816,-3.0718,-3.0768,-3.0786,-3.0799,-3.0793,-3.0798,-3.0798,-3.0786,-3.0798,-3.0765,-2.9916,-2.9123,-2.8406,-2.7435,-2.6577,-2.5874,-2.5759,-2.57,-2.5701,-2.5701,-2.5701,-2.5701,-2.5701,-2.5703,-2.5703,-2.5703,-2.5702,-2.5701,-2.5701,-2.5699,-2.5696,-2.5693,-2.5707,-2.5696,-2.5671,-2.6041,-2.6758,-2.6748,-2.6683,-2.6637,-2.6533,-2.6067,-2.5226,-2.5159,-2.5101,0.0,-2.4331,0.0,0.0,0.0,0.0,0.0,0.0,0.0,0.0,-2.4325,-2.473,-2.5531,-2.5658,-2.5683,-2.5605,-2.5675,-2.5698,-2.5696,-2.569,-2.5701,-2.5691,-2.5687,-2.5656,-2.561,-2.5605,-2.5609,-2.5582,-2.5595,-2.5595,-2.5628,-2.6191,-2.6683,-2.6663,-2.6817,-2.6829,-2.6572,-2.5167,-2.3777,-2.3052,-2.291,-2.2847,-2.2782,-2.2646,-2.2785,-2.2703,-2.2844,-2.2881,-2.2698,-2.2859,-2.3232,-2.3791,-2.3327,-2.3466,-2.4749,-2.4525,-2.4123,-2.416,-2.4,-2.3572,-3.4693,-3.3453,-3.3821,-3.3175,-3.192,-3.2592,-3.2086,-3.0817,-3.1521,-3.1424,-3.0796,-3.0784,-3.0794,-3.0785,-3.0749,-3.0753,-3.0792,-3.074,-3.078,-3.0852,-2.9878,-2.9365,-2.9178,-2.7654,-2.6833,-2.6637,-2.6016,-2.5703,-2.5703,-2.5703,-2.5703,-2.5703,-2.5703,-2.5703,-2.5701,0.0,0.0,0.0,-2.5703,-2.5702,-2.5702,-2.5701,-2.5701,-2.572,-2.6316,0.0,-2.6883,-2.6821,-2.6773,-2.6743,-2.6081,0.0,0.0,0.0,0.0,0.0,0.0,0.0,0.0,0.0,0.0,0.0,-2.524,-2.4985,-2.4369,-2.4968,-2.5478,-2.56,-2.5663,-2.5694,-2.567,-2.5701,-2.5687,-2.5701,-2.5691,-2.5679,-2.5639,-2.5639,-2.5605,-2.5613,-2.5607,-2.5576,-2.5531,-2.5525,-2.5511,-2.5541,-2.565,-2.5747,-2.5766,-2.6366,-2.6281,-2.4999,-2.3984,-2.3049,-2.2184,-2.2088,-2.1891,-2.1323,-2.1089,-2.1128,-2.1206,-2.1734,-2.1791,-2.1247,-2.2059,-2.2749,-2.2357,-2.2533,-2.2939,-2.3345,-2.3281,-2.3339,-2.4014,-2.3565,-2.2775,-3.4599,0.0,-3.3867,-3.3298,0.0,-3.2989,-3.2596,-3.1431,-3.1884,-3.158,-3.0758,-3.08,-3.08,-3.0742,-3.0719,-3.0736,-3.0757,-3.0696,-3.0738,-3.0736,-2.9838,-2.9188,-2.8771,-2.7501,-2.6676,-2.6242,-2.5822,-2.5631,-2.5644,-2.5664,-2.5642,-2.5598,-2.5629,-2.565,-2.5646,-2.5694,-2.5699,-2.5702,-2.5703,-2.5703,-2.5703,-2.5703,-2.5703,-2.5723,0.0,0.0,0.0,0.0,0.0,0.0,0.0,0.0,0.0,0.0,0.0,-2.4257,-2.4206,-2.4199,-2.4257,-2.4218,-2.4224,-2.4319,-2.4709,-2.4967,-2.4996,-2.5427,-2.5683,-2.5642,-2.5675,-2.5703,-2.5696,-2.5707,-2.5701,-2.5691,-2.5675,-2.5639,-2.561,-2.5595,-2.5574,-2.5564,-2.5538,-2.5544,-2.551,-2.5456,-2.5468,-2.5437,-2.5468,-2.544,-2.5487,-2.5832,-2.5544,-2.3966,-2.3363,-2.2608,-2.1455,-2.1225,-2.1171,-2.07,-2.0602,-2.0602,-2.0601,-2.0975,-2.1072,-2.0648,-2.123,-2.1687,-2.176,-2.1731,-2.1907,-2.263,-2.2579,-2.2443,-2.2835,-2.2504,-2.1882,-3.3934,-3.3208,-3.3473,-3.3005,-3.2143,-3.3117,-3.2936,-3.1982,0.0,0.0,0.0,-3.0755,-3.0755,-3.0703,-3.0693,-3.0708,-3.0708,-3.0696,-3.0681,-3.0654,-2.9784,-2.9,-2.8279,-2.7301,-2.6498,-2.5808,-2.5652,-2.557,-2.5585,-2.5585,-2.5556,-2.5508,-2.5543,-2.5519,-2.5375,-2.5266,-2.5242,-2.5248,-2.5387,-2.5388,-2.525,-2.525,-2.5251,-2.5233,-2.5544,-2.6031,-2.6736,-2.691,-2.6972,-2.6912,-2.6768,-2.629,-2.5456,-2.52,-2.5022,-2.4927,-2.4725,-2.4467,-2.4109,-2.4085,-2.394,-2.3574,-2.4207,-2.493,-2.5664,-2.5699,-2.5689,-2.5705,-2.5701,-2.5696,-2.5687,-2.5678,-2.5687,-2.5687,-2.5619,-2.56,-2.5576,-2.5593,-2.5557,-2.5511,-2.5498,-2.549,-2.5492,-2.5429,-2.5393,-2.5393,-2.5404,-2.529,-2.5202,-2.5186,-2.4798,-2.3631,-2.3203,-2.2466,-2.1213,-2.0889,-2.0781,-2.0644,-2.0605,-2.0605,-2.0605,-2.0605,-2.0585,-2.0529,-2.0514,-2.0799,-2.1274,-2.0942,-2.09,-2.2198,-2.1946,-2.1449,-2.1384,-2.1313,-2.1029,-3.2991,-3.2313,-3.3745,-3.3433,-3.2136,-3.3665,-3.3432,-3.1974,-3.121,-3.0812,-3.0701,-3.0697,-3.0697,-3.0697,-3.065,-3.0645,-3.0709,-3.0642,-3.0637,0.0,-2.9749,-2.9245,-2.9057,-2.7485,-2.6663,-2.6489,-2.5843,-2.5517,-2.5513,-2.5493,-2.5503,-2.5507,-2.5507,-2.5167,-2.4466,-2.3759,-2.3407,-2.3491,-2.4191,-2.4215,-2.349,-2.347,-2.345,-2.3528,-2.4931,-2.575,-2.5886,-2.6583,-2.7015,-2.6963,-2.6278,-2.5482,-2.4628,-2.3867,-2.3124,-2.2376,-2.163,-2.1785,-2.3155,-2.3273,-2.3885,-2.5174,-2.5451,-2.5579,-2.5685,-2.5698,-2.5693,-2.5693,-2.569,-2.5707,-2.5697,-2.566,-2.5624,-2.5634,-2.5609,-2.5582,-2.5538,-2.5506,-2.5505,-2.5488,-2.5445,-2.5418,-2.541,-2.5412,-2.5395,-2.5395,-2.529,-2.5097,-2.4461,-2.4295,-2.4231,-2.398,-2.3426,-2.266,-2.1675,-2.1647,-2.1304,-2.072,-2.0604,-2.0604,-2.0604,-2.0604,-2.0566,-2.0508,-2.0516,-2.0549,-2.0658,-2.0515,-2.0568,-2.0931,-2.0764,-2.0631,-2.0603,-2.0512,-2.0395,-3.2746,-3.2189,-3.3303,-3.3114,-3.2057,-3.2792,-3.238,-3.125,-3.0831,-3.0642,-3.0658,-3.0639,-3.0644,-3.0649,-3.0571,-3.0563,-3.0591,-3.0559,-3.0549,-3.0494,-2.9196,-2.854,-2.8373,-2.6787,-2.5994,-2.5956,-2.5626,-2.5439,-2.5391,-2.5391,-2.5356,-2.5305,-2.4958,-2.4335,-2.3567,-2.315,-2.2727,-2.2313,-2.323,-2.3501,-2.3107,-2.3107,-2.3107,-2.3107,-2.3905,-2.4293,-2.4293,-2.4681,-2.4876,-2.4879,-2.4497,-2.4108,-2.3716,-2.3318,-2.291,-2.2519,-2.2147,-2.2264,-2.3047,-2.3551,-2.4342,-2.5581,-2.5655,-2.566,-2.5648,-2.5681,-2.5665,-2.5652,-2.5648,-2.5636,-2.5654,-2.562,-2.5609,-2.5604,-2.5556,-2.5531,-2.5499,-2.5464,-2.5434,-2.5437,-2.5421,-2.5385,-2.5385,-2.5387,-2.5388,-2.5369,-2.506,-2.4368,-2.3501,-2.3,-2.2736,-2.2731,-2.2468,-2.192,-2.1223,-2.1104,-2.0964,-2.062,-2.0601,-2.0601,-2.0602,-2.0604,-2.0585,-2.0529,-2.0514,-2.0483,-2.04,-2.0385,-2.0385,-2.0385,-2.0383,-2.036,-2.0313,-2.0246,-2.0208,-3.2256,-3.1771,-3.2559,-3.2512,-3.193,-3.1704,-3.1196,-3.0588,-3.0588,-3.0588,-3.0576,-3.0604,-3.0577,-3.0569,-3.052,-3.0491,-3.0481,-3.049,-3.0383,-3.0064,-2.8627,-2.7808,-2.747,-2.6063,-2.5369,-2.536,-2.536,-2.5332,-2.5274,-2.5274,-2.5147,-2.4858,-2.4168,-2.3365,-2.2611,-2.2398,-2.1977,-2.1427,-2.2092,-2.2471,-2.2487,-2.2474,-2.2497,-2.25,-2.2701,-2.2818,-2.2798,-2.2993,-2.311,-2.311,-2.3105,-2.3107,-2.3093,-2.2902,-2.281,-2.2807,-2.2616,-2.2694,-2.3095,-2.3887,-2.476,-2.5585,-2.563,-2.56,-2.56,-2.5609,-2.5636,-2.5595,-2.561,-2.56,-2.5613,-2.5595,-2.5589,-2.5564,-2.5538,-2.5471,-2.5464,-2.541,-2.5339,-2.5359,-2.536,-2.5331,-2.5312,-2.5196,-2.4965,-2.4676,-2.4215,-2.3494,-2.2639,-2.1889,-2.152,-2.1309,-2.1301,-2.1143,-2.0527,-2.0525,-2.0568,-2.0599,-2.0601,-2.0599,-2.0601,-2.0604,-2.0566,-2.0519,-2.0501,-2.0497,-2.0441,-2.0439,-2.0415,-2.0405,-2.0394,-2.0392,-2.0272,-2.0238,-2.0209,-3.0823,-3.0854,-3.1574,-3.1884,-3.1671,-3.1033,-3.0666,-3.0501,-3.0501,-3.051,-3.051,-3.052,-3.0501,-3.052,-3.049,-3.049,-3.0451,-3.049,-3.0064,-2.9261,-2.8347,-2.7489,-2.6727,-2.5754,-2.5302,-2.5302,-2.5243,-2.5233,-2.5222,-2.5184,-2.4779,-2.402,-2.3217,-2.2421,-2.1636,-2.0866,-2.0481,-2.0507,-2.0599,-2.0614,-2.0568,-2.0629,-2.0636,-2.0648,-2.1494,-2.1915,-2.1934,-2.2675,-2.3082,-2.3111,-2.3056,-2.3075,-2.2994,-2.2357,-2.1932,-2.189,-2.121,-2.1377,-2.2851,-2.3821,-2.4646,-2.5496,-2.5587,-2.5582,-2.5576,-2.5493,-2.5473,-2.555,-2.5582,-2.5595,-2.5601,-2.5551,-2.5498,-2.5488,-2.5437,-2.5401,-2.5395,-2.5293,-2.5214,-2.5233,-2.5163,-2.5113,-2.502,-2.4572,-2.3918,-2.3263,-2.3062,-2.2601,-2.1784,-2.1515,-2.1131,-2.0616,-2.0463,-2.0555,-2.046,-2.0538,-2.0564,-2.0591,-2.0593,-2.0593,-2.0594,-2.0597,-2.0581,-2.0527,-2.0503,-2.0488,-2.0489,-2.0497,-2.0469,-2.0415,-2.0374,-2.0354,-2.0254,-2.0195,-2.0197,-3.0492,-3.052,-3.0395,-3.0318,-3.0269,-3.0443,-3.053,-3.05,-3.05,-3.049,-3.0479,-3.0449,-3.046,-3.049,-3.0449,-3.0188,-2.9745,-2.9685,-2.9201,-2.8332,-2.7516,-2.6899,-2.6483,-2.5646,-2.5252,-2.5241,-2.5222,-2.5201,-2.5113,-2.4689,-2.376,-2.2526,-2.2077,-2.1512,-2.0708,-2.0324,-2.0167,-2.0204,-2.0215,-2.0219,-2.0208,-2.0355,-2.0437,-2.0456,-2.0814,-2.1045,-2.1049,-2.1399,-2.1549,-2.1554,-2.1574,-2.1566,-2.1558,-2.1227,-2.1033,-2.0994,-2.0722,-2.1005,-2.2163,-2.3047,-2.3881,-2.4723,-2.5226,-2.5441,-2.5318,-2.5264,-2.5226,-2.5245,-2.5359,-2.5412,-2.5321,-2.5293,-2.5245,-2.5214,-2.5182,-2.5171,-2.516,-2.5084,-2.5018,-2.5037,-2.5012,-2.4796,-2.435,-2.3745,-2.2997,-2.2237,-2.2036,-2.1673,-2.0913,-2.0732,-2.0598,-2.0307,-2.0282,-2.032,-2.038,-2.0415,-2.0456,-2.0471,-2.0483,-2.0486,-2.0545,-2.0554,-2.0542,-2.0508,-2.0505,-2.0515,-2.0511,-2.0467,-2.0433,-2.0386,-2.0346,-2.0306,-2.0214,-2.0195,-2.0178,-3.0449,-3.0414,-2.9854,-2.9448,-2.9283,-3.0132,-3.0499,-3.0469,-3.0469,-3.0342,-3.012,-3.0059,-2.9943,-2.98,-2.9963,-2.9605,-2.8893,-2.8764,-2.8261,-2.7443,-2.6839,-2.6433,-2.6105,-2.5518,-2.5212,-2.5163,-2.4941,-2.472,-2.4506,-2.4159,-2.304,-2.1626,-2.1378,-2.0929,-2.0174,-2.005,-2.0079,-2.0107,-2.0108,-2.0117,-2.0135,-2.0321,-2.0385,-2.033,-2.0381,-2.0409,-2.0418,-2.0422,-2.0433,-2.043,-2.041,-2.043,-2.0439,-2.0444,-2.0468,-2.0497,-2.0473,-2.0857,-2.1648,-2.2491,-2.3308,-2.4076,-2.4866,-2.5284,-2.5113,-2.5041,-2.5,-2.4975,-2.5068,-2.5103,-2.5149,-2.5103,-2.5049,-2.5043,-2.5,-2.4975,-2.4981,-2.491,-2.4855,-2.4836,-2.4861,-2.4452,-2.3572,-2.2792,-2.1981,-2.1254,-2.1025,-2.091,-2.0326,-2.0173,-2.0173,-2.0199,-2.0238,-2.0292,-2.0327,-2.0359,-2.0355,-2.0409,-2.0445,-2.0458,-2.0492,-2.0508,-2.052,-2.0545,-2.0526,-2.0519,-2.0527,-2.05,-2.0376,-2.0366,-2.0302,-2.025,-2.0241,-2.0088,-1.9807,-3.049,-3.046,-3.0441,-2.991,-2.9264,-3.0083,-3.0419,-3.0279,-3.029,-2.9902,-2.9171,-2.914,-2.8699,-2.803,-2.8706,-2.8672,-2.7934,-2.7862,-2.7378,-2.6592,-2.6469,-2.6047,-2.5288,-2.5209,-2.5187,-2.5107,-2.448,-2.3667,-2.2895,-2.3449,-2.301,-2.1337,-2.1223,-2.0831,-2.0106,-2.0011,-2.0041,-2.0097,-2.0097,-2.0097,-2.0115,-2.0164,-2.0188,-2.0145,-2.0192,-2.0224,-2.0218,-2.0211,-2.0211,-2.0211,-2.0237,-2.0257,-2.0307,-2.0313,-2.0374,-2.0464,-2.0429,-2.077,-2.1585,-2.2409,-2.316,-2.3842,-2.4656,-2.5149,-2.4968,-2.4877,-2.4823,-2.479,-2.4756,-2.4861,-2.5091,-2.5031,-2.4987,-2.503,-2.4968,-2.4891,-2.4883,-2.4779,-2.4704,-2.4685,-2.4554,-2.3879,-2.2603,-2.1706,-2.0952,-2.0308,-1.9979,-1.9963,-2.0068,-2.0031,-2.0079,-2.0164,-2.0199,-2.0241,-2.0354,-2.034,-2.0386,-2.0434,-2.0441,-2.048,-2.0486,-2.0516,-2.049,-2.0462,-2.0215,-2.0213,-2.0462,-2.0497,-2.0366,-2.0266,-2.0153,-2.0119,-1.9926,-1.9394,-1.9028,-2.9775,-2.9402,-2.9904,-2.9603,-2.8836,-2.915,-2.9251,-2.9127,-2.8627,-2.8256,-2.7994,-2.7956,-2.7471,-2.6678,-2.6968,-2.7077,-2.6968,-2.6968,-2.6469,-2.5614,-2.5532,-2.5302,-2.4926,-2.4879,-2.4879,-2.4842,-2.4544,-2.3647,-2.2331,-2.2123,-2.1437,-2.0547,-2.0342,-2.0205,-2.0028,-2.0001,-2.0002,-2.0041,-2.0031,-2.003,-2.004,-2.0069,-2.0059,-2.004,-2.0129,-2.0195,-2.0197,-2.0197,-2.0203,-2.02,-2.0236,-2.0288,-2.0288,-2.0301,-2.0287,-2.025,-2.0227,-2.0337,-2.0715,-2.1876,-2.2707,-2.292,-2.4182,-2.4877,-2.4779,-2.4704,-2.4657,-2.461,-2.4596,-2.4673,-2.4808,-2.4808,-2.4716,-2.4716,-2.4689,-2.4639,-2.4645,-2.4599,-2.4549,-2.4383,-2.3724,-2.2585,-2.1722,-2.0759,-2.021,-2.0012,-1.9896,-1.9909,-2.0011,-2.005,-2.0069,-2.0117,-2.0126,-2.0171,-2.0269,-2.0255,-2.0289,-2.0386,-2.0422,-2.0441,-2.0451,-1.977,-1.9573,-1.9936,-1.9784,-1.9371,-1.9474,-1.9623,-1.9643,-1.9993,-1.9896,-1.9469,-1.9383,-1.8641,-1.8144,-2.8963,-2.8427,-2.9112,-2.8928,-2.8161,-2.8423,-2.8401,-2.8083,-2.7535,-2.7157,-2.6934,-2.688,-2.6408,-2.5665,-2.5574,-2.5697,-2.5901,-2.5914,-2.5545,-2.4931,-2.4911,-2.4818,-2.4704,-2.4663,-2.4645,-2.4586,-2.4357,-2.3367,-2.1821,-2.1153,-2.0493,-1.9795,-1.9744,-1.9762,-1.9828,-1.9832,-1.9843,-1.9855,-1.9873,-1.9904,-1.9904,-1.9952,-1.9982,-2.0015,-2.0098,-2.0139,-2.0118,-2.0118,-2.0139,-2.0152,-2.0167,-2.0175,-2.0169,-2.0205,-2.0161,-2.0079,-2.005,-2.0031,-2.0172,-2.1532,-2.2424,-2.2375,-2.379,-2.4697,-2.4582,-2.4566,-2.4532,-2.4517,-2.45,-2.4551,-2.4582,-2.4566,-2.4568,-2.4551,-2.4517,-2.4482,-2.4465,-2.4447,-2.4281,-2.3838,-2.2887,-2.1819,-2.0923,-2.0164,-1.9813,-1.98,-1.9757,-1.9774,-1.9877,-1.9931,-1.9991,-2.0021,-2.0079,-2.0134,-2.0192,-2.0212,-2.0243,-2.0324,-2.0395,-2.0402,-1.9942,-1.9202,-1.8851,-1.9234,-1.9121,-1.8602,-1.8468,-1.8653,-1.8968,-1.9391,-1.9081,-1.8566,-1.8233,-1.7745,-1.729,-2.8175,-2.7635,-2.8199,-2.815,-2.7533,-2.8058,-2.7975,-2.7299,-2.7129,-2.6572,-2.5979,-2.5954,-2.5496,-2.4879,-2.4776,-2.4748,-2.4801,-2.482,-2.4782,-2.4673,-2.4682,-2.4647,-2.4559,-2.4535,-2.4535,-2.44,-2.3665,-2.2454,-2.1034,-2.0769,-2.0318,-1.9713,-1.9582,-1.9559,-1.9532,-1.954,-1.9526,-1.9553,-1.965,-1.9688,-1.9732,-1.9823,-1.99,-1.9971,-2.0004,-1.9996,-2.0004,-2.0015,-1.9996,-1.9974,-1.9952,-1.99,-1.9928,-1.9981,-2.0001,-1.9991,-1.9991,-1.9962,-2.0072,-2.1445,-2.2325,-2.2436,-2.3735,-2.4629,-2.4532,-2.4517,-2.45,-2.45,-2.4482,-2.4482,-2.4393,-2.4375,-2.4446,-2.4647,-2.4498,-2.4412,-2.4375,-2.4339,-2.4007,-2.3286,-2.2417,-2.1623,-2.0794,-1.9963,-1.9479,-1.9471,-1.9438,-1.9462,-1.9606,-1.9738,-1.9767,-1.9888,-2.003,-2.0116,-2.015,-2.0188,-2.0229,-2.027,-2.0346,-2.0322,-1.9464,-1.8693,-1.8189,-1.8357,-1.8217,-1.7762,-1.7649,-1.7829,-1.7932,-1.8159,-1.7818,-1.7668,-1.7321,-1.6933,-1.6428,-2.8834,-2.8648,-2.889,-2.8477,-2.7676,-2.7399,-2.6786,-2.5968,-2.5449,-2.5004,-2.4782,-2.4745,-2.4598,-2.4394,-2.4303,-2.4303,-2.4284,-2.4248,-2.4265,-2.4388,-2.4424,-2.4337,-2.4229,-2.419,-2.417,-2.3915,-2.2739,-2.1823,-2.1183,-2.0211,-1.9512,-1.9427,-1.9383,-1.9423,-1.9481,-1.9504,-1.9499,-1.9499,-1.9545,-1.9599,-1.9695,-1.9695,-1.9757,-1.9908,-1.9938,-1.9926,-1.9866,-1.9896,-1.9915,-1.9849,-1.987,-1.9896,-1.9907,-1.9918,-1.9892,-1.98,-1.9775,-1.977,-1.9894,-2.1148,-2.2073,-2.2353,-2.3617,-2.442,-2.4517,-2.4482,-2.4446,-2.4411,-2.443,-2.4376,-2.419,-2.4133,-2.4191,-2.441,-2.4375,-2.4321,-2.4284,-2.4266,-2.3861,-2.3141,-2.2331,-2.1506,-2.0662,-1.9801,-1.9372,-1.9409,-1.9405,-1.9462,-1.9612,-1.9682,-1.9832,-1.9899,-2.003,-2.0069,-2.005,-1.9886,-1.9731,-1.9941,-2.0125,-1.9735,-1.8896,-1.7918,-1.7489,-1.7305,-1.7171,-1.7051,-1.6958,-1.6954,-1.7041,-1.7189,-1.7137,-1.6915,-1.6616,-1.5836,-1.481,-2.7809,-2.7809,-2.7788,-2.749,-2.6951,-2.6418,-2.5717,-2.4942,-2.439,-2.417,-2.417,-2.4151,-2.4113,-2.4132,-2.4074,-2.4074,-2.4036,-2.3978,-2.4019,-2.4136,-2.4174,-2.4099,-2.3976,-2.3933,-2.3933,-2.3717,-2.2587,-2.1805,-2.1442,-2.0209,-1.9446,-1.9273,-1.9182,-1.9164,-1.9227,-1.9289,-1.9301,-1.9237,-1.9346,-1.9467,-1.9536,-1.9532,-1.9585,-1.9732,-1.9713,-1.9688,-1.9617,-1.9662,-1.9719,-1.9776,-1.9818,-1.9823,-1.98,-1.9794,-1.9745,-1.9673,-1.9606,-1.9564,-1.9656,-2.0662,-2.1572,-2.1996,-2.3102,-2.3971,-2.4174,-2.4247,-2.421,-2.4115,-2.4001,-2.3864,-2.3735,-2.3592,-2.3617,-2.3684,-2.3883,-2.3961,-2.3979,-2.3941,-2.3356,-2.2517,-2.1807,-2.1061,-2.0079,-1.9534,-1.9164,-1.924,-1.9237,-1.9298,-1.9429,-1.9548,-1.9638,-1.9743,-1.9832,-1.9877,-1.9912,-1.9649,-1.9275,-1.9511,-1.9831,-1.908,-1.8231,-1.6908,-1.609,-1.6282,-1.6244,-1.6133,-1.6039,-1.6025,-1.6099,-1.6247,-1.6417,-1.5163,-1.4289,-1.304,-1.179,-2.5551,-2.5515,-2.5493,-2.5562,-2.545,-2.5397,-2.4955,-2.4203,-2.4074,-2.4016,-2.3996,-2.3917,-2.3917,-2.3937,-2.3858,-2.3876,-2.3917,-2.3816,-2.3774,-2.3816,-2.3878,-2.3837,-2.3774,-2.3771,-2.3681,-2.3425,-2.2826,-2.2086,-2.1147,-2.0407,-1.9848,-1.9073,-1.8949,-1.8896,-1.8807,-1.8896,-1.8878,-1.8807,-1.9051,-1.9198,-1.9209,-1.9271,-1.9346,-1.9405,-1.9361,-1.9316,-1.9256,-1.9256,-1.9409,-1.9681,-1.9673,-1.9633,-1.9597,-1.9569,-1.9569,-1.9555,-1.945,-1.939,-1.9491,-2.0087,-2.0787,-2.148,-2.2298,-2.3044,-2.3593,-2.3717,-2.3696,-2.357,-2.3383,-2.3223,-2.3147,-2.2986,-2.2828,-2.271,-2.3136,-2.3397,-2.3374,-2.3392,-2.2847,-2.1718,-2.1087,-2.0573,-1.9272,-1.895,-1.8843,-1.8807,-1.8843,-1.8965,-1.903,-1.9185,-1.9276,-1.9421,-1.9574,-1.9657,-1.9687,-1.9357,-1.9002,-1.8994,-1.9181,-1.8454,-1.7939,-1.6797,-1.6015,-1.6048,-1.5929,-1.5652,-1.5676,-1.6046,-1.6087,-1.6298,-1.5361,-1.3337,-1.1991,-1.109,-0.9089,-2.5786,-2.5804,-2.578,-2.5373,-2.4828,-2.4946,-2.4414,-2.3576,-2.3671,-2.361,-2.3459,-2.3414,-2.3437,-2.3414,-2.3369,-2.3346,-2.3346,-2.3335,-2.3289,-2.3307,-2.333,-2.333,-2.3353,-2.3473,-2.3129,-2.2495,-2.2207,-2.1397,-2.0088,-1.9879,-1.9343,-1.8617,-1.8601,-1.8582,-1.8563,-1.8563,-1.8544,-1.8467,-1.8508,-1.8606,-1.8645,-1.8681,-1.8735,-1.8839,-1.8839,-1.8805,-1.8771,-1.8735,-1.8927,-1.9301,-1.9338,-1.9341,-1.9289,-1.9295,-1.928,-1.928,-1.9248,-1.9132,-1.9141,-1.965,-2.0352,-2.0906,-2.1544,-2.2416,-2.307,-2.3136,-2.3088,-2.2999,-2.2926,-2.2778,-2.2626,-2.2495,-2.2289,-2.2012,-2.2365,-2.2775,-2.2895,-2.3041,-2.2753,-2.1761,-2.1242,-2.0374,-1.9465,-1.8868,-1.8678,-1.8586,-1.8642,-1.8734,-1.8753,-1.8806,-1.889,-1.9139,-1.9291,-1.9397,-1.9369,-1.9023,-1.8749,-1.8574,-1.8359,-1.7818,-1.7719,-1.7581,-1.7321,-1.7381,-1.7027,-1.6734,-1.6966,-1.7286,-1.7048,-1.6615,-1.547,-1.3985,-1.1681,-1.0158,-0.7299,-2.4831,-2.4831,-2.4825,-2.4492,-2.4017,-2.4152,-2.3802,-2.3307,-2.3323,-2.3305,-2.3183,-2.3177,-2.3153,-2.3153,-2.3129,-2.3105,-2.308,-2.289,-2.2797,-2.272,-2.2339,-2.2467,-2.2832,-2.2971,-2.2447,-2.1867,-2.1511,-2.0727,-1.9763,-1.9528,-1.9125,-1.8528,-1.8385,-1.8328,-1.8243,-1.8304,-1.8246,-1.8225,-1.8249,-1.8333,-1.8378,-1.8336,-1.8375,-1.842,-1.842,-1.8344,-1.8226,-1.8087,-1.827,-1.8753,-1.8893,-1.8912,-1.891,-1.8911,-1.8894,-1.8912,-1.8824,-1.8699,-1.8606,-1.89,-1.9245,-1.9802,-2.0459,-2.1053,-2.1634,-2.1966,-2.2116,-2.1995,-2.1939,-2.1819,-2.1678,-2.1546,-2.1303,-2.1038,-2.116,-2.1558,-2.2078,-2.2099,-2.1755,-2.1091,-2.042,-1.9787,-1.8788,-1.8416,-1.8263,-1.8153,-1.8132,-1.8255,-1.8358,-1.8401,-1.8388,-1.8466,-1.8539,-1.8555,-1.8708,-1.8505,-1.8235,-1.8092,-1.8134,-1.7494,-1.7025,-1.7487,-1.8024,-1.7961,-1.7905,-1.7713,-1.7413,-1.7363,-1.7455,-1.6835,-1.5913,-1.3015,-0.9755,-0.677,-0.4172,-2.33,-2.3294,-2.323,-2.3206,-2.3218,-2.3183,-2.3164,-2.3087,-2.3063,-2.3038,-2.2965,-2.2975,-2.2849,-2.2968,-2.2686,-2.2832,-2.2781,-2.2344,-2.2153,-2.1851,-2.1424,-2.1375,-2.1945,-2.1732,-2.1344,-2.1004,-2.0686,-1.998,-1.9228,-1.9178,-1.8922,-1.8216,-1.8027,-1.798,-1.78,-1.791,-1.7932,-1.7783,-1.7832,-1.7919,-1.7924,-1.7898,-1.7859,-1.7859,-1.7842,-1.7777,-1.7646,-1.7482,-1.7595,-1.8238,-1.8325,-1.8399,-1.8434,-1.8487,-1.8467,-1.8531,-1.8454,-1.8379,-1.8113,-1.7924,-1.7959,-1.8693,-1.9012,-1.9374,-2.0108,-2.0632,-2.083,-2.0847,-2.0569,-2.0423,-2.0273,-2.0081,-1.9823,-1.9612,-1.9296,-1.9682,-2.051,-2.0718,-2.0285,-1.9571,-1.8934,-1.8335,-1.7657,-1.7392,-1.7358,-1.7019,-1.7107,-1.7153,-1.7127,-1.7037,-1.7182,-1.7444,-1.7475,-1.7539,-1.7748,-1.7951,-1.7717,-1.7557,-1.7895,-1.7468,-1.6129,-1.6511,-1.7754,-1.8345,-1.8721,-1.7836,-1.6346,-1.6552,-1.6448,-1.4245,-1.1417,-0.8083,-0.4732,-0.1969,0.067,-2.2677,-2.2554,-2.2642,-2.2642,-2.2642,-2.2782,-2.273,-2.2508,-2.2694,-2.2607,-2.2436,-2.2198,-2.2096,-2.2084,-2.1753,-2.1532,-2.1569,-2.1341,-2.1043,-2.0561,-2.0446,-2.0009,-2.0036,-1.9903,-1.9612,-1.9242,-1.9343,-1.8713,-1.7872,-1.7946,-1.782,-1.7199,-1.7126,-1.7044,-1.7076,-1.7085,-1.701,-1.696,-1.6986,-1.7035,-1.7019,-1.6994,-1.6986,-1.6969,-1.6977,-1.7071,-1.7196,-1.7124,-1.7036,-1.7058,-1.7338,-1.7749,-1.8141,-1.8193,-1.8152,-1.8203,-1.8517,-1.8461,-1.7896,-1.7636,-1.7796,-1.8079,-1.8051,-1.8423,-1.9341,-1.9349,-1.9542,-1.9703,-1.951,-1.9104,-1.8786,-1.8446,-1.811,-1.7724,-1.7208,-1.695,-1.7426,-1.84,-1.8476,-1.7793,-1.7471,-1.7109,-1.5877,-1.5902,-1.5887,-1.5823,-1.5817,-1.5853,-1.5695,-1.5509,-1.5568,-1.5713,-1.5034,-1.4845,-1.4944,-1.4961,-1.463,-1.4465,-1.4995,-1.4869,-1.3604,-1.3889,-1.4516,-1.6941,-1.979,-1.7775,-1.3453,-1.3124,-1.2489,-0.9625,-0.6714,-0.343,-0.0285,0.2616,0.5068,-2.2101,-2.1928,-2.1957,-2.1957,-2.1945,-2.2073,-2.1998,-2.1869,-2.1986,-2.1957,-2.1827,-2.1631,-2.1524,-2.1413,-2.0904,-2.0634,-2.0476,-2.0018,-1.9531,-1.8982,-1.8594,-1.8129,-1.7774,-1.7637,-1.7424,-1.772,-1.772,-1.7268,-1.694,-1.6795,-1.6752,-1.647,-1.6316,-1.6369,-1.6454,-1.6401,-1.6454,-1.6427,-1.6389,-1.6309,-1.6184,-1.6114,-1.6157,-1.6151,-1.6251,-1.6427,-1.6548,-1.6654,-1.6579,-1.6506,-1.6636,-1.7039,-1.761,-1.7675,-1.7585,-1.7633,-1.779,-1.7699,-1.7135,-1.6773,-1.6578,-1.665,-1.6739,-1.7035,-1.7547,-1.7721,-1.8032,-1.806,-1.7863,-1.7612,-1.7348,-1.7008,-1.659,-1.6086,-1.5269,-1.4768,-1.4727,-1.5861,-1.6734,-1.5995,-1.5739,-1.5312,-1.4783,-1.4223,-1.4032,-1.3823,-1.3765,-1.3772,-1.3471,-1.3307,-1.3382,-1.3205,-1.2297,-1.1858,-1.1875,-1.156,-1.0765,-1.0341,-1.0057,-0.935,-0.8144,-0.9171,-1.0515,-1.2288,-1.3359,-1.1618,-0.8233,-0.8338,-0.7577,-0.5164,-0.2184,0.106,0.411,0.6971,0.8952,-2.1631,-2.1415,-2.1417,-2.1386,-2.1386,-2.1339,-2.137,-2.1323,-2.11,-2.1016,-2.0924,-2.0877,-2.0368,-2.04,-1.9798,-1.9607,-1.9295,-1.8749,-1.8049,-1.7381,-1.6865,-1.6383,-1.5997,-1.5632,-1.5742,-1.6923,-1.6471,-1.6145,-1.6102,-1.5945,-1.5811,-1.589,-1.5734,-1.5679,-1.5836,-1.5892,-1.5792,-1.5736,-1.5692,-1.5563,-1.5345,-1.5286,-1.536,-1.5661,-1.5547,-1.5759,-1.5853,-1.5927,-1.5945,-1.5958,-1.5854,-1.6149,-1.6528,-1.6933,-1.6821,-1.6807,-1.6809,-1.6519,-1.6004,-1.5552,-1.5183,-1.4639,-1.5065,-1.5422,-1.549,-1.5889,-1.6137,-1.596,-1.5714,-1.5407,-1.558,-1.4622,-1.4307,-1.3865,-1.2981,-1.2161,-1.1842,-1.2726,-1.3023,-1.3984,-1.3167,-1.2463,-1.2292,-1.1903,-1.1869,-1.1755,-1.164,-1.1423,-1.0998,-1.0527,-1.0221,-0.9642,-0.8504,-0.7308,-0.7206,-0.6991,-0.6342,-0.5937,-0.5359,-0.3828,-0.2614,-0.27,-0.3491,-0.4147,-0.4353,-0.335,-0.2506,-0.1551,-0.0672,0.0371,0.3133,0.7227,0.9705,1.1521,1.2711,-2.1308,-2.1103,-2.1276,-2.1308,-2.1308,-2.1291,-2.1197,-2.1116,-2.0193,-1.9877,-1.9688,-1.8732,-1.8387,-1.8246,-1.7744,-1.7393,-1.7328,-1.7009,-1.664,-1.6014,-1.5595,-1.5268,-1.4584,-1.43,-1.4342,-1.4547,-1.4758,-1.4972,-1.5016,-1.4937,-1.4909,-1.4998,-1.4923,-1.4937,-1.4968,-1.4982,-1.4819,-1.4654,-1.4592,-1.4408,-1.4206,-1.4141,-1.44,-1.4862,-1.4663,-1.4708,-1.5015,-1.4918,-1.466,-1.4427,-1.4424,-1.4494,-1.4654,-1.5482,-1.5789,-1.5763,-1.5608,-1.5287,-1.4699,-1.4439,-1.4307,-1.4098,-1.3705,-1.3748,-1.3939,-1.399,-1.3906,-1.3595,-1.2926,-1.231,-1.2581,-1.1368,-1.0258,-0.9589,-0.8819,-0.7752,-0.7529,-0.7585,-0.8349,-0.9695,-0.9535,-0.9422,-0.9225,-0.8894,-0.8395,-0.8114,-0.7895,-0.7548,-0.7107,-0.6435,-0.5836,-0.5145,-0.4306,-0.3099,-0.2098,-0.1886,-0.1496,-0.1185,-0.0326,0.1747,0.2976,0.4113,0.3989,0.3249,0.2304,0.201,0.3158,0.4846,0.6855,0.8382,1.1076,1.3644,1.435,1.4993,1.5549,-2.0714,-2.0413,-2.0499,-2.0431,-2.0283,-1.9958,-1.977,-1.9564,-1.8786,-1.8368,-1.8082,-1.7548,-1.7265,-1.7125,-1.6503,-1.5913,-1.548,-1.5336,-1.509,-1.4692,-1.448,-1.4233,-1.365,-1.347,-1.3153,-1.3085,-1.3323,-1.3835,-1.4109,-1.3921,-1.3954,-1.4019,-1.3921,-1.3888,-1.3973,-1.3835,-1.3677,-1.3498,-1.3318,-1.3082,-1.2787,-1.2686,-1.2962,-1.3138,-1.3161,-1.3162,-1.327,-1.3518,-1.3156,-1.2782,-1.2599,-1.2285,-1.2148,-1.2307,-1.3116,-1.3764,-1.3809,-1.3357,-1.2747,-1.2346,-1.2047,-1.1535,-1.1362,-1.1257,-1.1358,-1.1226,-1.1183,-1.0645,-0.9822,-0.8992,-0.9058,-0.7972,-0.7306,-0.6597,-0.5544,-0.4586,-0.4002,-0.328,-0.3922,-0.5183,-0.5626,-0.5797,-0.596,-0.5487,-0.4842,-0.4479,-0.4205,-0.3716,-0.3193,-0.2602,-0.1905,-0.0635,0.0297,0.1776,0.2799,0.3146,0.3556,0.3847,0.4447,0.6506,0.8362,0.9402,1.0342,1.05,0.9452,0.7582,0.9462,1.136,1.3842,1.5588,1.6065,1.6634,1.7568,1.8306,1.8554,-1.9901,-1.9521,-1.9371,-1.92,-1.8891,-1.8414,-1.808,-1.7745,-1.7078,-1.6655,-1.6505,-1.6213,-1.6061,-1.5923,-1.5345,-1.458,-1.3789,-1.3828,-1.3742,-1.3509,-1.3251,-1.3067,-1.2812,-1.2614,-1.2175,-1.1707,-1.178,-1.2425,-1.3153,-1.3054,-1.2963,-1.2891,-1.2742,-1.2625,-1.2669,-1.2449,-1.2401,-1.2165,-1.2048,-1.1733,-1.1397,-1.1075,-1.0981,-1.1185,-1.1185,-1.1104,-1.123,-1.1273,-1.109,-1.0691,-1.026,-0.9818,-0.9011,-0.8616,-0.9334,-1.0714,-1.0949,-1.0671,-1.027,-0.994,-0.9614,-0.899,-0.8989,-0.8724,-0.8449,-0.8448,-0.823,-0.7419,-0.6433,-0.5846,-0.5762,-0.5001,-0.4265,-0.3479,-0.2527,-0.1651,-0.0668,0.0101,0.0757,-0.0293,-0.1463,-0.2042,-0.2111,-0.1823,-0.1103,-0.0686,-0.0407,0.0045,0.0589,0.1023,0.1905,0.3578,0.4981,0.6665,0.7626,0.8126,0.8595,0.9122,0.9545,1.0853,1.283,1.4593,1.4857,1.435,1.448,1.3211,1.5524,1.6495,1.6947,1.7614,1.8614,1.9236,1.9473,1.9999,2.0427,-1.8713,-1.8584,-1.8026,-1.7674,-1.752,-1.7179,-1.697,-1.6613,-1.5488,-1.4932,-1.4822,-1.395,-1.3667,-1.3676,-1.3638,-1.3279,-1.3057,-1.2928,-1.2648,-1.2248,-1.2092,-1.1766,-1.1308,-1.1169,-1.0874,-1.0474,-1.0436,-1.1052,-1.1648,-1.1997,-1.2033,-1.1771,-1.1687,-1.1567,-1.1042,-1.094,-1.0774,-1.0488,-1.0647,-1.0576,-1.0136,-0.9634,-0.9495,-0.951,-0.926,-0.8953,-0.8934,-0.8799,-0.843,-0.7999,-0.754,-0.7039,-0.6473,-0.593,-0.5649,-0.6244,-0.7135,-0.831,-0.8031,-0.768,-0.725,-0.6643,-0.6555,-0.647,-0.5936,-0.5323,-0.4919,-0.4782,-0.3503,-0.2654,-0.2291,-0.1172,-0.0221,0.0601,0.1358,0.2181,0.2953,0.2921,0.3666,0.4199,0.2917,0.2246,0.1891,0.2283,0.2677,0.3051,0.3426,0.3815,0.4408,0.4918,0.5545,0.7148,0.8363,0.995,1.0732,1.1449,1.2088,1.3178,1.376,1.4277,1.5312,1.6299,1.6333,1.6072,1.6489,1.6881,1.7377,1.796,1.8688,1.9219,1.9707,2.0239,2.0747,2.1383,2.1953,-1.662,-1.7234,-1.6984,-1.6593,-1.6148,-1.5657,-1.5353,-1.5008,-1.4219,-1.3614,-1.326,-1.2853,-1.2401,-1.2211,-1.2139,-1.1959,-1.1799,-1.1799,-1.1483,-1.1052,-1.0864,-1.0636,-1.0292,-1.0108,-0.9817,-0.9187,-0.9081,-0.8975,-0.9635,-1.0253,-1.0586,-1.0462,-1.0386,-1.0271,-0.9587,-0.9346,-0.9079,-0.8806,-0.8648,-0.8521,-0.8307,-0.7752,-0.7308,-0.7514,-0.6737,-0.6307,-0.6093,-0.5864,-0.5351,-0.484,-0.4337,-0.3917,-0.3456,-0.3035,-0.2799,-0.2837,-0.3458,-0.4328,-0.4898,-0.4833,-0.45,-0.3978,-0.3644,-0.3291,-0.2731,-0.1922,-0.126,-0.0946,0.0166,0.0885,0.1276,0.2428,0.3078,0.3893,0.4548,0.4989,0.5491,0.5878,0.6202,0.6823,0.7295,0.6437,0.5788,0.6042,0.6105,0.6103,0.6428,0.6827,0.7868,0.899,0.967,1.0579,1.1643,1.2752,1.3167,1.366,1.3873,1.4724,1.5356,1.5872,1.6415,1.6995,1.6973,1.6994,1.7022,1.761,1.8492,1.8832,1.9022,1.976,2.0563,2.0979,2.1415,2.2115,2.2799,-1.4492,-1.5203,-1.5527,-1.5327,-1.4734,-1.4118,-1.3713,-1.3483,-1.2866,-1.2366,-1.2043,-1.1909,-1.1557,-1.1148,-1.1035,-1.0922,-1.058,-1.0601,-1.0225,-0.9895,-0.9642,-0.9406,-0.9001,-0.8833,-0.8431,-0.7628,-0.7687,-0.7482,-0.7376,-0.7821,-0.8456,-0.8842,-0.872,-0.8536,-0.8253,-0.7734,-0.7256,-0.703,-0.6481,-0.629,-0.6202,-0.5521,-0.5169,-0.4861,-0.4257,-0.3514,-0.3115,-0.3054,-0.26,-0.1843,-0.1588,-0.128,-0.0757,-0.0607,-0.0501,-0.045,-0.0717,-0.086,-0.1588,-0.1835,-0.1604,-0.1117,-0.0449,-0.0103,0.0634,0.1635,0.2313,0.2369,0.3082,0.3957,0.4729,0.5108,0.5433,0.5972,0.6684,0.7068,0.7499,0.7864,0.8384,0.8958,0.9475,1.003,0.9615,0.9768,0.9672,0.9296,0.9464,0.9784,1.0724,1.1891,1.2463,1.2882,1.357,1.4327,1.4643,1.5149,1.5576,1.5952,1.6595,1.698,1.721,1.7433,1.7564,1.7557,1.7584,1.822,1.9021,1.9123,1.9237,1.9843,2.0481,2.1377,2.2008,2.2683,2.3329,-1.2461,-1.2291,-1.3213,-1.3505,-1.3276,-1.2627,-1.2245,-1.2036,-1.1378,-1.1057,-1.0933,-1.0905,-1.0619,-1.034,-1.0089,-0.9934,-0.9661,-0.97,-0.9081,-0.8601,-0.8359,-0.7855,-0.7403,-0.7029,-0.6721,-0.5969,-0.6038,-0.5839,-0.5385,-0.5358,-0.6143,-0.6793,-0.6796,-0.6445,-0.6124,-0.5788,-0.526,-0.5006,-0.4469,-0.4113,-0.3906,-0.3414,-0.2963,-0.2503,-0.2007,-0.1506,-0.1048,-0.0883,-0.0485,0.0444,0.0523,0.0752,0.1127,0.1217,0.1288,0.1512,0.1624,0.1642,0.1608,0.062,0.0392,0.1236,0.2081,0.2651,0.3056,0.4037,0.4664,0.5101,0.5537,0.603,0.6479,0.6763,0.7441,0.787,0.8502,0.8822,0.9297,0.9872,1.0399,1.1032,1.1375,1.1598,1.2073,1.1911,1.1706,1.135,1.1486,1.1757,1.2377,1.3403,1.4065,1.4575,1.507,1.5454,1.5543,1.5888,1.6139,1.6441,1.6934,1.724,1.7463,1.7718,1.7871,1.8075,1.8115,1.8841,1.9301,1.9179,1.9238,1.9733,2.0441,2.1444,2.2192,2.2746,2.3324,-1.152,-1.1468,-1.145,-1.167,-1.1995,-1.1265,-1.0929,-1.0788,-1.034,-0.9953,-0.9737,-0.9421,-0.9222,-0.9013,-0.8763,-0.8594,-0.8383,-0.8074,-0.7486,-0.7024,-0.6661,-0.6144,-0.5626,-0.5276,-0.4955,-0.4406,-0.4447,-0.4268,-0.3659,-0.3462,-0.3382,-0.3908,-0.4599,-0.4919,-0.4591,-0.3906,-0.3248,-0.2738,-0.2445,-0.218,-0.1693,-0.1263,-0.0717,-0.0107,0.0368,0.088,0.1336,0.1296,0.1713,0.2064,0.2193,0.243,0.2649,0.2656,0.2895,0.3275,0.3387,0.3834,0.4154,0.2971,0.2179,0.279,0.3851,0.47,0.5031,0.5833,0.6684,0.7175,0.7653,0.8029,0.8802,0.929,0.9769,0.9997,1.0159,1.0466,1.0728,1.12,1.1501,1.1692,1.2178,1.2599,1.313,1.3653,1.3464,1.329,1.3511,1.3721,1.405,1.4468,1.4994,1.5277,1.5614,1.5836,1.5869,1.6207,1.6637,1.6934,1.7227,1.7488,1.7706,1.7774,1.7973,1.8226,1.8461,1.876,1.8936,1.8945,1.9278,1.9951,2.0735,2.1684,2.2298,2.2733,2.3182,-1.0466,-1.0389,-0.9748,-1.005,-1.0809,-1.0186,-0.9826,-0.9748,-0.9394,-0.9004,-0.8618,-0.8267,-0.7931,-0.7675,-0.7328,-0.6981,-0.6716,-0.6325,-0.5776,-0.5356,-0.5048,-0.4574,-0.4103,-0.3778,-0.3601,-0.2993,-0.2917,-0.2751,-0.2205,-0.1853,-0.1798,-0.1975,-0.2224,-0.2651,-0.3005,-0.2165,-0.1196,-0.0627,-0.0319,-0.0142,0.0341,0.0581,0.1047,0.1677,0.2012,0.2458,0.2909,0.3113,0.3406,0.3774,0.3983,0.4094,0.4091,0.4193,0.443,0.4755,0.5097,0.5485,0.5626,0.527,0.4424,0.5205,0.5981,0.6543,0.6876,0.7635,0.8462,0.8835,0.9377,0.9953,1.0594,1.0661,1.072,1.0728,1.1091,1.1351,1.1501,1.1819,1.2008,1.2246,1.2871,1.3494,1.392,1.4398,1.4305,1.4154,1.4247,1.4387,1.4674,1.5051,1.5457,1.5647,1.5748,1.5881,1.6001,1.638,1.682,1.7144,1.7447,1.7666,1.7882,1.7922,1.8029,1.8319,1.8461,1.8553,1.8821,1.9182,1.9682,2.0252,2.0927,2.151,2.1819,2.2204,2.2728,-0.9164,-0.878,-0.8088,-0.8706,-0.9895,-0.9323,-0.8964,-0.8795,-0.8407,-0.8013,-0.7626,-0.7551,-0.7071,-0.6428,-0.5993,-0.5476,-0.5048,-0.4574,-0.4112,-0.3778,-0.3622,-0.3272,-0.2978,-0.2662,-0.2199,-0.163,-0.153,-0.136,-0.088,-0.0596,-0.05,-0.0183,-0.009,-0.0266,-0.1241,-0.0398,0.0531,0.1242,0.1471,0.1788,0.2065,0.2229,0.2642,0.3166,0.3465,0.3913,0.4354,0.468,0.4973,0.5273,0.5644,0.5778,0.5886,0.595,0.618,0.6423,0.6661,0.6804,0.6894,0.6939,0.7169,0.7388,0.777,0.8357,0.9006,0.9592,0.9997,1.0202,1.0379,1.0694,1.1049,1.1301,1.141,1.179,1.2208,1.2451,1.2629,1.2936,1.3343,1.3571,1.393,1.4384,1.4651,1.4937,1.4937,1.4937,1.4971,1.5062,1.5255,1.5435,1.5748,1.5792,1.5836,1.5957,1.612,1.6565,1.6947,1.7323,1.757,1.7801,1.7922,1.7922,1.8109,1.8344,1.8422,1.8383,1.8997,1.9609,1.9925,2.0204,2.0579,2.1055,2.1323,2.1731,2.2286,-0.8203,-0.8072,-0.7155,-0.7092,-0.7568,-0.7335,-0.7217,-0.7141,-0.6784,-0.6495,-0.6283,-0.601,-0.5652,-0.5139,-0.45,-0.3986,-0.3712,-0.3278,-0.2842,-0.2492,-0.2281,-0.1749,-0.1454,-0.1153,-0.0783,-0.0367,-0.0229,-0.0046,0.0322,0.0673,0.1119,0.1484,0.1796,0.1736,0.1287,0.1508,0.191,0.2313,0.2504,0.277,0.3292,0.3691,0.4211,0.4895,0.5186,0.5544,0.5864,0.6049,0.6243,0.6473,0.6756,0.6809,0.69,0.694,0.7259,0.7771,0.8229,0.8687,0.9162,0.9475,0.9037,0.894,0.8992,0.957,0.9828,1.0466,1.0939,1.1318,1.1361,1.1713,1.2215,1.2332,1.2596,1.3322,1.3751,1.3932,1.4175,1.4683,1.506,1.5182,1.551,1.5609,1.5812,1.5637,1.5578,1.5426,1.5379,1.5424,1.557,1.5614,1.5792,1.5792,1.5836,1.6032,1.6293,1.6735,1.7086,1.7406,1.7666,1.7842,1.7922,1.7922,1.7989,1.8147,1.8226,1.8305,1.8884,1.9384,1.9762,2.008,2.0444,2.0811,2.1182,2.1538,2.1982,-0.7085,-0.6987,-0.6186,-0.5766,-0.5772,-0.597,-0.6016,-0.5882,-0.5599,-0.5346,-0.5048,-0.4609,-0.4292,-0.395,-0.3306,-0.2647,-0.2544,-0.2092,-0.1685,-0.1366,-0.1075,-0.0679,-0.023,0.0184,0.0409,0.0768,0.1091,0.1368,0.1617,0.2095,0.2492,0.2937,0.3378,0.3544,0.3322,0.3193,0.3067,0.348,0.3824,0.4138,0.4612,0.5067,0.5581,0.6087,0.6463,0.6805,0.7003,0.7156,0.7292,0.7388,0.7532,0.766,0.7904,0.8184,0.8564,0.9224,0.9629,1.0026,1.0485,1.0511,1.0061,1.0026,1.0084,1.0391,1.0805,1.1292,1.1725,1.209,1.231,1.2783,1.3202,1.3282,1.3721,1.448,1.4725,1.4862,1.5295,1.5749,1.5884,1.6092,1.6395,1.6604,1.6645,1.6431,1.6216,1.5999,1.5792,1.5792,1.5792,1.5792,1.5836,1.5869,1.6001,1.6207,1.6497,1.6905,1.724,1.7543,1.7706,1.7882,1.7922,1.7922,1.7935,1.7922,1.8055,1.8201,1.8669,1.9124,1.9603,2.001,2.0357,2.0712,2.1071,2.1339,2.1628,-0.5744,-0.5567,-0.5135,-0.4812,-0.4709,-0.5217,-0.5305,-0.5019,-0.5014,-0.4574,-0.3884,-0.3615,-0.3181,-0.2805,-0.236,-0.1755,-0.1228,-0.085,-0.0469,-0.0093,0.0135,0.0458,0.0688,0.0915,0.1403,0.1927,0.2335,0.2635,0.2901,0.324,0.3723,0.4208,0.4609,0.4822,0.4735,0.443,0.4216,0.464,0.4983,0.5248,0.5606,0.6208,0.6613,0.698,0.7235,0.746,0.7635,0.7876,0.8239,0.8659,0.9134,0.971,1.0143,1.045,1.0559,1.0661,1.0712,1.1015,1.1166,1.1023,1.1332,1.1566,1.1886,1.2017,1.2026,1.214,1.2525,1.2814,1.3122,1.3565,1.4031,1.427,1.4562,1.4977,1.533,1.5622,1.6049,1.6247,1.6309,1.6497,1.6837,1.7006,1.6836,1.6667,1.656,1.6032,1.5792,1.5792,1.5792,1.5792,1.5869,1.5988,1.6151,1.6454,1.6752,1.7115,1.7365,1.7666,1.776,1.7922,1.7922,1.7922,1.7909,1.7909,1.7922,1.8149,1.863,1.9124,1.9603,1.9975,2.015,2.0426,2.0712,2.0877,2.1119,-0.4778,-0.4696,-0.4001,-0.3698,-0.3695,-0.3751,-0.3829,-0.3921,-0.3725,-0.3438,-0.3216,-0.2162,-0.1802,-0.1617,-0.074,-0.0196,0.0192,0.0519,0.0878,0.1138,0.1346,0.162,0.1909,0.2161,0.2504,0.2903,0.3404,0.3864,0.4008,0.4382,0.4817,0.5303,0.5437,0.561,0.5567,0.5308,0.5399,0.552,0.5832,0.6075,0.6451,0.6964,0.7424,0.7904,0.8377,0.8567,0.879,0.8922,0.9235,0.9451,0.9658,1.0012,1.0466,1.0661,1.0864,1.1475,1.1841,1.2206,1.2304,1.2236,1.2393,1.2998,1.3342,1.3165,1.3007,1.3005,1.3379,1.3767,1.4037,1.4526,1.5016,1.5342,1.5712,1.6188,1.6453,1.6729,1.7133,1.7381,1.7445,1.7381,1.7728,1.7553,1.7351,1.7087,1.6847,1.6176,1.5792,1.5792,1.5792,1.5792,1.5913,1.602,1.6281,1.6625,1.6976,1.7323,1.7584,1.7788,1.7882,1.7922,1.7922,1.7922,1.7922,1.7922,1.7909,1.8175,1.8592,1.9011,1.9347,1.9603,1.9782,2.0065,2.0357,2.0561,2.0728,-0.3909,-0.3869,-0.3388,-0.3018,-0.2723,-0.2461,-0.2362,-0.234,-0.243,-0.242,-0.2044,-0.111,-0.0578,-0.0383,0.025,0.0801,0.1327,0.1417,0.167,0.2068,0.2446,0.2625,0.2938,0.3441,0.3714,0.4073,0.4509,0.4997,0.5043,0.5303,0.5696,0.5905,0.5953,0.6039,0.6124,0.6215,0.6329,0.6428,0.6572,0.6736,0.7176,0.7704,0.8329,0.8931,0.9489,0.9688,0.9917,0.9961,1.0064,1.0285,1.0482,1.0728,1.1242,1.1443,1.1642,1.2197,1.2461,1.2676,1.2725,1.2783,1.3252,1.3813,1.4307,1.439,1.4285,1.4256,1.4676,1.5112,1.5269,1.551,1.5988,1.6488,1.7059,1.7569,1.7756,1.7931,1.8283,1.8691,1.8661,1.8531,1.8448,1.8307,1.8049,1.7688,1.7183,1.6452,1.5972,1.5792,1.5792,1.5792,1.6001,1.6194,1.6454,1.6765,1.7144,1.7488,1.7706,1.7842,1.7882,1.7922,1.7922,1.7922,1.7922,1.7909,1.7895,1.8201,1.8475,1.863,1.8884,1.9184,1.953,1.9889,2.0185,2.0392,2.0527,-0.3126,-0.3037,-0.3004,-0.2472,-0.1762,-0.1433,-0.1053,-0.0523,-0.1184,-0.1201,-0.0679,-0.0148,0.044,0.0826,0.1165,0.1601,0.2067,0.2266,0.2565,0.2862,0.3202,0.3484,0.395,0.4427,0.4608,0.5235,0.5647,0.5745,0.5793,0.599,0.6167,0.6331,0.6374,0.6543,0.6888,0.7052,0.7248,0.765,0.7722,0.7872,0.829,0.8738,0.9166,0.9695,0.9917,1.002,1.0372,1.0677,1.088,1.1309,1.156,1.171,1.2116,1.2323,1.2578,1.2676,1.2832,1.2881,1.2881,1.2891,1.3461,1.4068,1.4758,1.5254,1.5375,1.5298,1.5656,1.6164,1.6372,1.6697,1.7174,1.7444,1.7859,1.8154,1.8307,1.8448,1.8679,1.8934,1.8881,1.8815,1.8756,1.8602,1.8157,1.7736,1.7219,1.6596,1.6128,1.5852,1.5792,1.5792,1.6044,1.6324,1.6595,1.6905,1.7365,1.7666,1.7801,1.7922,1.7922,1.7922,1.7922,1.7922,1.7922,1.7922,1.7909,1.8082,1.8319,1.8422,1.8616,1.8997,1.9369,1.9711,1.9975,2.015,2.0339,-0.2277,-0.1655,-0.1432,-0.1067,-0.0738,-0.051,-0.0309,-0.0098,0.0307,0.0464,0.0614,0.1331,0.1852,0.2036,0.2274,0.2686,0.2966,0.3186,0.3578,0.3918,0.4215,0.4319,0.4822,0.5075,0.5334,0.554,0.5891,0.6269,0.6477,0.6592,0.6683,0.6803,0.6846,0.7147,0.7581,0.7802,0.8173,0.8708,0.9024,0.9007,0.9154,0.9728,1.0277,1.0643,1.0854,1.0854,1.1108,1.1158,1.1259,1.1469,1.156,1.2017,1.2676,1.2783,1.2832,1.2881,1.2929,1.2978,1.3046,1.3144,1.3658,1.4403,1.5193,1.6063,1.6454,1.6315,1.6521,1.7081,1.7486,1.7886,1.8209,1.8405,1.8536,1.8643,1.875,1.8881,1.8999,1.8999,1.8987,1.8987,1.8987,1.8686,1.8253,1.7748,1.7219,1.6644,1.6116,1.5804,1.5792,1.5836,1.6132,1.6423,1.665,1.7044,1.7502,1.7706,1.7801,1.7882,1.7922,1.7922,1.7922,1.7922,1.7922,1.7922,1.7963,1.8055,1.8121,1.8121,1.8344,1.8808,1.9035,1.9295,1.9603,1.9782,2.0045,-0.134,-0.0851,-0.0688,-0.0324,0.0047,0.0201,0.0562,0.1214,0.183,0.2174,0.2316,0.2488,0.2749,0.3134,0.3464,0.3624,0.3887,0.4105,0.4211,0.452,0.4965,0.5069,0.5362,0.5657,0.5967,0.6152,0.632,0.6674,0.695,0.7224,0.7308,0.7321,0.7454,0.7777,0.8219,0.8566,0.898,0.9604,1.0115,1.023,0.9998,1.042,1.0736,1.1116,1.1326,1.1427,1.1728,1.1778,1.1927,1.2026,1.2126,1.2314,1.2725,1.2783,1.2832,1.2978,1.3065,1.32,1.3357,1.3644,1.4185,1.5135,1.5957,1.7025,1.7839,1.7797,1.7797,1.8236,1.7863,1.8124,1.8566,1.8762,1.8827,1.8881,1.8881,1.8934,1.8999,1.8987,1.8987,1.8987,1.8987,1.8915,1.8422,1.782,1.7339,1.7027,1.6416,1.5957,1.5921,1.6106,1.6355,1.6541,1.6794,1.7041,1.7406,1.7611,1.7666,1.7788,1.7882,1.7922,1.7922,1.7922,1.7922,1.7922,1.7922,1.7909,1.7935,1.7975,1.8161,1.8553,1.8707,1.8846,1.9161,1.9516,1.9801,-0.0447,-0.0268,-0.0134,0.0274,0.0853,0.099,0.1632,0.2559,0.3136,0.3606,0.3893,0.3282,0.3585,0.3945,0.4372,0.4481,0.4694,0.5009,0.4957,0.5017,0.5325,0.5602,0.5932,0.627,0.6378,0.655,0.6718,0.6832,0.6979,0.7266,0.7489,0.7761,0.815,0.8553,0.898,0.9294,0.9632,1.027,1.0788,1.1123,1.1072,1.0939,1.1158,1.1318,1.1477,1.1778,1.2184,1.2431,1.2529,1.2627,1.2627,1.2813,1.2958,1.3055,1.3152,1.3248,1.3573,1.371,1.3978,1.4483,1.5389,1.6361,1.7168,1.7856,1.8596,1.891,1.8898,1.8738,1.8363,1.8375,1.8815,1.8987,1.8987,1.8987,1.8987,1.8987,1.8987,1.8987,1.8987,1.8987,1.8987,1.8975,1.859,1.7989,1.7604,1.7291,1.6907,1.6402,1.6215,1.6556,1.6913,1.6904,1.701,1.7264,1.7376,1.7528,1.7624,1.7666,1.7788,1.7842,1.7922,1.7922,1.7922,1.7922,1.7922,1.7922,1.7922,1.7922,1.8135,1.8442,1.8383,1.8528,1.9104,1.9438,1.9634,0.0089,0.0892,0.125,0.1796,0.2422,0.2635,0.2832,0.3066,0.352,0.3862,0.4247,0.4809,0.4951,0.4701,0.522,0.5406,0.5441,0.5761,0.6008,0.6122,0.6086,0.6261,0.6378,0.6437,0.6398,0.6612,0.6901,0.7018,0.7396,0.7383,0.7581,0.828,0.8303,0.8953,0.9919,1.024,1.0582,1.1094,1.1474,1.1828,1.1944,1.1868,1.1927,1.2026,1.2126,1.2283,1.2431,1.2471,1.2578,1.2686,1.2881,1.3152,1.3334,1.3478,1.3563,1.38,1.4071,1.437,1.4755,1.5174,1.6056,1.6746,1.7363,1.7845,1.8478,1.8869,1.8869,1.8975,1.8762,1.8762,1.8987,1.8987,1.8987,1.8987,1.8987,1.8987,1.8987,1.8987,1.8987,1.8987,1.8987,1.8975,1.8903,1.8398,1.8025,1.7712,1.74,1.7002,1.7056,1.7279,1.743,1.7355,1.7295,1.7097,1.7106,1.7497,1.7621,1.7637,1.78,1.8099,1.8181,1.795,1.7936,1.8086,1.8004,1.795,1.7936,1.8113,1.8181,1.8384,1.815,1.8296,1.8906,1.9462,1.9822]},{"header":{"parameterUnit":"m.s-1","parameterCategory":1,"la1":31.0,"la2":29.5877,"lo1":-88.7671,"lo2":-86.6584,"dy":0.0162,"dx":0.0185,"nx":115,"ny":88,"refTime":"2026-03-16T12:00:00:Z","depth":0,"parameterNumber":3,"parameterNumberName":"V-component_of_WINDS"},"data":[0.0,0.0,0.0,0.0,0.0,0.0,0.0,0.0,0.0,0.0,0.0,0.0,0.0,0.0,0.0,0.0,0.0,0.0,0.0,0.0,0.0,0.0,0.0,0.0,0.0,0.0,0.0,0.0,0.0,0.0,0.0,0.0,0.0,0.0,0.0,0.0,0.0,0.0,0.0,0.0,0.0,0.0,0.0,0.0,0.0,0.0,0.0,0.0,0.0,0.0,0.0,0.0,0.0,0.0,0.0,0.0,0.0,0.0,0.0,0.0,0.0,0.0,0.0,0.0,0.0,0.0,0.0,0.0,0.0,0.0,0.0,0.0,0.0,0.0,0.0,0.0,0.0,0.0,0.0,0.0,0.0,0.0,0.0,0.0,0.0,0.0,0.0,0.0,0.0,0.0,0.0,0.0,0.0,0.0,0.0,0.0,0.0,0.0,0.0,0.0,0.0,0.0,0.0,0.0,0.0,0.0,0.0,0.0,0.0,0.0,0.0,0.0,0.0,0.0,0.0,0.0,0.0,0.0,0.0,0.0,0.0,0.0,0.0,0.0,0.0,0.0,0.0,0.0,0.0,0.0,0.0,0.0,0.0,0.0,0.0,0.0,0.0,0.0,0.0,0.0,0.0,0.0,0.0,0.0,0.0,0.0,0.0,0.0,0.0,0.0,0.0,0.0,0.0,0.0,0.0,0.0,0.0,0.0,0.0,0.0,0.0,0.0,0.0,0.0,0.0,0.0,0.0,0.0,0.0,0.0,0.0,0.0,0.0,0.0,0.0,0.0,0.0,0.0,0.0,0.0,0.0,0.0,0.0,0.0,0.0,0.0,0.0,0.0,0.0,0.0,0.0,0.0,0.0,0.0,0.0,0.0,0.0,0.0,0.0,0.0,0.0,0.0,0.0,0.0,0.0,0.0,0.0,0.0,0.0,0.0,0.0,0.0,0.0,0.0,0.0,0.0,0.0,0.0,0.0,0.0,0.0,0.0,0.0,0.0,0.0,0.0,0.0,0.0,0.0,0.0,0.0,0.0,0.0,0.0,0.0,0.0,0.0,0.0,0.0,0.0,0.0,0.0,0.0,0.0,0.0,0.0,0.0,0.0,0.0,0.0,0.0,0.0,0.0,0.0,0.0,0.0,0.0,0.0,0.0,0.0,0.0,0.0,0.0,0.0,0.0,0.0,0.0,0.0,0.0,0.0,0.0,0.0,0.0,0.0,0.0,0.0,0.0,0.0,0.0,0.0,0.0,0.0,0.0,0.0,0.0,0.0,0.0,0.0,0.0,0.0,0.0,0.0,0.0,0.0,0.0,0.0,0.0,0.0,0.0,0.0,0.0,0.0,0.0,0.0,0.0,0.0,0.0,0.0,0.0,0.0,0.0,0.0,0.0,0.0,0.0,0.0,0.0,0.0,0.0,0.0,0.0,0.0,0.0,0.0,0.0,0.0,0.0,0.0,0.0,0.0,0.0,0.0,0.0,0.0,0.0,0.0,0.0,0.0,0.0,0.0,0.0,0.0,0.0,0.0,0.0,0.0,0.0,0.0,0.0,0.0,0.0,0.0,0.0,0.0,0.0,0.0,0.0,0.0,0.0,0.0,0.0,0.0,0.0,0.0,0.0,0.0,0.0,0.0,0.0,0.0,0.0,0.0,0.0,0.0,0.0,0.0,0.0,0.0,0.0,0.0,0.0,0.0,0.0,0.0,0.0,0.0,0.0,0.0,0.0,0.0,0.0,0.0,0.0,0.0,0.0,0.0,0.0,0.0,0.0,0.0,0.0,0.0,0.0,0.0,0.0,0.0,0.0,0.0,0.0,0.0,0.0,0.0,0.0,0.0,0.0,0.0,0.0,0.0,0.0,0.0,0.0,0.0,0.0,0.0,0.0,0.0,0.0,0.0,0.0,0.0,0.0,0.0,0.0,0.0,0.0,0.0,0.0,0.0,0.0,0.0,0.0,0.0,0.0,0.0,0.0,0.0,0.0,0.0,0.0,0.0,0.0,0.0,0.0,0.0,0.0,0.0,0.0,0.0,0.0,0.0,0.0,0.0,0.0,0.0,0.0,0.0,0.0,0.0,0.0,0.0,0.0,0.0,0.0,0.0,0.0,0.0,0.0,0.0,0.0,0.0,0.0,0.0,0.0,0.0,0.0,0.0,0.0,0.0,0.0,0.0,0.0,0.0,0.0,0.0,0.0,0.0,0.0,0.0,0.0,0.0,0.0,0.0,0.0,0.0,0.0,0.0,0.0,0.0,0.0,0.0,0.0,0.0,0.0,0.0,0.0,0.0,0.0,0.0,0.0,0.0,0.0,0.0,0.0,0.0,0.0,0.0,0.0,0.0,0.0,0.0,0.0,0.0,0.0,0.0,0.0,0.0,0.0,0.0,0.0,0.0,0.0,0.0,0.0,0.0,0.0,0.0,0.0,0.0,0.0,0.0,0.0,0.0,0.0,0.0,0.0,0.0,0.0,0.0,0.0,0.0,0.0,0.0,0.0,0.0,0.0,0.0,0.0,0.0,0.0,0.0,0.0,0.0,0.0,0.0,0.0,0.0,0.0,0.0,0.0,0.0,0.0,0.0,0.0,0.0,0.0,0.0,0.0,0.0,0.0,0.0,0.0,0.0,0.0,0.0,0.0,0.0,0.0,0.0,0.0,0.0,0.0,0.0,0.0,0.0,0.0,0.0,0.0,0.0,0.0,0.0,0.0,0.0,0.0,0.0,0.0,0.0,0.0,0.0,0.0,0.0,0.0,0.0,0.0,0.0,0.0,0.0,0.0,0.0,0.0,0.0,0.0,0.0,0.0,0.0,0.0,0.0,0.0,0.0,0.0,0.0,0.0,0.0,0.0,0.0,0.0,0.0,0.0,0.0,0.0,0.0,0.0,0.0,0.0,0.0,0.0,0.0,0.0,0.0,0.0,0.0,0.0,0.0,0.0,0.0,0.0,0.0,0.0,0.0,0.0,0.0,0.0,0.0,0.0,0.0,0.0,0.0,0.0,0.0,0.0,0.0,0.0,0.0,0.0,0.0,0.0,0.0,0.0,0.0,0.0,0.0,0.0,0.0,0.0,0.0,0.0,0.0,0.0,0.0,0.0,0.0,0.0,0.0,0.0,0.0,0.0,0.0,0.0,0.0,0.0,0.0,0.0,0.0,0.0,0.0,0.0,0.0,0.0,0.0,0.0,0.0,0.0,0.0,0.0,0.0,0.0,0.0,0.0,0.0,0.0,0.0,0.0,0.0,0.0,0.0,0.0,0.0,0.0,0.0,0.0,0.0,0.0,0.0,0.0,0.0,0.0,0.0,0.0,0.0,0.0,0.0,0.0,0.0,0.0,0.0,0.0,0.0,0.0,0.0,0.0,0.0,0.0,0.0,0.0,0.0,0.0,0.0,0.0,0.0,0.0,0.0,0.0,0.0,0.0,0.0,0.0,0.0,0.0,0.0,0.0,0.0,0.0,0.0,0.0,0.0,0.0,0.0,0.0,0.0,0.0,0.0,0.0,0.0,0.0,0.0,0.0,0.0,0.0,0.0,0.0,0.0,0.0,0.0,0.0,0.0,0.0,0.0,0.0,0.0,0.0,0.0,0.0,0.0,0.0,0.0,0.0,0.0,0.0,0.0,0.0,0.0,0.0,0.0,0.0,0.0,0.0,0.0,0.0,0.0,0.0,0.0,0.0,0.0,0.0,0.0,0.0,0.0,0.0,0.0,0.0,0.0,0.0,0.0,0.0,0.0,0.0,0.0,0.0,0.0,0.0,0.0,0.0,0.0,0.0,0.0,0.0,0.0,0.0,0.0,0.0,0.0,0.0,0.0,0.0,0.0,0.0,0.0,0.0,0.0,0.0,0.0,0.0,0.0,0.0,0.0,0.0,0.0,0.0,0.0,0.0,0.0,0.0,0.0,0.0,0.0,0.0,0.0,0.0,0.0,0.0,0.0,0.0,0.0,0.0,0.0,0.0,0.0,0.0,0.0,0.0,0.0,0.0,0.0,0.0,0.0,0.0,0.0,0.0,0.0,0.0,0.0,0.0,0.0,0.0,0.0,0.0,0.0,0.0,0.0,0.0,0.0,0.0,0.0,0.0,0.0,0.0,0.0,0.0,0.0,0.0,0.0,0.0,0.0,0.0,0.0,0.0,0.0,0.0,0.0,0.0,0.0,0.0,0.0,0.0,0.0,0.0,0.0,0.0,0.0,0.0,0.0,0.0,0.0,0.0,0.0,0.0,0.0,0.0,0.0,0.0,0.0,0.0,0.0,0.0,0.0,0.0,0.0,-2.5783,0.0,0.0,0.0,0.0,0.0,0.0,0.0,0.0,0.0,0.0,0.0,0.0,0.0,0.0,0.0,0.0,0.0,0.0,0.0,0.0,0.0,0.0,0.0,0.0,0.0,0.0,0.0,0.0,0.0,0.0,0.0,0.0,0.0,0.0,0.0,0.0,0.0,0.0,0.0,0.0,0.0,0.0,0.0,0.0,0.0,0.0,0.0,0.0,0.0,0.0,0.0,0.0,0.0,0.0,0.0,0.0,0.0,0.0,0.0,0.0,0.0,0.0,0.0,0.0,0.0,0.0,0.0,0.0,0.0,0.0,0.0,0.0,0.0,0.0,0.0,0.0,0.0,0.0,0.0,0.0,0.0,0.0,0.0,0.0,0.0,0.0,0.0,0.0,0.0,0.0,0.0,0.0,0.0,0.0,0.0,0.0,0.0,0.0,0.0,0.0,0.0,0.0,0.0,0.0,0.0,0.0,0.0,0.0,0.0,0.0,-2.6952,-2.6754,-2.6804,-2.6087,-2.4616,0.0,0.0,0.0,0.0,0.0,0.0,0.0,0.0,0.0,0.0,0.0,0.0,0.0,0.0,0.0,0.0,0.0,0.0,0.0,0.0,0.0,0.0,0.0,0.0,0.0,0.0,0.0,0.0,0.0,0.0,0.0,0.0,0.0,0.0,0.0,0.0,0.0,0.0,0.0,0.0,0.0,0.0,0.0,0.0,0.0,0.0,0.0,0.0,0.0,0.0,0.0,0.0,0.0,0.0,0.0,0.0,0.0,0.0,0.0,0.0,0.0,0.0,0.0,0.0,0.0,0.0,0.0,0.0,0.0,0.0,0.0,0.0,0.0,0.0,0.0,0.0,0.0,0.0,0.0,0.0,0.0,0.0,0.0,0.0,0.0,0.0,0.0,0.0,0.0,0.0,0.0,0.0,0.0,0.0,0.0,0.0,0.0,0.0,0.0,0.0,0.0,0.0,0.0,0.0,0.0,0.0,0.0,0.0,0.0,0.0,0.0,0.0,-2.5746,-2.5111,-2.3719,0.0,0.0,0.0,0.0,0.0,0.0,0.0,0.0,0.0,0.0,0.0,0.0,0.0,0.0,0.0,0.0,0.0,0.0,0.0,0.0,0.0,0.0,0.0,0.0,0.0,0.0,0.0,0.0,0.0,0.0,0.0,0.0,0.0,0.0,0.0,0.0,0.0,0.0,0.0,0.0,0.0,0.0,0.0,0.0,0.0,0.0,0.0,0.0,0.0,0.0,0.0,0.0,0.0,0.0,0.0,0.0,0.0,0.0,0.0,0.0,0.0,0.0,0.0,0.0,0.0,0.0,0.0,0.0,0.0,0.0,0.0,0.0,0.0,0.0,0.0,0.0,0.0,0.0,0.0,0.0,0.0,0.0,0.0,0.0,0.0,0.0,0.0,0.0,0.0,0.0,0.0,0.0,0.0,0.0,0.0,0.0,0.0,0.0,0.0,0.0,0.0,0.0,0.0,0.0,0.0,0.0,0.0,0.0,0.0,0.0,-2.5406,-2.5259,-2.554,0.0,-2.3935,0.0,0.0,0.0,0.0,0.0,0.0,0.0,0.0,0.0,0.0,0.0,0.0,0.0,0.0,0.0,0.0,0.0,0.0,0.0,0.0,0.0,0.0,0.0,0.0,0.0,0.0,0.0,0.0,0.0,0.0,0.0,0.0,0.0,0.0,0.0,0.0,0.0,0.0,0.0,0.0,0.0,0.0,0.0,0.0,0.0,0.0,0.0,0.0,0.0,0.0,0.0,0.0,0.0,0.0,0.0,0.0,0.0,0.0,0.0,0.0,0.0,0.0,0.0,0.0,0.0,0.0,0.0,0.0,0.0,0.0,0.0,0.0,0.0,0.0,0.0,0.0,0.0,0.0,0.0,0.0,0.0,0.0,0.0,0.0,0.0,0.0,0.0,0.0,0.0,0.0,0.0,0.0,0.0,0.0,0.0,0.0,0.0,0.0,0.0,0.0,0.0,0.0,0.0,0.0,0.0,0.0,0.0,0.0,0.0,0.0,-2.444,-2.4461,-2.3881,-2.3438,0.0,0.0,0.0,0.0,0.0,0.0,0.0,0.0,0.0,0.0,0.0,0.0,0.0,0.0,0.0,0.0,0.0,0.0,0.0,0.0,0.0,0.0,0.0,0.0,0.0,0.0,0.0,0.0,0.0,0.0,0.0,0.0,0.0,0.0,0.0,0.0,0.0,0.0,0.0,0.0,0.0,0.0,0.0,0.0,0.0,0.0,0.0,0.0,0.0,0.0,0.0,0.0,0.0,0.0,0.0,0.0,0.0,0.0,0.0,0.0,0.0,0.0,0.0,0.0,0.0,0.0,0.0,0.0,0.0,0.0,0.0,0.0,0.0,0.0,0.0,0.0,0.0,0.0,0.0,0.0,0.0,0.0,0.0,0.0,0.0,0.0,0.0,0.0,0.0,0.0,0.0,0.0,0.0,0.0,0.0,0.0,0.0,0.0,0.0,0.0,0.0,0.0,0.0,0.0,0.0,0.0,0.0,0.0,0.0,0.0,-2.3591,0.0,-2.3507,-2.2667,-2.2218,-2.2337,0.0,0.0,0.0,0.0,0.0,0.0,0.0,0.0,0.0,0.0,0.0,0.0,0.0,0.0,0.0,0.0,0.0,0.0,0.0,0.0,0.0,0.0,0.0,0.0,0.0,0.0,0.0,0.0,0.0,0.0,0.0,0.0,0.0,0.0,0.0,0.0,0.0,0.0,0.0,0.0,0.0,0.0,0.0,0.0,0.0,0.0,0.0,0.0,0.0,0.0,0.0,0.0,0.0,0.0,0.0,0.0,0.0,0.0,0.0,0.0,0.0,0.0,0.0,0.0,0.0,0.0,0.0,0.0,0.0,0.0,0.0,0.0,0.0,0.0,0.0,0.0,0.0,0.0,0.0,0.0,0.0,0.0,0.0,0.0,0.0,0.0,0.0,0.0,0.0,0.0,0.0,0.0,0.0,0.0,0.0,0.0,0.0,0.0,0.0,0.0,0.0,0.0,0.0,0.0,0.0,0.0,0.0,0.0,0.0,-2.2406,-2.2314,-2.2558,-2.2409,-2.2091,0.0,0.0,0.0,0.0,0.0,0.0,0.0,0.0,0.0,0.0,0.0,0.0,0.0,0.0,0.0,0.0,0.0,0.0,0.0,0.0,0.0,0.0,0.0,0.0,0.0,0.0,0.0,0.0,0.0,0.0,0.0,0.0,0.0,0.0,0.0,0.0,0.0,0.0,0.0,0.0,0.0,0.0,0.0,0.0,0.0,0.0,0.0,0.0,0.0,0.0,0.0,0.0,0.0,0.0,0.0,0.0,0.0,0.0,0.0,0.0,0.0,0.0,0.0,0.0,0.0,0.0,0.0,0.0,0.0,0.0,0.0,0.0,0.0,0.0,0.0,0.0,0.0,0.0,0.0,0.0,0.0,0.0,0.0,0.0,0.0,0.0,0.0,0.0,0.0,0.0,0.0,0.0,0.0,0.0,0.0,0.0,0.0,0.0,0.0,0.0,0.0,0.0,0.0,0.0,0.0,0.0,0.0,0.0,0.0,-2.2086,-2.1913,-2.1724,-2.1534,-2.1161,-2.1012,0.0,0.0,0.0,0.0,0.0,0.0,0.0,0.0,0.0,0.0,0.0,0.0,0.0,0.0,0.0,0.0,0.0,0.0,0.0,0.0,0.0,0.0,0.0,0.0,0.0,0.0,0.0,0.0,0.0,0.0,0.0,0.0,0.0,0.0,0.0,0.0,0.0,0.0,0.0,0.0,0.0,0.0,0.0,0.0,0.0,0.0,0.0,0.0,0.0,0.0,0.0,0.0,0.0,0.0,0.0,0.0,0.0,0.0,0.0,0.0,0.0,0.0,0.0,0.0,0.0,0.0,0.0,0.0,0.0,0.0,0.0,0.0,0.0,0.0,0.0,0.0,0.0,0.0,0.0,0.0,0.0,0.0,0.0,0.0,0.0,0.0,0.0,0.0,0.0,0.0,0.0,0.0,0.0,0.0,0.0,0.0,0.0,0.0,0.0,0.0,0.0,0.0,0.0,0.0,0.0,0.0,0.0,0.0,0.0,-2.0851,0.0,-2.0667,0.0,-1.9887,-1.9949,0.0,0.0,0.0,0.0,0.0,0.0,0.0,0.0,0.0,0.0,0.0,0.0,0.0,0.0,0.0,0.0,0.0,0.0,0.0,0.0,0.0,0.0,0.0,0.0,0.0,0.0,0.0,0.0,0.0,0.0,0.0,0.0,0.0,0.0,0.0,0.0,0.0,0.0,0.0,0.0,0.0,0.0,0.0,0.0,0.0,0.0,0.0,0.0,0.0,0.0,0.0,0.0,0.0,0.0,0.0,0.0,0.0,0.0,0.0,0.0,0.0,0.0,0.0,0.0,0.0,0.0,0.0,0.0,0.0,0.0,0.0,0.0,0.0,0.0,0.0,0.0,0.0,0.0,0.0,0.0,0.0,0.0,0.0,0.0,0.0,0.0,0.0,0.0,0.0,0.0,0.0,0.0,0.0,0.0,0.0,0.0,0.0,0.0,0.0,0.0,0.0,0.0,0.0,0.0,0.0,0.0,0.0,0.0,-1.9888,-1.8955,-1.8955,-1.902,-1.9085,-1.8755,-1.9015,0.0,0.0,0.0,0.0,0.0,0.0,0.0,0.0,0.0,0.0,0.0,0.0,0.0,0.0,0.0,0.0,0.0,0.0,0.0,0.0,0.0,0.0,0.0,0.0,0.0,0.0,0.0,0.0,0.0,0.0,0.0,0.0,0.0,0.0,0.0,0.0,0.0,0.0,0.0,0.0,0.0,0.0,0.0,0.0,0.0,0.0,0.0,0.0,0.0,0.0,0.0,0.0,0.0,0.0,0.0,0.0,0.0,0.0,0.0,0.0,0.0,0.0,0.0,0.0,0.0,0.0,0.0,0.0,0.0,0.0,0.0,0.0,0.0,0.0,0.0,0.0,0.0,0.0,0.0,0.0,0.0,0.0,0.0,0.0,0.0,0.0,0.0,0.0,0.0,0.0,0.0,0.0,0.0,0.0,0.0,0.0,0.0,0.0,0.0,0.0,0.0,0.0,0.0,0.0,0.0,0.0,0.0,0.0,0.0,-1.862,-1.8221,-1.8176,-1.854,-1.8446,-1.8586,0.0,0.0,0.0,0.0,0.0,0.0,0.0,0.0,0.0,0.0,0.0,0.0,0.0,0.0,0.0,0.0,0.0,0.0,0.0,0.0,0.0,0.0,0.0,0.0,0.0,0.0,0.0,0.0,0.0,0.0,0.0,0.0,0.0,0.0,0.0,0.0,0.0,0.0,0.0,0.0,0.0,0.0,0.0,0.0,0.0,0.0,0.0,0.0,0.0,0.0,0.0,0.0,0.0,0.0,0.0,0.0,0.0,0.0,0.0,0.0,0.0,0.0,0.0,0.0,0.0,0.0,0.0,0.0,0.0,0.0,0.0,0.0,0.0,0.0,0.0,0.0,0.0,0.0,0.0,0.0,0.0,0.0,0.0,0.0,0.0,0.0,0.0,0.0,0.0,0.0,0.0,0.0,0.0,0.0,0.0,0.0,0.0,0.0,0.0,0.0,0.0,0.0,0.0,0.0,0.0,0.0,0.0,0.0,0.0,-1.7346,-1.7191,-1.7231,-1.7581,-1.7737,-1.8121,-1.8746,0.0,0.0,0.0,0.0,0.0,0.0,0.0,0.0,0.0,0.0,0.0,0.0,0.0,0.0,0.0,0.0,0.0,0.0,0.0,0.0,0.0,0.0,0.0,0.0,0.0,0.0,0.0,0.0,0.0,0.0,0.0,0.0,0.0,0.0,0.0,0.0,0.0,0.0,0.0,0.0,0.0,0.0,0.0,0.0,0.0,0.0,0.0,0.0,0.0,0.0,0.0,0.0,0.0,0.0,0.0,0.0,0.0,0.0,0.0,0.0,0.0,0.0,0.0,0.0,0.0,0.0,0.0,0.0,0.0,0.0,0.0,0.0,0.0,0.0,0.0,0.0,0.0,0.0,0.0,0.0,0.0,0.0,0.0,0.0,0.0,0.0,0.0,0.0,0.0,0.0,0.0,0.0,0.0,0.0,0.0,0.0,0.0,0.0,0.0,0.0,0.0,0.0,0.0,0.0,0.0,0.0,0.0,0.0,-1.5429,-1.5738,-1.6134,-1.654,-1.683,-1.7543,0.0,0.0,0.0,0.0,0.0,0.0,0.0,0.0,0.0,0.0,0.0,0.0,0.0,0.0,0.0,0.0,0.0,0.0,0.0,0.0,0.0,0.0,0.0,0.0,0.0,0.0,0.0,0.0,0.0,0.0,0.0,0.0,0.0,0.0,0.0,0.0,0.0,0.0,0.0,0.0,0.0,0.0,0.0,0.0,0.0,0.0,0.0,0.0,0.0,0.0,0.0,0.0,0.0,0.0,0.0,0.0,0.0,0.0,0.0,0.0,0.0,0.0,0.0,0.0,0.0,0.0,0.0,0.0,0.0,0.0,0.0,0.0,0.0,0.0,0.0,0.0,0.0,0.0,0.0,0.0,0.0,0.0,0.0,0.0,0.0,0.0,0.0,0.0,0.0,0.0,0.0,0.0,0.0,0.0,0.0,0.0,0.0,0.0,0.0,0.0,0.0,0.0,0.0,0.0,0.0,0.0,0.0,0.0,0.0,-1.3459,-1.3948,-1.4907,-1.6441,-1.6511,-1.709,0.0,0.0,0.0,0.0,0.0,0.0,0.0,0.0,0.0,0.0,0.0,0.0,0.0,0.0,0.0,0.0,0.0,0.0,0.0,0.0,0.0,0.0,0.0,0.0,0.0,0.0,0.0,0.0,0.0,0.0,0.0,0.0,0.0,0.0,0.0,0.0,0.0,0.0,0.0,0.0,0.0,0.0,0.0,0.0,0.0,0.0,0.0,0.0,0.0,0.0,0.0,0.0,0.0,0.0,0.0,0.0,0.0,0.0,0.0,0.0,0.0,0.0,0.0,0.0,0.0,0.0,0.0,0.0,0.0,0.0,0.0,0.0,0.0,0.0,0.0,0.0,0.0,0.0,0.0,0.0,0.0,0.0,0.0,0.0,0.0,0.0,0.0,0.0,0.0,0.0,0.0,0.0,0.0,0.0,0.0,0.0,0.0,0.0,0.0,0.0,0.0,0.0,0.0,0.0,0.0,0.0,0.0,0.0,-1.2704,-1.232,-1.2992,-1.4013,-1.5468,-1.6214,-1.7022,0.0,0.0,0.0,0.0,0.0,0.0,0.0,0.0,0.0,0.0,0.0,0.0,0.0,0.0,0.0,0.0,0.0,0.0,0.0,0.0,0.0,0.0,0.0,0.0,0.0,0.0,0.0,0.0,0.0,0.0,0.0,0.0,0.0,0.0,0.0,0.0,0.0,0.0,0.0,0.0,0.0,0.0,0.0,0.0,0.0,0.0,0.0,0.0,0.0,0.0,0.0,0.0,0.0,0.0,0.0,0.0,0.0,0.0,0.0,0.0,0.0,0.0,0.0,0.0,0.0,0.0,0.0,0.0,0.0,0.0,0.0,0.0,0.0,0.0,0.0,0.0,0.0,0.0,0.0,0.0,0.0,0.0,0.0,0.0,0.0,0.0,0.0,0.0,0.0,0.0,0.0,0.0,0.0,0.0,0.0,0.0,0.0,0.0,0.0,0.0,0.0,0.0,0.0,0.0,0.0,0.0,0.0,0.0,-1.2205,-1.1578,-1.2565,-1.335,-1.3973,-1.5708,-1.7022,0.0,0.0,0.0,0.0,0.0,0.0,0.0,0.0,0.0,0.0,0.0,0.0,0.0,0.0,0.0,0.0,0.0,0.0,0.0,0.0,0.0,0.0,0.0,0.0,0.0,0.0,0.0,0.0,0.0,0.0,0.0,0.0,0.0,0.0,0.0,0.0,0.0,0.0,0.0,0.0,0.0,0.0,0.0,0.0,0.0,0.0,0.0,0.0,0.0,0.0,0.0,0.0,0.0,0.0,0.0,0.0,0.0,0.0,0.0,0.0,0.0,0.0,0.0,0.0,0.0,0.0,0.0,0.0,0.0,0.0,0.0,0.0,0.0,0.0,0.0,0.0,0.0,0.0,0.0,0.0,0.0,0.0,0.0,0.0,0.0,0.0,0.0,0.0,0.0,0.0,0.0,0.0,0.0,0.0,0.0,0.0,0.0,0.0,0.0,0.0,0.0,0.0,0.0,0.0,0.0,0.0,0.0,0.0,-1.0584,-1.0015,-1.1392,-1.2359,-1.2808,-1.4366,-1.6017,0.0,0.0,0.0,0.0,0.0,0.0,0.0,0.0,0.0,0.0,0.0,0.0,0.0,0.0,0.0,0.0,0.0,0.0,0.0,0.0,0.0,0.0,0.0,0.0,0.0,0.0,0.0,0.0,0.0,0.0,0.0,0.0,0.0,0.0,0.0,0.0,0.0,0.0,0.0,0.0,0.0,0.0,0.0,0.0,0.0,0.0,0.0,0.0,-2.2905,0.0,0.0,0.0,0.0,0.0,0.0,0.0,0.0,0.0,0.0,0.0,0.0,0.0,0.0,0.0,0.0,0.0,0.0,0.0,0.0,0.0,0.0,0.0,0.0,0.0,0.0,0.0,0.0,0.0,0.0,0.0,0.0,0.0,0.0,0.0,0.0,0.0,0.0,0.0,0.0,0.0,0.0,0.0,0.0,0.0,0.0,0.0,0.0,0.0,0.0,0.0,0.0,0.0,0.0,0.0,0.0,0.0,0.0,0.0,-0.9697,-0.9326,-1.0514,-1.1516,-1.2197,-1.3449,-1.5117,0.0,0.0,0.0,0.0,0.0,0.0,0.0,0.0,0.0,0.0,0.0,0.0,0.0,0.0,0.0,0.0,0.0,0.0,0.0,0.0,0.0,0.0,0.0,0.0,0.0,0.0,0.0,0.0,0.0,0.0,0.0,0.0,0.0,0.0,0.0,0.0,0.0,0.0,0.0,0.0,0.0,0.0,0.0,0.0,0.0,0.0,0.0,0.0,0.0,0.0,0.0,0.0,0.0,0.0,0.0,0.0,0.0,0.0,0.0,0.0,0.0,0.0,0.0,0.0,0.0,0.0,0.0,0.0,0.0,0.0,0.0,0.0,0.0,0.0,0.0,0.0,0.0,0.0,0.0,0.0,0.0,0.0,0.0,0.0,0.0,0.0,0.0,0.0,0.0,0.0,0.0,0.0,0.0,0.0,0.0,0.0,0.0,0.0,0.0,0.0,0.0,0.0,0.0,0.0,0.0,0.0,0.0,-0.9396,-0.9186,-0.8947,-0.9894,-1.0829,-1.171,-1.2801,-1.4378,-1.6363,0.0,0.0,0.0,0.0,0.0,0.0,0.0,0.0,0.0,0.0,0.0,0.0,0.0,0.0,0.0,0.0,0.0,0.0,0.0,0.0,0.0,0.0,0.0,0.0,0.0,0.0,0.0,0.0,0.0,0.0,0.0,0.0,0.0,0.0,0.0,0.0,0.0,0.0,-1.6877,-1.5657,0.0,0.0,0.0,0.0,0.0,0.0,0.0,0.0,-1.8942,0.0,0.0,0.0,0.0,0.0,0.0,0.0,0.0,0.0,0.0,0.0,0.0,0.0,0.0,0.0,0.0,0.0,0.0,0.0,0.0,0.0,0.0,0.0,0.0,0.0,0.0,0.0,0.0,0.0,0.0,0.0,0.0,0.0,0.0,0.0,0.0,0.0,0.0,0.0,0.0,0.0,0.0,0.0,0.0,0.0,0.0,0.0,0.0,0.0,0.0,0.0,0.0,0.0,0.0,0.0,0.0,-0.812,-0.833,-0.849,-0.8619,-0.957,-1.0584,-1.1516,-1.2565,-1.392,-1.5673,0.0,0.0,0.0,0.0,0.0,0.0,0.0,0.0,0.0,0.0,0.0,0.0,0.0,0.0,0.0,0.0,0.0,0.0,0.0,0.0,0.0,0.0,0.0,0.0,0.0,0.0,0.0,0.0,0.0,0.0,0.0,0.0,0.0,0.0,0.0,0.0,0.0,0.0,0.0,-1.0865,-1.1148,0.0,0.0,0.0,0.0,0.0,0.0,0.0,0.0,-1.7612,0.0,0.0,0.0,0.0,0.0,0.0,0.0,0.0,0.0,0.0,0.0,0.0,0.0,0.0,0.0,0.0,0.0,0.0,0.0,0.0,0.0,0.0,0.0,0.0,0.0,0.0,0.0,0.0,0.0,0.0,0.0,0.0,0.0,0.0,0.0,0.0,0.0,0.0,0.0,0.0,0.0,0.0,0.0,0.0,0.0,0.0,0.0,0.0,0.0,0.0,0.0,0.0,0.0,0.0,0.0,-0.7469,-0.7513,-0.7652,-0.7977,-0.8935,-0.9952,-1.0954,-1.2135,-1.3567,0.0,0.0,0.0,0.0,0.0,0.0,0.0,0.0,0.0,0.0,0.0,0.0,0.0,0.0,0.0,0.0,0.0,0.0,0.0,0.0,0.0,0.0,0.0,0.0,0.0,0.0,0.0,0.0,0.0,0.0,0.0,0.0,0.0,0.0,0.0,0.0,0.0,0.0,0.0,0.0,-0.8726,-0.8948,-0.9539,0.0,0.0,0.0,0.0,0.0,0.0,-1.4456,-1.5061,0.0,0.0,0.0,0.0,0.0,0.0,0.0,0.0,0.0,0.0,0.0,0.0,0.0,0.0,0.0,0.0,0.0,0.0,0.0,0.0,0.0,0.0,0.0,0.0,0.0,0.0,0.0,0.0,0.0,0.0,0.0,0.0,0.0,0.0,0.0,0.0,0.0,0.0,0.0,0.0,0.0,0.0,0.0,0.0,0.0,0.0,0.0,0.0,0.0,0.0,0.0,0.0,0.0,0.0,0.0,-0.7007,-0.6942,-0.7073,-0.7461,-0.8301,-0.9326,-1.0395,-1.1692,-1.3314,0.0,0.0,0.0,0.0,0.0,0.0,0.0,0.0,0.0,0.0,0.0,0.0,0.0,0.0,0.0,0.0,0.0,0.0,0.0,0.0,0.0,0.0,0.0,0.0,0.0,0.0,0.0,0.0,0.0,0.0,0.0,0.0,0.0,0.0,0.0,0.0,0.0,0.0,0.0,0.0,0.0,-0.7502,-0.8604,-0.8596,0.0,0.0,0.0,0.0,-1.1672,-1.2269,0.0,0.0,0.0,0.0,0.0,0.0,0.0,0.0,0.0,0.0,0.0,0.0,0.0,0.0,0.0,0.0,0.0,0.0,0.0,0.0,0.0,0.0,0.0,0.0,0.0,0.0,0.0,0.0,0.0,0.0,0.0,0.0,0.0,0.0,0.0,0.0,0.0,0.0,0.0,0.0,0.0,0.0,0.0,0.0,0.0,0.0,0.0,0.0,0.0,0.0,0.0,0.0,0.0,0.0,0.0,0.0,-0.6482,-0.6675,-0.6872,-0.7265,-0.7787,-0.8753,-1.0015,-1.1404,-1.3124,0.0,0.0,0.0,0.0,0.0,0.0,0.0,0.0,0.0,0.0,0.0,0.0,0.0,0.0,0.0,0.0,0.0,0.0,0.0,0.0,0.0,0.0,0.0,0.0,0.0,0.0,0.0,0.0,0.0,0.0,0.0,0.0,0.0,0.0,0.0,0.0,0.0,0.0,0.0,0.0,0.0,-0.675,-0.7427,-0.7695,-0.8134,0.0,0.0,-1.002,-1.031,-1.0488,0.0,0.0,0.0,0.0,0.0,0.0,0.0,0.0,0.0,0.0,0.0,0.0,0.0,0.0,0.0,0.0,0.0,0.0,0.0,0.0,0.0,0.0,0.0,0.0,0.0,0.0,0.0,0.0,0.0,0.0,0.0,0.0,0.0,0.0,0.0,0.0,0.0,0.0,0.0,0.0,0.0,0.0,0.0,0.0,0.0,0.0,0.0,0.0,0.0,0.0,0.0,0.0,0.0,0.0,0.0,-0.6086,-0.6148,-0.612,-0.6258,-0.6459,-0.7149,-0.8028,-0.8992,-1.0635,-1.231,0.0,0.0,0.0,0.0,0.0,0.0,0.0,0.0,0.0,0.0,0.0,0.0,0.0,0.0,0.0,0.0,0.0,0.0,0.0,0.0,0.0,0.0,0.0,0.0,0.0,0.0,0.0,0.0,0.0,0.0,0.0,0.0,0.0,0.0,0.0,0.0,0.0,0.0,0.0,0.0,0.0,0.0,-0.5936,-0.6191,0.0,0.0,0.0,-0.8836,-0.9786,0.0,0.0,0.0,0.0,0.0,0.0,0.0,0.0,0.0,0.0,0.0,0.0,0.0,0.0,0.0,0.0,0.0,0.0,0.0,0.0,0.0,0.0,0.0,0.0,0.0,0.0,0.0,0.0,0.0,0.0,0.0,0.0,0.0,0.0,0.0,0.0,0.0,0.0,0.0,0.0,0.0,0.0,0.0,0.0,0.0,0.0,0.0,0.0,0.0,0.0,0.0,0.0,0.0,0.0,0.0,0.0,0.0,-0.5888,-0.5724,-0.5706,-0.5832,-0.6595,-0.7345,-0.8193,-0.9698,0.0,0.0,0.0,0.0,0.0,0.0,0.0,0.0,0.0,0.0,0.0,0.0,0.0,0.0,0.0,0.0,0.0,0.0,0.0,0.0,0.0,0.0,0.0,0.0,0.0,0.0,0.0,-0.9752,0.0,0.0,0.0,0.0,0.0,0.0,0.0,0.0,0.0,0.0,0.0,0.0,0.0,0.0,-0.4525,-0.4535,-0.4816,-0.5238,0.0,0.0,-0.7537,-0.8739,-0.8745,-0.8837,0.0,0.0,0.0,0.0,0.0,0.0,0.0,0.0,0.0,0.0,0.0,0.0,0.0,0.0,0.0,0.0,0.0,0.0,0.0,0.0,0.0,0.0,0.0,0.0,0.0,0.0,0.0,0.0,0.0,0.0,0.0,0.0,0.0,0.0,0.0,0.0,0.0,0.0,0.0,0.0,0.0,0.0,0.0,0.0,0.0,0.0,0.0,0.0,0.0,0.0,0.0,0.0,0.0,0.0,0.0,-0.5885,-0.5603,-0.5516,-0.5698,-0.6043,-0.6787,-0.7838,-0.8681,-1.0172,0.0,0.0,0.0,0.0,0.0,0.0,0.0,0.0,0.0,0.0,0.0,0.0,0.0,0.0,0.0,0.0,0.0,0.0,0.0,0.0,0.0,0.0,0.0,0.0,0.0,0.0,0.0,0.0,0.0,0.0,0.0,0.0,0.0,0.0,0.0,0.0,0.0,0.0,0.0,0.0,0.0,-0.3914,-0.3294,-0.3923,-0.4326,0.0,0.0,-0.6186,-0.6422,-0.6671,-0.719,-0.8371,0.0,0.0,0.0,0.0,0.0,0.0,0.0,0.0,0.0,0.0,0.0,0.0,0.0,0.0,0.0,0.0,0.0,0.0,0.0,0.0,0.0,0.0,0.0,0.0,0.0,0.0,0.0,0.0,0.0,0.0,0.0,0.0,0.0,0.0,0.0,0.0,0.0,0.0,0.0,0.0,0.0,0.0,0.0,0.0,0.0,0.0,0.0,0.0,0.0,0.0,0.0,0.0,0.0,-0.5355,-0.5418,-0.4991,-0.4934,-0.5181,-0.5273,-0.5889,-0.7231,-0.8117,-0.9234,0.0,0.0,0.0,0.0,0.0,0.0,0.0,0.0,0.0,0.0,0.0,0.0,0.0,0.0,0.0,0.0,0.0,0.0,0.0,0.0,0.0,0.0,0.0,0.0,0.0,0.0,0.0,0.0,-0.6598,-0.582,-0.5123,0.0,0.0,0.0,0.0,0.0,0.0,0.0,0.0,0.0,0.0,-0.2689,-0.2457,-0.2757,0.0,0.0,-0.4442,-0.5419,-0.5759,-0.6363,-0.6809,-0.7013,-0.7071,0.0,0.0,0.0,0.0,0.0,0.0,0.0,0.0,0.0,0.0,0.0,0.0,0.0,0.0,0.0,0.0,0.0,0.0,0.0,0.0,0.0,0.0,0.0,0.0,0.0,0.0,0.0,0.0,0.0,0.0,0.0,0.0,0.0,0.0,0.0,0.0,0.0,0.0,0.0,0.0,0.0,0.0,0.0,0.0,0.0,0.0,0.0,0.0,0.0,0.0,0.0,0.0,-0.4982,-0.502,-0.4581,-0.4445,-0.4729,-0.4663,-0.5297,-0.6657,-0.749,-0.8378,0.0,0.0,0.0,0.0,0.0,0.0,0.0,0.0,0.0,0.0,0.0,0.0,0.0,0.0,0.0,0.0,0.0,0.0,0.0,0.0,0.0,0.0,0.0,0.0,0.0,0.0,0.0,0.0,-0.5703,-0.4763,-0.4138,0.0,0.0,0.0,0.0,0.0,0.0,0.0,0.0,0.0,0.0,-0.155,-0.1425,-0.179,-0.2145,-0.2495,-0.3598,-0.4677,-0.5223,-0.5884,-0.6271,-0.6041,0.0,0.0,0.0,0.0,0.0,0.0,0.0,0.0,0.0,0.0,0.0,0.0,0.0,0.0,0.0,0.0,0.0,0.0,0.0,0.0,0.0,0.0,0.0,0.0,0.0,0.0,0.0,0.0,0.0,0.0,-0.6732,0.0,0.0,0.0,0.0,0.0,0.0,0.0,0.0,0.0,0.0,0.0,0.0,0.0,0.0,0.0,0.0,0.0,0.0,0.0,0.0,0.0,0.0,-0.4696,-0.4818,-0.4375,-0.4234,-0.4406,-0.4444,-0.5069,-0.6154,-0.6657,-0.758,-0.8969,0.0,0.0,0.0,0.0,0.0,0.0,0.0,0.0,0.0,0.0,0.0,0.0,0.0,0.0,0.0,0.0,0.0,0.0,0.0,0.0,0.0,0.0,0.0,0.0,0.0,0.0,-0.6263,-0.5026,-0.4144,0.0,0.0,0.0,0.0,0.0,0.0,0.0,0.0,0.0,0.0,-0.0294,-0.0476,-0.0123,-0.0923,-0.1535,-0.1474,-0.2706,-0.3935,-0.4501,-0.484,-0.5213,0.0,0.0,0.0,0.0,0.0,0.0,0.0,0.0,0.0,0.0,0.0,0.0,0.0,0.0,0.0,0.0,0.0,0.0,0.0,0.0,0.0,0.0,0.0,0.0,0.0,0.0,0.0,-0.7451,-0.7022,0.0,0.0,0.0,0.0,0.0,0.0,0.0,0.0,0.0,0.0,0.0,-0.4243,-0.4003,0.0,0.0,0.0,0.0,0.0,0.0,0.0,0.0,0.0,0.0,0.0,0.0,-0.4397,-0.449,-0.3903,-0.3776,-0.4107,-0.4002,-0.4625,-0.6036,-0.6498,-0.7522,-0.9194,0.0,0.0,0.0,0.0,0.0,0.0,0.0,0.0,0.0,0.0,0.0,0.0,0.0,0.0,0.0,0.0,0.0,0.0,0.0,0.0,0.0,0.0,0.0,0.0,0.0,-0.5555,0.0,0.0,0.0,0.0,0.0,0.0,0.0,0.0,0.0,0.0,0.0,0.0059,0.0236,0.018,0.0122,0.0,-0.0309,-0.0555,0.0,0.0,0.0,0.0,0.0,0.0,0.0,0.0,0.0,0.0,0.0,0.0,0.0,0.0,-0.6476,-0.6038,-0.6181,-0.6278,-0.628,0.0,0.0,0.0,0.0,0.0,0.0,0.0,0.0,0.0,0.0,0.0,0.0,0.0,0.0,-0.6645,0.0,-0.6129,0.0,0.0,0.0,0.0,0.0,0.0,0.0,0.0,-0.4164,-0.3992,-0.3856,-0.3685,-0.3563,0.0,-0.3658,-0.3793,0.0,0.0,0.0,0.0,0.0,0.0,0.0,0.0,-0.3971,-0.4105,-0.3543,-0.3425,-0.3751,-0.3645,-0.4184,-0.5433,-0.6221,-0.7202,-0.8375,-0.8917,-0.9082,0.0,0.0,0.0,0.0,0.0,0.0,0.0,0.0,0.0,0.0,0.0,0.0,0.0,0.0,0.0,0.0,0.0,0.0,0.0,0.0,0.0,0.0,0.0,-0.4632,0.0,0.0,0.0,0.0,0.0,0.0,0.0,0.0,0.0,-0.0728,0.0,0.0477,0.0531,0.055,0.0502,0.0314,0.0,0.0,0.0,0.0,0.0,0.0,0.0,-0.3848,-0.4593,-0.4709,-0.4569,-0.4232,-0.469,-0.5261,-0.5497,0.0,0.0,-0.5829,-0.5887,-0.5969,-0.5908,-0.6155,-0.6347,-0.6094,-0.6173,-0.6341,0.0,0.0,0.0,0.0,0.0,0.0,0.0,0.0,-0.6272,-0.6163,0.0,-0.5614,0.0,0.0,0.0,0.0,0.0,0.0,0.0,0.0,-0.3629,-0.3496,-0.3482,-0.3197,-0.3087,-0.3079,-0.2997,-0.2937,-0.2819,-0.3462,0.0,0.0,0.0,0.0,0.0,0.0,-0.3392,-0.358,-0.3231,-0.3124,-0.3278,-0.3473,-0.3852,-0.4443,-0.5819,-0.6594,-0.6694,-0.7751,-0.8391,-0.8457,-0.9213,0.0,0.0,0.0,0.0,0.0,0.0,0.0,0.0,0.0,0.0,0.0,0.0,0.0,0.0,0.0,0.0,0.0,0.0,0.0,0.0,-0.4574,0.0,0.0,0.0,0.0,0.0,0.0,0.0,0.0,0.0,0.0,-0.0112,0.0415,0.0855,0.089,0.0,0.0,0.0,0.0,0.0,0.0,-0.0603,-0.1403,-0.2466,-0.2738,-0.3044,-0.3832,0.0,0.0,-0.3367,-0.4091,-0.4676,-0.4539,-0.5114,-0.574,-0.6116,-0.5981,-0.5828,-0.5694,-0.5443,-0.51,-0.5013,-0.4962,-0.4912,-0.6063,0.0,0.0,0.0,0.0,-0.6823,-0.6392,-0.5822,-0.5686,-0.5456,-0.5205,-0.5067,0.0,0.0,0.0,0.0,0.0,0.0,-0.3961,-0.3629,-0.3295,-0.3057,-0.2866,-0.2521,-0.2423,-0.2373,-0.2352,-0.2263,-0.2174,-0.2355,-0.2642,-0.3046,0.0,0.0,0.0,0.0,-0.2789,-0.3064,-0.2815,-0.2811,-0.3119,-0.3095,-0.3688,-0.4831,-0.5706,-0.6445,-0.7089,-0.7267,-0.7374,-0.7506,-0.7499,0.0,0.0,0.0,0.0,0.0,0.0,0.0,0.0,0.0,0.0,0.0,0.0,0.0,0.0,0.0,0.0,0.0,0.0,0.0,-0.3953,-0.3572,-0.3186,0.0,0.0,0.0,0.0,0.0,0.0,0.0,0.0,0.0,0.0785,0.101,0.1109,0.0,0.0,0.0931,0.0799,0.0654,0.0518,0.0392,0.0,0.0,0.0,-0.1846,-0.2303,-0.3317,-0.3445,-0.3443,-0.3294,-0.4019,-0.4562,-0.4516,-0.5103,-0.573,-0.5821,-0.5664,-0.5512,-0.5508,-0.5206,-0.4931,-0.4779,-0.4663,-0.4793,-0.3815,-0.4574,-0.5847,-0.6165,-0.5688,-0.5887,-0.5706,-0.5163,-0.5093,-0.4945,-0.4653,-0.455,-0.4414,-0.4323,-0.4281,0.0,0.0,0.0,-0.3563,-0.3159,-0.2922,-0.2683,-0.238,-0.2139,-0.2033,-0.1996,-0.1971,-0.1894,-0.1707,-0.1684,-0.1836,-0.2233,0.0,0.0,-0.2519,-0.23,-0.2262,-0.2461,-0.2334,-0.235,-0.2571,-0.2689,-0.3188,-0.4226,-0.505,-0.5714,-0.6268,-0.649,-0.6652,-0.6756,-0.6593,-0.6642,0.0,0.0,0.0,0.0,0.0,0.0,0.0,0.0,0.0,0.0,0.0,-0.6401,0.0,0.0,0.0,0.0,-0.431,-0.3624,-0.2901,-0.2569,0.0,0.0,0.0,0.0,0.0,0.0,0.0,0.0403,0.0679,0.0952,0.1404,0.1411,0.1334,0.1274,0.1276,0.119,0.1059,0.0,0.1033,0.0903,0.0755,0.037,-0.0738,-0.102,-0.1474,-0.2547,-0.2689,-0.2711,-0.2709,-0.328,-0.3735,-0.4032,-0.4548,-0.5097,-0.5403,-0.5264,-0.5146,-0.5146,-0.4951,-0.466,-0.4458,-0.436,-0.4629,-0.1739,-0.1954,-0.381,-0.444,-0.4239,-0.47,-0.4834,-0.4694,-0.4492,-0.4419,-0.4378,-0.4071,-0.3881,-0.3827,-0.3734,0.0,0.0,-0.3431,-0.3159,-0.2684,-0.2543,-0.2378,-0.2049,-0.1877,-0.182,-0.1814,-0.1759,-0.1593,-0.1347,-0.1253,-0.1197,-0.1173,-0.1478,-0.1788,-0.2008,-0.1788,-0.1761,-0.1814,-0.1762,-0.1734,-0.179,-0.2184,-0.2575,-0.2905,-0.4012,-0.4615,-0.4728,-0.5605,-0.6095,-0.6154,-0.6213,-0.6213,-0.6154,0.0,0.0,0.0,0.0,0.0,0.0,0.0,0.0,0.0,0.0,0.0,0.0,0.0,0.0,0.0,-0.318,0.0,-0.2071,-0.1566,0.0,0.0,0.0,-0.0783,0.0,0.0112,0.0503,0.1515,0.0,0.0,0.0,0.0,0.1643,0.1527,0.1488,0.148,0.1477,0.1476,0.1475,0.1461,0.1304,0.0852,-0.018,-0.047,-0.0915,-0.1729,-0.1777,-0.1829,-0.1885,-0.2225,-0.272,-0.3144,-0.3608,-0.4154,-0.4741,-0.4718,-0.467,-0.4622,-0.4571,-0.4356,-0.412,-0.4067,-0.4429,-0.0609,-0.0514,-0.1383,-0.235,-0.3251,-0.3178,-0.3347,-0.3487,-0.2883,-0.2961,-0.3664,-0.3234,-0.3236,-0.3596,-0.3165,-0.2954,-0.2889,-0.2624,-0.2423,-0.2283,-0.1958,-0.1783,-0.1617,-0.1318,-0.1105,-0.1021,-0.0957,-0.0845,-0.0624,-0.062,-0.0619,-0.0624,-0.0675,-0.0904,-0.1147,-0.113,-0.1125,-0.1134,-0.1239,-0.14,-0.1623,-0.1846,-0.2237,-0.2738,-0.3458,-0.4119,-0.4673,-0.5117,-0.5395,-0.55,-0.5336,-0.5226,-0.5226,-0.5332,0.0,0.0,0.0,0.0,0.0,0.0,0.0,0.0,0.0,-0.4499,-0.4725,0.0,-0.3753,0.0,-0.2393,-0.1566,-0.0896,-0.0615,0.0,0.0,0.0504,0.0616,0.0952,0.1121,0.1346,0.1572,0.1685,0.1852,0.2074,0.2088,0.2154,0.2331,0.1895,0.1471,0.1441,0.1436,0.1472,0.141,0.1362,0.0931,0.0054,-0.0738,-0.1311,-0.1659,-0.171,-0.171,-0.1708,-0.2118,-0.2454,-0.2503,-0.313,-0.3641,-0.3707,-0.3935,-0.4116,-0.4076,-0.4149,-0.4243,-0.4048,-0.4158,-0.4502,0.0149,0.0218,-0.0071,-0.0697,-0.1442,-0.192,-0.231,-0.2412,-0.1944,-0.2012,-0.2484,-0.2284,-0.2487,-0.296,-0.2622,-0.2487,-0.2487,-0.2288,-0.2085,-0.1947,-0.1697,-0.1459,-0.1293,-0.0956,-0.0753,-0.0673,-0.0617,-0.0505,-0.0393,-0.0393,-0.0393,-0.0393,-0.0393,-0.0449,-0.0505,-0.0617,-0.0673,-0.0673,-0.0729,-0.0896,-0.1175,-0.1344,-0.1624,-0.2069,-0.2623,-0.3086,-0.3581,-0.3868,-0.4207,-0.4604,-0.4492,-0.4524,-0.4798,-0.4849,-0.4791,0.0,0.0,0.0,0.0,0.0,0.0,0.0,0.0,0.0,0.0,0.0,-0.3067,0.0,-0.151,0.0,-0.0336,0.0112,0.056,0.0954,0.1122,0.1234,0.1403,0.1515,0.1684,0.185,0.1962,0.2074,0.2354,0.241,0.2521,0.2693,0.2376,0.2092,0.2001,0.1995,0.197,0.1957,0.1814,0.1314,0.0406,-0.0403,-0.1009,-0.1262,-0.1262,-0.1211,-0.1312,-0.1383,-0.1597,-0.1876,-0.2443,-0.2987,-0.3129,-0.3451,-0.3714,-0.3721,-0.3755,-0.3849,-0.3948,-0.4084,-0.4379,0.066,0.0726,0.0627,0.0614,0.0542,-0.0677,-0.1283,-0.1408,-0.1279,-0.1211,-0.1207,-0.1411,-0.1816,-0.2221,-0.2018,-0.1951,-0.1951,-0.1816,-0.1614,-0.1478,-0.1241,-0.1017,-0.0806,-0.0599,-0.0522,-0.0508,-0.0393,-0.0393,-0.0336,-0.0336,-0.0336,-0.0336,-0.0336,-0.0168,0.0056,-0.0168,-0.028,-0.0336,-0.0336,-0.0449,-0.0617,-0.0729,-0.0898,-0.1178,-0.1626,-0.1935,-0.2047,-0.2399,-0.2863,-0.3566,-0.3611,-0.3838,-0.4391,-0.4436,-0.4426,0.0,-0.4181,0.0,0.0,0.0,0.0,0.0,0.0,0.0,0.0,-0.2503,-0.2164,-0.1673,-0.056,0.0056,0.0,0.0672,0.1122,0.1178,0.129,0.1459,0.1628,0.1684,0.185,0.2184,0.224,0.241,0.2689,0.2747,0.2747,0.2807,0.2868,0.2863,0.2861,0.27,0.2583,0.2793,0.2313,0.1558,0.0805,0.01,-0.0449,-0.0696,-0.0692,-0.0597,-0.0743,-0.0598,-0.0649,-0.1289,-0.1799,-0.2237,-0.2711,-0.3123,-0.3402,-0.3533,-0.3447,-0.3498,-0.3773,-0.3909,-0.4209,0.0984,0.1241,0.1329,0.1376,0.1463,0.1281,0.049,-0.0471,0.0413,0.0343,-0.0538,-0.1008,-0.1277,-0.1479,-0.0872,-0.0738,-0.0739,0.0335,0.0269,-0.0673,0.0522,0.0769,0.0318,0.0362,0.041,0.0465,0.0,-0.0168,-0.0056,-0.0056,-0.0056,0.0056,0.0112,0.0168,0.0336,0.0,0.0,0.0,-0.0112,-0.0224,-0.028,-0.0336,-0.0336,-0.0393,-0.0804,0.0,-0.1291,-0.1699,-0.2107,-0.2457,-0.2397,0.0,0.0,0.0,0.0,0.0,0.0,0.0,0.0,0.0,0.0,0.0,-0.2764,-0.2571,-0.2025,-0.1254,-0.0723,-0.0503,0.0168,0.0673,0.084,0.1066,0.1346,0.1459,0.1628,0.1796,0.2074,0.2074,0.224,0.2579,0.2635,0.2745,0.2965,0.3021,0.3132,0.3363,0.3434,0.3447,0.3449,0.3062,0.2762,0.2627,0.194,0.1309,0.1017,0.0241,-0.0382,-0.0465,-0.046,-0.0461,-0.0463,-0.0427,-0.0523,-0.0974,-0.1494,-0.194,-0.235,-0.2867,-0.3224,-0.3281,-0.3168,-0.3176,-0.3428,-0.3785,-0.4118,0.1435,0.0,0.1627,0.1672,0.0,0.1945,0.1637,0.096,0.1392,0.1172,0.047,0.0269,0.0134,0.0,0.0469,0.0604,0.0537,0.1273,0.1208,0.0604,0.1238,0.1338,0.1005,0.102,0.1106,0.1203,0.0958,0.0839,0.1008,0.1008,0.1064,0.1174,0.0895,0.084,0.0952,0.0673,0.0449,0.028,0.0168,0.0112,0.0112,0.0112,0.0056,0.0,0.0,0.0,0.0,0.0,0.0,0.0,0.0,0.0,0.0,0.0,0.0,-0.2764,-0.3026,-0.3079,-0.2764,-0.2759,-0.2332,-0.1328,-0.0917,-0.0817,-0.1091,-0.0333,0.0168,0.0336,0.0672,0.101,0.1178,0.1347,0.1459,0.1628,0.1852,0.2074,0.2184,0.2352,0.2575,0.2856,0.291,0.3023,0.3302,0.3408,0.3466,0.3688,0.3749,0.3802,0.3752,0.3401,0.3023,0.2731,0.2095,0.1482,0.1124,0.0463,-0.0185,-0.0361,-0.036,-0.036,-0.0405,-0.0275,-0.0322,-0.0811,-0.1298,-0.1754,-0.2239,-0.2668,-0.2981,-0.303,-0.2973,-0.2955,-0.326,-0.3615,-0.4006,0.1853,0.1886,0.2047,0.2019,0.2036,0.2388,0.2448,0.2377,0.0,0.0,0.0,0.1679,0.1679,0.1542,0.1743,0.1811,0.1811,0.2012,0.1944,0.1741,0.1887,0.1901,0.1854,0.1849,0.1853,0.1918,0.1906,0.1956,0.2014,0.2014,0.2124,0.2232,0.1786,0.1561,0.1663,0.1158,0.0771,0.0551,0.0443,0.0388,0.0441,0.0441,0.0386,0.0275,0.039,0.0454,0.035,0.047,0.0235,-0.0352,-0.0701,-0.0976,-0.1278,-0.1928,-0.2189,-0.1907,-0.2218,-0.2248,-0.1845,-0.1631,-0.1098,0.0,0.074,0.0762,-0.0056,0.0449,0.0841,0.0954,0.1066,0.1178,0.1346,0.1514,0.1684,0.1684,0.2073,0.2296,0.235,0.2577,0.2912,0.3132,0.3244,0.3299,0.3583,0.3744,0.3852,0.3852,0.391,0.4006,0.3935,0.3652,0.332,0.2902,0.2336,0.1817,0.1251,0.0638,0.0136,-0.018,-0.0135,-0.0135,-0.018,-0.009,-0.0225,-0.0851,-0.1165,-0.1591,-0.2189,-0.2525,-0.2705,-0.2873,-0.2841,-0.2871,-0.3196,-0.3519,-0.3897,0.2235,0.2401,0.2878,0.3072,0.3094,0.3316,0.3293,0.3149,0.2936,0.256,0.2214,0.2281,0.2281,0.2281,0.2614,0.2681,0.2619,0.3491,0.3355,0.0,0.3389,0.3656,0.3246,0.3071,0.3038,0.3018,0.2431,0.212,0.2176,0.2174,0.2287,0.2456,0.2456,0.2313,0.2033,0.1818,0.1534,0.1077,0.0633,0.0423,0.0513,0.0563,0.0563,0.0565,0.0707,0.0787,0.0791,0.0986,0.0943,0.0706,0.0745,0.0556,0.0161,-0.0104,-0.0252,-0.0537,-0.0661,-0.0713,-0.0657,-0.0609,-0.0313,0.0275,0.0944,0.1173,0.0953,0.1122,0.1234,0.1234,0.129,0.1347,0.1515,0.1794,0.2017,0.213,0.241,0.2689,0.291,0.3019,0.3188,0.3469,0.3633,0.3685,0.3741,0.3855,0.3965,0.3965,0.4006,0.3975,0.3874,0.3794,0.3567,0.3104,0.2462,0.1833,0.1373,0.0756,0.0418,0.0316,0.027,0.027,0.0225,0.0225,-0.0045,-0.0895,-0.112,-0.1527,-0.2262,-0.2474,-0.2525,-0.2616,-0.2688,-0.2945,-0.3263,-0.3571,-0.378,0.2865,0.2958,0.3207,0.3334,0.3299,0.3591,0.3761,0.3837,0.3717,0.3491,0.3155,0.3153,0.3288,0.3424,0.3754,0.382,0.3756,0.4295,0.4225,0.3744,0.4168,0.4202,0.3988,0.3765,0.3653,0.3648,0.3317,0.3236,0.3456,0.3456,0.3564,0.3782,0.3452,0.2934,0.2425,0.228,0.2188,0.2001,0.1217,0.0821,0.0908,0.0908,0.0908,0.0908,0.0991,0.1061,0.1061,0.1132,0.114,0.1086,0.0855,0.0789,0.0828,0.0305,0.005,0.0,-0.0242,-0.0291,-0.005,0.0411,0.0797,0.1117,0.1569,0.1794,0.1681,0.1458,0.1401,0.1625,0.1681,0.1849,0.2132,0.2298,0.241,0.2465,0.2742,0.2965,0.3074,0.3352,0.3574,0.3688,0.3799,0.3907,0.3907,0.4021,0.4135,0.4132,0.4081,0.4078,0.3933,0.3849,0.3652,0.3296,0.2759,0.2207,0.167,0.1106,0.0732,0.045,0.0405,0.0405,0.036,0.027,-0.018,-0.0851,-0.1165,-0.1612,-0.2279,-0.2413,-0.2413,-0.2413,-0.2593,-0.2907,-0.3217,-0.3615,-0.3928,0.3461,0.3409,0.3566,0.3632,0.3567,0.3823,0.4107,0.4367,0.4367,0.4231,0.4025,0.3961,0.4161,0.4364,0.4561,0.4625,0.4691,0.4761,0.4812,0.4829,0.4534,0.4466,0.4474,0.4245,0.4132,0.4187,0.4187,0.4353,0.457,0.457,0.4718,0.4776,0.4207,0.3544,0.2876,0.2849,0.2747,0.2583,0.1836,0.1473,0.1523,0.1424,0.1376,0.1327,0.1239,0.1246,0.1245,0.1255,0.1262,0.1262,0.0958,0.0908,0.121,0.06,0.0299,0.0498,0.0247,0.0198,0.0706,0.1356,0.1786,0.2014,0.2186,0.2296,0.2296,0.1959,0.1849,0.2127,0.2184,0.2296,0.2579,0.2747,0.2802,0.2856,0.3079,0.3297,0.3352,0.3741,0.407,0.4073,0.4187,0.4239,0.4236,0.4216,0.4178,0.4129,0.4161,0.409,0.3992,0.386,0.3698,0.3423,0.2946,0.2316,0.1796,0.13,0.0853,0.0494,0.045,0.0494,0.045,0.0225,-0.0135,-0.0582,-0.103,-0.1433,-0.1878,-0.2103,-0.2146,-0.2235,-0.2504,-0.2821,-0.3347,-0.366,-0.402,0.3785,0.3857,0.4227,0.441,0.4381,0.4292,0.4378,0.4558,0.4558,0.4628,0.4628,0.4561,0.4558,0.4561,0.4761,0.4761,0.4755,0.4761,0.4829,0.4897,0.468,0.46,0.4653,0.4657,0.4632,0.4632,0.4736,0.4791,0.4846,0.4838,0.4873,0.4887,0.4618,0.4206,0.3718,0.3585,0.3152,0.2382,0.2256,0.2303,0.2525,0.2168,0.1896,0.1761,0.1456,0.1292,0.1294,0.1337,0.1412,0.1565,0.1511,0.1512,0.1558,0.1416,0.1341,0.1387,0.1297,0.1448,0.1899,0.2241,0.2427,0.2567,0.2633,0.2689,0.2745,0.2961,0.2959,0.2798,0.2689,0.2747,0.2691,0.2968,0.3244,0.3469,0.3688,0.3796,0.3965,0.446,0.4787,0.4791,0.4948,0.4995,0.4863,0.4499,0.4164,0.405,0.4066,0.3985,0.389,0.3842,0.3773,0.3542,0.2876,0.2115,0.1655,0.1076,0.0943,0.0764,0.0719,0.0719,0.0674,0.0584,0.0449,-0.0179,-0.0447,-0.0895,-0.1253,-0.1433,-0.1791,-0.2146,-0.2502,-0.2951,-0.3571,-0.3788,-0.388,0.4489,0.4289,0.4339,0.4463,0.4524,0.455,0.4631,0.4694,0.4694,0.4761,0.4827,0.4891,0.4824,0.4761,0.4891,0.4916,0.4844,0.4968,0.5018,0.4996,0.479,0.4803,0.4908,0.4811,0.4794,0.4849,0.4846,0.4956,0.4995,0.5023,0.4888,0.4685,0.4542,0.4377,0.4119,0.4043,0.3829,0.3517,0.3565,0.3656,0.3609,0.2499,0.1923,0.1925,0.1638,0.1426,0.138,0.1403,0.1507,0.1696,0.1698,0.1792,0.1886,0.1857,0.184,0.1837,0.1813,0.193,0.2134,0.2321,0.2615,0.2981,0.3209,0.3519,0.3953,0.4284,0.4505,0.4508,0.4073,0.3855,0.4181,0.4346,0.4508,0.4787,0.4952,0.5007,0.5062,0.5332,0.5546,0.555,0.566,0.5554,0.512,0.4562,0.421,0.4021,0.4034,0.4066,0.3876,0.3889,0.3864,0.3718,0.3167,0.2765,0.2457,0.2326,0.1925,0.1521,0.1343,0.1298,0.0942,0.0718,0.0448,0.0045,-0.0313,-0.0716,-0.121,-0.1566,-0.1967,-0.2233,-0.2724,-0.3262,-0.3792,-0.3788,-0.3877,0.4891,0.4613,0.4528,0.4467,0.4638,0.4772,0.4831,0.4894,0.4894,0.4942,0.4973,0.5098,0.5078,0.4987,0.5081,0.5087,0.4965,0.5137,0.5174,0.5086,0.4914,0.4959,0.5015,0.496,0.4901,0.4948,0.4961,0.4973,0.5042,0.508,0.4897,0.4597,0.4544,0.4496,0.438,0.4399,0.436,0.4228,0.432,0.4368,0.4188,0.3037,0.2413,0.2541,0.2277,0.201,0.1921,0.1876,0.1967,0.2192,0.219,0.2192,0.2284,0.2239,0.2196,0.2109,0.2152,0.2238,0.2371,0.2563,0.2965,0.3545,0.3938,0.4401,0.4995,0.5437,0.5714,0.5823,0.55,0.5336,0.5117,0.5336,0.5496,0.5609,0.5714,0.5823,0.5882,0.6095,0.6312,0.6308,0.6372,0.6153,0.5388,0.4844,0.4522,0.4372,0.4421,0.4302,0.4135,0.4104,0.4104,0.3972,0.366,0.335,0.3129,0.2771,0.2499,0.201,0.1609,0.1431,0.1208,0.0895,0.0537,0.0269,-0.0224,-0.0582,-0.0896,-0.1389,-0.2142,-0.241,-0.2898,-0.348,-0.3751,-0.3723,-0.394,0.4761,0.4824,0.4821,0.4804,0.4635,0.4832,0.4954,0.5203,0.5137,0.5205,0.5407,0.5467,0.5384,0.5448,0.545,0.5314,0.5114,0.529,0.5322,0.5169,0.5085,0.5004,0.4916,0.5014,0.5124,0.5222,0.5259,0.5139,0.4919,0.5038,0.4943,0.473,0.4705,0.4666,0.4596,0.4574,0.4443,0.418,0.418,0.418,0.4092,0.3737,0.3605,0.3734,0.347,0.3158,0.3067,0.3111,0.3111,0.3111,0.307,0.2937,0.2719,0.2674,0.2502,0.2241,0.2373,0.2642,0.289,0.3199,0.372,0.4473,0.4793,0.5117,0.5764,0.6145,0.6362,0.6411,0.6691,0.6372,0.5391,0.5664,0.5769,0.5492,0.5764,0.6091,0.6204,0.6756,0.7025,0.702,0.6983,0.6566,0.574,0.5462,0.5175,0.5016,0.512,0.5024,0.4587,0.4487,0.436,0.4148,0.3972,0.3751,0.2951,0.2768,0.2233,0.1743,0.1654,0.1387,0.1298,0.112,0.085,0.0536,0.0088,-0.0265,-0.0536,-0.1119,-0.2051,-0.2578,-0.3102,-0.3548,-0.3738,-0.3814,-0.4045,0.6465,0.625,0.6424,0.6427,0.6459,0.6396,0.6485,0.6591,0.6412,0.6458,0.6463,0.6454,0.6469,0.6343,0.6474,0.6003,0.5181,0.5181,0.5385,0.5561,0.5194,0.5436,0.6273,0.6376,0.6376,0.6367,0.6348,0.6226,0.5931,0.5876,0.5644,0.5266,0.5119,0.4944,0.4762,0.4618,0.4526,0.4443,0.4487,0.4578,0.4535,0.4495,0.4539,0.4535,0.3822,0.3334,0.3199,0.3199,0.329,0.3426,0.3205,0.3123,0.3123,0.317,0.3258,0.348,0.3612,0.3769,0.398,0.4351,0.4775,0.5344,0.5694,0.6145,0.6756,0.7025,0.7187,0.7348,0.7461,0.7133,0.6647,0.6647,0.6912,0.6912,0.7079,0.7182,0.73,0.7521,0.7681,0.7688,0.731,0.669,0.6229,0.5757,0.5321,0.499,0.5053,0.4918,0.4574,0.4399,0.4403,0.4276,0.4232,0.4012,0.3483,0.3208,0.2851,0.2233,0.1876,0.1654,0.152,0.1166,0.0812,0.0479,0.0173,-0.038,-0.085,-0.1587,-0.2368,-0.2988,-0.3463,-0.3521,-0.3768,-0.3793,-0.4064,0.7356,0.7088,0.7326,0.7414,0.7414,0.7417,0.7345,0.7328,0.7185,0.7087,0.7091,0.714,0.7014,0.6997,0.7032,0.6646,0.5801,0.5745,0.5956,0.6332,0.5923,0.6303,0.7025,0.7306,0.73,0.7224,0.71,0.6866,0.6516,0.6366,0.6119,0.5723,0.5615,0.548,0.5313,0.5221,0.5178,0.5135,0.514,0.5101,0.5101,0.5067,0.5029,0.4898,0.4272,0.3869,0.3774,0.3774,0.3869,0.4008,0.3829,0.3785,0.3921,0.3836,0.3965,0.436,0.4399,0.4487,0.4657,0.5021,0.5487,0.5995,0.6374,0.6907,0.7574,0.7628,0.7735,0.7848,0.7901,0.7741,0.7574,0.7628,0.7687,0.7741,0.7848,0.7955,0.8008,0.8062,0.8066,0.7976,0.7492,0.6984,0.6647,0.6261,0.5869,0.5491,0.5572,0.5437,0.5048,0.4831,0.4661,0.453,0.436,0.4096,0.3697,0.3473,0.3161,0.2586,0.2144,0.1875,0.1526,0.1174,0.0782,0.042,-0.0083,-0.065,-0.1332,-0.2084,-0.2708,-0.3288,-0.3364,-0.3357,-0.3544,-0.3691,-0.4031,0.7286,0.734,0.7424,0.7609,0.7571,0.7649,0.7431,0.7315,0.7269,0.7307,0.7327,0.7198,0.7311,0.7193,0.7339,0.7155,0.7112,0.7117,0.7106,0.7133,0.7311,0.7359,0.745,0.7854,0.7854,0.7635,0.7235,0.6919,0.6683,0.6549,0.6357,0.6263,0.6221,0.6167,0.6252,0.6161,0.6204,0.6118,0.5867,0.5739,0.5658,0.5404,0.5193,0.5072,0.4941,0.4893,0.4941,0.4898,0.4893,0.498,0.5067,0.5193,0.4923,0.4705,0.4618,0.4661,0.4661,0.47,0.4912,0.5297,0.5878,0.6433,0.6862,0.7354,0.7735,0.7848,0.7901,0.7901,0.7955,0.7955,0.8162,0.8215,0.8002,0.7359,0.7842,0.8168,0.8215,0.8321,0.8266,0.7961,0.7664,0.7393,0.716,0.6874,0.666,0.6562,0.6598,0.6465,0.5947,0.5567,0.5389,0.5005,0.4578,0.4184,0.3917,0.3605,0.3249,0.2849,0.2408,0.2091,0.1617,0.1184,0.0715,0.032,-0.0437,-0.1047,-0.1738,-0.2387,-0.264,-0.3079,-0.3102,-0.3275,-0.3524,-0.3754,-0.3944,0.916,0.9101,0.9178,0.9184,0.9059,0.8902,0.8703,0.85,0.833,0.8245,0.8292,0.828,0.829,0.8281,0.8368,0.8368,0.8421,0.8468,0.8296,0.7865,0.7818,0.8084,0.8521,0.8804,0.8857,0.8645,0.822,0.7997,0.7815,0.7456,0.715,0.6927,0.6816,0.6641,0.6471,0.6337,0.6289,0.6289,0.6209,0.6039,0.5787,0.5787,0.5572,0.5241,0.5203,0.5246,0.5323,0.5285,0.529,0.5458,0.5231,0.5053,0.5009,0.4966,0.5145,0.5491,0.5577,0.5669,0.594,0.6314,0.6696,0.7048,0.739,0.77,0.7848,0.7955,0.8002,0.8109,0.8115,0.8275,0.8745,0.8903,0.8685,0.8049,0.8215,0.8374,0.848,0.8474,0.8391,0.8081,0.7853,0.7668,0.7418,0.7158,0.6907,0.6683,0.6634,0.6465,0.5996,0.569,0.5221,0.4961,0.4578,0.4403,0.4308,0.4046,0.3612,0.3069,0.2605,0.2074,0.1612,0.1057,0.0611,0.0,-0.075,-0.1417,-0.212,-0.2572,-0.2775,-0.2954,-0.3137,-0.3365,-0.3646,-0.4059,-0.4599,0.9643,0.9643,0.9704,0.9667,0.961,0.942,0.9233,0.9078,0.8938,0.8857,0.8857,0.891,0.8956,0.8962,0.9061,0.9061,0.9106,0.9204,0.904,0.8606,0.8442,0.8712,0.9263,0.9427,0.9427,0.9283,0.8954,0.8699,0.8555,0.8114,0.7709,0.7398,0.7363,0.7356,0.7189,0.7021,0.693,0.7049,0.6803,0.6513,0.6301,0.6252,0.6081,0.5798,0.5793,0.5879,0.6044,0.5964,0.5841,0.5717,0.5496,0.5404,0.5491,0.5583,0.5755,0.6062,0.6276,0.6404,0.6624,0.7064,0.748,0.7628,0.7955,0.8312,0.8442,0.8527,0.8633,0.8837,0.9033,0.928,0.971,0.9953,0.9843,0.9629,0.9287,0.9138,0.9145,0.919,0.9024,0.8757,0.8535,0.8243,0.7859,0.7645,0.7356,0.7098,0.7049,0.6881,0.6501,0.607,0.5771,0.5475,0.5221,0.5048,0.4826,0.4491,0.4009,0.3396,0.2743,0.2132,0.1595,0.0923,0.0351,-0.0462,-0.1207,-0.1589,-0.2218,-0.2574,-0.2839,-0.3011,-0.3265,-0.3851,-0.4368,-0.5368,-0.6072,0.9174,0.9161,0.9279,0.943,0.9452,0.9369,0.9268,0.9049,0.9061,0.9159,0.9211,0.9361,0.9361,0.9309,0.9458,0.9465,0.9361,0.9562,0.9666,0.9562,0.9406,0.951,0.9666,0.9725,0.9688,0.9643,0.9455,0.9149,0.8813,0.8557,0.812,0.79,0.7995,0.8118,0.8275,0.8118,0.8111,0.8226,0.7697,0.7321,0.7182,0.7014,0.6803,0.6634,0.6761,0.6888,0.7056,0.7056,0.6683,0.597,0.6062,0.619,0.6367,0.6453,0.6453,0.6496,0.6745,0.6914,0.7094,0.751,0.8032,0.8407,0.8727,0.9019,0.9592,0.9703,0.9755,1.0005,1.0289,1.0645,1.0855,1.1149,1.1382,1.1571,1.0788,1.0356,1.0407,1.0415,1.0053,0.9613,0.9444,0.9159,0.848,0.8338,0.8193,0.8226,0.8144,0.7855,0.7592,0.7078,0.6826,0.6404,0.5984,0.5637,0.546,0.4871,0.4431,0.3821,0.3124,0.243,0.1569,0.0807,-0.0105,-0.0911,-0.1464,-0.1853,-0.2273,-0.2685,-0.2909,-0.3057,-0.3617,-0.4398,-0.5433,-0.6533,-0.7763,1.0681,1.0688,1.0744,1.0705,1.0539,1.0206,1.0113,1.019,0.9865,0.9961,1.0261,1.0364,1.0312,1.0364,1.0466,1.0517,1.0517,1.0635,1.0736,1.0744,1.0694,1.0694,1.0643,1.0328,1.0237,1.0311,1.0238,1.0034,0.9421,0.927,0.9123,0.883,0.8773,0.8814,0.8854,0.8854,0.8895,0.9007,0.8878,0.8578,0.835,0.8317,0.8195,0.7852,0.7852,0.7934,0.8113,0.8146,0.7743,0.693,0.6943,0.6992,0.7021,0.7118,0.716,0.716,0.7245,0.744,0.7734,0.8089,0.8639,0.9418,0.9761,1.0156,1.0697,1.0788,1.0889,1.1032,1.1182,1.1481,1.1904,1.215,1.2483,1.2966,1.2143,1.1355,1.129,1.099,1.0731,1.0496,0.9905,0.9501,0.9232,0.8848,0.8561,0.8667,0.8594,0.839,0.8252,0.8031,0.7728,0.7203,0.6784,0.6349,0.5922,0.5365,0.4805,0.4288,0.361,0.2862,0.1823,0.0768,-0.034,-0.1444,-0.1677,-0.2018,-0.2498,-0.297,-0.3083,-0.3267,-0.4145,-0.509,-0.6642,-0.7936,-0.9342,1.0926,1.0926,1.0988,1.0969,1.0882,1.0627,1.0597,1.0744,1.0568,1.0559,1.0872,1.0931,1.0981,1.0981,1.1032,1.1082,1.1133,1.1475,1.1616,1.1639,1.1567,1.1447,1.1197,1.0772,1.0647,1.0724,1.0608,1.0165,0.9692,0.9683,0.9484,0.9238,0.9217,0.9288,0.9496,0.9377,0.9448,0.9487,0.9399,0.9191,0.9013,0.9142,0.9062,0.8835,0.8835,0.8947,0.9187,0.9415,0.901,0.8105,0.7874,0.7882,0.7784,0.7833,0.7923,0.7931,0.8088,0.8325,0.8578,0.8964,0.9595,1.0308,1.0821,1.149,1.2054,1.2301,1.2513,1.2763,1.2859,1.3175,1.348,1.3726,1.41,1.4459,1.3676,1.2889,1.2619,1.2061,1.1628,1.1214,1.0686,1.0082,1.0095,0.9587,0.9457,0.95,0.954,0.9301,0.9053,0.8876,0.8721,0.8415,0.8206,0.7972,0.7606,0.7057,0.6547,0.5879,0.469,0.3838,0.2355,0.107,-0.0354,-0.1295,-0.1724,-0.2371,-0.3149,-0.3611,-0.3551,-0.4003,-0.4865,-0.6418,-0.8185,-0.9804,-1.116,1.0618,1.0677,1.0771,1.0821,1.0889,1.0872,1.1049,1.1074,1.1124,1.1174,1.1325,1.1392,1.1642,1.1451,1.1873,1.1633,1.1733,1.2385,1.2406,1.2426,1.2307,1.2155,1.173,1.1253,1.1111,1.1168,1.0597,1.0346,1.0224,0.9983,0.9798,0.9839,0.9737,0.9864,1.0225,1.003,0.9991,1.0215,1.0089,0.9933,0.9884,0.9972,1.0001,1.0001,0.9992,1.0264,1.0603,1.0871,1.0572,0.9293,0.8987,0.8924,0.8941,0.8967,0.9007,0.9189,0.9555,0.9824,0.9783,1.04,1.0952,1.1511,1.2287,1.2945,1.3499,1.4048,1.4518,1.4597,1.5151,1.525,1.5416,1.576,1.6053,1.6095,1.5556,1.4967,1.4295,1.339,1.2614,1.217,1.1716,1.1236,1.1033,1.0867,1.0847,1.1052,1.0951,1.077,1.0702,1.0698,1.0426,1.0021,0.9887,0.9772,0.9387,0.895,0.845,0.7817,0.6337,0.505,0.3208,0.1735,0.0077,-0.1122,-0.2009,-0.3225,-0.4495,-0.4629,-0.4639,-0.5828,-0.745,-0.8938,-1.0443,-1.1928,-1.3343,1.2058,1.2246,1.2166,1.2166,1.2166,1.1859,1.1959,1.2412,1.2067,1.2147,1.2501,1.288,1.3016,1.3074,1.3396,1.3784,1.3543,1.3793,1.3928,1.3416,1.3341,1.3118,1.2642,1.2078,1.1842,1.1849,1.2204,1.1921,1.1496,1.1488,1.1683,1.1276,1.1175,1.1335,1.1356,1.1308,1.142,1.1494,1.1457,1.1383,1.1372,1.1409,1.1457,1.1446,1.1505,1.1953,1.2551,1.2845,1.2896,1.2508,1.1421,1.0771,1.0954,1.1094,1.1123,1.1264,1.1683,1.1988,1.1958,1.2064,1.2519,1.3196,1.3789,1.4329,1.4641,1.5738,1.6181,1.617,1.6371,1.6754,1.7139,1.7505,1.7796,1.7879,1.7511,1.7024,1.6537,1.4768,1.3547,1.3287,1.2869,1.2603,1.2857,1.248,1.2468,1.2643,1.2525,1.2385,1.2428,1.2503,1.2273,1.1894,1.2066,1.2021,1.1676,1.1172,1.0532,0.9849,0.844,0.6934,0.5052,0.2324,0.0666,-0.1036,-0.2605,-0.4104,-0.6273,-0.6723,-0.6959,-0.8516,-0.9724,-1.0714,-1.1872,-1.3618,-1.4718,1.3084,1.3372,1.3324,1.3324,1.3382,1.3132,1.3218,1.3467,1.3276,1.3324,1.3573,1.3847,1.3978,1.4039,1.41,1.4115,1.4138,1.4213,1.4255,1.411,1.4075,1.3911,1.37,1.317,1.2834,1.2524,1.2524,1.2317,1.2139,1.2371,1.2396,1.2187,1.2295,1.2224,1.2175,1.2247,1.2175,1.2211,1.2294,1.2401,1.2531,1.259,1.2567,1.2733,1.2984,1.3541,1.3885,1.4541,1.4862,1.4797,1.4083,1.3372,1.327,1.338,1.3433,1.3531,1.3775,1.3828,1.363,1.3704,1.391,1.4158,1.5006,1.561,1.615,1.7188,1.7875,1.7903,1.8099,1.8398,1.9098,1.9479,1.9683,1.9341,1.9025,1.84,1.7396,1.5654,1.4419,1.4402,1.3986,1.3847,1.3845,1.3977,1.4032,1.4128,1.413,1.4014,1.4196,1.427,1.4226,1.4098,1.4335,1.4322,1.4027,1.3475,1.2716,1.1895,1.0785,0.935,0.7762,0.4498,0.1221,-0.0644,-0.2718,-0.6674,-0.8638,-0.8942,-0.8526,-0.9174,-1.0059,-1.1533,-1.265,-1.3392,-1.4397,1.3847,1.4107,1.4176,1.4222,1.4222,1.4258,1.4212,1.4247,1.4299,1.4109,1.4314,1.4348,1.4395,1.4417,1.4252,1.405,1.4148,1.4193,1.4551,1.4714,1.4596,1.4495,1.4341,1.4075,1.3745,1.3044,1.2926,1.2614,1.2637,1.274,1.3091,1.281,1.297,1.3098,1.2938,1.2869,1.296,1.3029,1.3051,1.3175,1.3398,1.3465,1.3529,1.4101,1.4371,1.5086,1.5579,1.6278,1.6803,1.6817,1.7076,1.6796,1.6313,1.5721,1.5755,1.5741,1.5882,1.5676,1.5254,1.5216,1.5117,1.4639,1.5806,1.6757,1.7355,1.8278,1.9146,1.9622,1.9844,2.0353,2.1248,2.1375,2.1212,2.0849,2.0376,1.9462,1.8323,1.7042,1.6594,1.5531,1.5416,1.5391,1.5453,1.5583,1.5609,1.5671,1.5659,1.5722,1.5927,1.6056,1.6044,1.6126,1.6337,1.6223,1.5904,1.5702,1.494,1.3902,1.2938,1.1694,1.0016,0.6323,0.2765,-0.0518,-0.331,-0.6469,-0.8261,-0.7796,-0.7882,-0.8938,-1.0091,-1.1236,-1.2146,-1.2965,-1.3571,1.4305,1.4571,1.4351,1.4305,1.4305,1.4294,1.4365,1.431,1.4337,1.4243,1.4304,1.4569,1.4691,1.471,1.5222,1.5388,1.5196,1.5114,1.5115,1.513,1.506,1.5004,1.4776,1.4808,1.4658,1.4483,1.4127,1.39,1.3881,1.4052,1.4025,1.3986,1.4038,1.4052,1.4019,1.4032,1.4063,1.4151,1.4215,1.4345,1.4519,1.4772,1.5307,1.6078,1.6285,1.6846,1.7894,1.8505,1.8933,1.9233,2.0036,2.0226,1.9624,1.8369,1.7768,1.7817,1.7876,1.7585,1.6984,1.6537,1.6314,1.6289,1.6849,1.744,1.8083,1.9168,2.0233,2.0934,2.1513,2.2207,2.3172,2.3052,2.2905,2.2728,2.2388,2.1891,2.141,2.056,1.9201,1.7671,1.7291,1.7086,1.7259,1.7455,1.77,1.7702,1.7629,1.7674,1.7814,1.7923,1.7962,1.8091,1.8289,1.8036,1.7728,1.7575,1.7103,1.5952,1.4938,1.3973,1.1718,0.7944,0.4529,0.29,-0.003,-0.3096,-0.4489,-0.5699,-0.6707,-0.7416,-0.9009,-1.0517,-1.0618,-1.0596,-1.0686,1.5119,1.5522,1.5377,1.5466,1.5564,1.5314,1.5238,1.5217,1.4943,1.4808,1.4972,1.5121,1.5208,1.5218,1.5322,1.5434,1.5345,1.5269,1.5156,1.5081,1.5258,1.5329,1.5227,1.536,1.5606,1.5664,1.5462,1.5032,1.4803,1.5059,1.5029,1.4968,1.5059,1.509,1.4984,1.5032,1.5123,1.5257,1.5389,1.559,1.5933,1.6311,1.728,1.8,1.8537,1.9061,1.9673,2.0424,2.0751,2.0961,2.1072,2.1278,2.1042,2.0381,1.9353,1.9475,1.9539,1.9164,1.8375,1.7797,1.7529,1.7263,1.7749,1.8551,1.9378,2.0463,2.1482,2.2318,2.2862,2.3578,2.4388,2.4353,2.4276,2.3992,2.3776,2.3323,2.2697,2.2279,2.1163,1.9862,1.9782,1.957,1.9194,1.9456,1.9787,1.9793,1.9573,1.9572,1.9605,1.9436,1.934,1.9384,1.9431,1.9333,1.9014,1.8801,1.8509,1.7532,1.6744,1.5803,1.441,1.1106,0.9729,0.8694,0.5186,0.0914,-0.2337,-0.4079,-0.497,-0.5482,-0.5887,-0.6427,-0.7548,-0.8103,-0.7876,1.583,1.6236,1.6111,1.6254,1.6494,1.6149,1.5996,1.6048,1.5649,1.5531,1.5663,1.5657,1.5646,1.5647,1.548,1.5297,1.5048,1.5091,1.5196,1.5404,1.5652,1.5781,1.5963,1.6145,1.6454,1.6719,1.6668,1.6192,1.5606,1.5766,1.5866,1.5849,1.6019,1.6087,1.5927,1.6297,1.6235,1.6365,1.6813,1.7152,1.7634,1.8341,1.9212,1.9972,2.0708,2.1105,2.1458,2.1655,2.2122,2.2166,2.2003,2.1669,2.189,2.146,2.0965,2.0691,2.0701,1.9964,1.9314,1.8694,1.8468,1.8432,1.8845,1.9826,2.1043,2.2008,2.2923,2.3894,2.4219,2.4588,2.5209,2.5431,2.5149,2.4757,2.4558,2.4378,2.3545,2.3105,2.3132,2.242,2.2315,2.1701,2.0968,2.0838,2.1045,2.0946,2.0738,2.0801,2.0753,2.0365,2.0243,2.0292,2.0356,2.0363,2.0127,1.974,1.9306,1.8498,1.7952,1.7285,1.6348,1.485,1.3794,1.231,0.9404,0.5204,0.1392,-0.1262,-0.0925,-0.0885,-0.1465,-0.2319,-0.339,-0.3978,-0.3924,1.5982,1.6013,1.5464,1.5364,1.5568,1.5742,1.5824,1.5973,1.5969,1.6013,1.6035,1.5978,1.5861,1.5802,1.5758,1.5756,1.5839,1.5894,1.6044,1.6327,1.6491,1.6725,1.7085,1.7199,1.7318,1.7518,1.7541,1.7182,1.6712,1.6512,1.6486,1.6578,1.6614,1.6674,1.7003,1.7508,1.793,1.7805,1.8818,1.9682,2.0,2.0312,2.0957,2.1613,2.2082,2.244,2.2826,2.2773,2.285,2.3397,2.3036,2.2846,2.2952,2.3139,2.2243,2.125,2.0431,1.9939,1.9632,1.9373,1.9392,1.9711,2.0173,2.1162,2.235,2.3526,2.4451,2.5493,2.5325,2.5251,2.5542,2.5559,2.5272,2.5051,2.4865,2.4924,2.4491,2.3786,2.3821,2.3812,2.3334,2.28,2.2166,2.2187,2.2202,2.2056,2.1941,2.1916,2.1665,2.1094,2.0696,2.0612,2.0699,2.0745,2.0616,2.0339,1.992,1.9264,1.8852,1.8439,1.746,1.6514,1.6121,1.4345,1.1761,0.9746,0.667,0.4812,0.4314,0.3475,0.2638,0.1726,0.077,0.042,0.0096,1.6191,1.6142,1.5838,1.6023,1.6361,1.6213,1.6179,1.6235,1.6001,1.601,1.6229,1.623,1.6309,1.6427,1.648,1.6612,1.6773,1.6773,1.6944,1.7182,1.7302,1.7442,1.7648,1.7776,1.7894,1.8226,1.8213,1.82,1.7838,1.758,1.7359,1.7411,1.7457,1.7524,1.7841,1.8342,1.841,1.8672,1.9539,2.0571,2.1225,2.1891,2.2659,2.3475,2.369,2.3747,2.3561,2.3518,2.3179,2.3271,2.2575,2.2216,2.2134,2.194,2.1262,2.0843,2.0392,2.0146,2.0015,2.0131,2.0508,2.0954,2.149,2.2357,2.3514,2.4417,2.5086,2.549,2.5331,2.5336,2.5417,2.5215,2.5066,2.4932,2.4841,2.4796,2.477,2.4721,2.442,2.4396,2.4238,2.3408,2.2792,2.2746,2.2588,2.2386,2.2234,2.2156,2.1766,2.1179,2.0856,2.0651,2.079,2.0911,2.0768,2.054,2.0279,1.9718,1.9305,1.8832,1.8151,1.7446,1.6973,1.6339,1.4474,1.2678,1.1166,0.9803,0.832,0.7437,0.6681,0.5621,0.465,0.4349,0.3866,1.6308,1.6374,1.6149,1.6365,1.6875,1.653,1.6488,1.6576,1.632,1.6336,1.6575,1.6696,1.6894,1.7166,1.7239,1.7311,1.7522,1.7555,1.771,1.7851,1.7945,1.8069,1.8253,1.8313,1.8609,1.912,1.8907,1.9241,1.947,1.9,1.8447,1.8331,1.8281,1.841,1.8646,1.9141,1.9536,1.9991,2.0401,2.1236,2.2176,2.2778,2.3561,2.4164,2.4456,2.4239,2.3663,2.3198,2.2821,2.2777,2.2013,2.1701,2.1666,2.1398,2.0892,2.064,2.0534,2.0724,2.076,2.0975,2.1581,2.2238,2.2847,2.3691,2.421,2.4946,2.5167,2.5182,2.5104,2.4982,2.4907,2.4831,2.4762,2.4638,2.4515,2.4448,2.434,2.4204,2.4008,2.38,2.3599,2.3347,2.2929,2.3013,2.2926,2.2723,2.2569,2.2368,2.1867,2.1233,2.0948,2.0716,2.06,2.0749,2.0623,2.0473,2.0299,2.0054,1.9603,1.9192,1.8455,1.7974,1.7487,1.688,1.6254,1.5356,1.3693,1.2899,1.2079,1.044,0.9172,0.9074,0.8558,0.8088,0.7132,1.6386,1.6611,1.5887,1.5743,1.5962,1.6234,1.6548,1.6797,1.7109,1.7272,1.7327,1.7368,1.7499,1.7642,1.7742,1.7829,1.7979,1.7958,1.8213,1.8445,1.8556,1.8732,1.8915,1.9182,1.952,2.015,1.9905,2.0533,2.1202,1.9998,1.9484,1.9184,1.9059,1.9263,1.9572,2.002,2.071,2.1054,2.1254,2.1922,2.2733,2.3188,2.3289,2.3814,2.3528,2.2978,2.2867,2.2463,2.2241,2.2593,2.1791,2.153,2.1513,2.143,2.1054,2.0961,2.1227,2.1461,2.1639,2.1847,2.2477,2.3581,2.4404,2.4702,2.4891,2.4791,2.4859,2.4793,2.4719,2.4644,2.4611,2.4595,2.4337,2.4222,2.4008,2.3913,2.3753,2.3541,2.3356,2.3129,2.294,2.2762,2.247,2.2401,2.2487,2.2275,2.2183,2.1996,2.1766,2.1242,2.0951,2.0719,2.0459,2.0416,2.0348,2.0154,1.9929,1.9681,1.931,1.9064,1.8727,1.8268,1.7871,1.7608,1.7116,1.6669,1.6195,1.4917,1.3659,1.2391,1.1506,1.1044,1.0408,0.9597,0.8779,1.6919,1.7002,1.6896,1.6744,1.6586,1.702,1.7238,1.7349,1.7642,1.7864,1.8027,1.8194,1.8296,1.8378,1.8476,1.8534,1.8609,1.8681,1.8883,1.9039,1.921,1.934,1.9619,2.004,2.0443,2.0509,2.048,2.0518,2.0754,2.0412,2.0207,1.9873,1.9725,1.9728,2.0087,2.0331,2.0803,2.1152,2.1463,2.2139,2.2789,2.313,2.3466,2.4629,2.4079,2.3714,2.3536,2.2815,2.2395,2.1934,2.1313,2.1327,2.1576,2.1634,2.1623,2.1589,2.2006,2.231,2.2689,2.2953,2.3709,2.449,2.5018,2.5051,2.5007,2.4772,2.4515,2.4417,2.4271,2.417,2.3858,2.3735,2.3584,2.3552,2.3504,2.3369,2.3271,2.3091,2.2943,2.2824,2.2546,2.2269,2.196,2.1639,2.1757,2.1795,2.1728,2.1642,2.143,2.115,2.0828,2.0646,2.0441,2.027,2.022,1.9925,1.9566,1.931,1.9049,1.8836,1.8659,1.8567,1.821,1.8068,1.7828,1.7341,1.6827,1.6252,1.5265,1.397,1.3146,1.252,1.1856,1.1088,1.0261,1.7591,1.7636,1.7954,1.7764,1.7382,1.7732,1.7911,1.7954,1.8142,1.836,1.8587,1.8789,1.8912,1.8996,1.9091,1.9179,1.9232,1.9323,1.9657,1.9816,1.9877,2.0011,2.0392,2.0634,2.0685,2.0643,2.0753,2.0894,2.143,2.0659,2.0546,2.0511,2.0308,2.0139,2.0109,2.0177,2.0277,2.0518,2.0915,2.1699,2.2322,2.2199,2.2847,2.3984,2.3586,2.3387,2.3276,2.2875,2.2458,2.1963,2.1489,2.1309,2.1549,2.1827,2.202,2.2371,2.2756,2.3068,2.3436,2.4018,2.4466,2.4752,2.4676,2.4634,2.4584,2.44,2.4063,2.3949,2.3806,2.3592,2.3247,2.3259,2.3253,2.3271,2.3122,2.3017,2.2943,2.2825,2.2703,2.2554,2.2181,2.1807,2.1538,2.1245,2.1308,2.1385,2.1323,2.1229,2.1055,2.0811,2.0512,2.0392,2.0339,2.0235,2.0115,1.9782,1.9435,1.9124,1.8874,1.8697,1.8517,1.8478,1.8347,1.8002,1.7828,1.776,1.7246,1.6456,1.6009,1.554,1.4653,1.3637,1.3175,1.2435,1.158,1.8281,1.8512,1.8824,1.846,1.7851,1.82,1.838,1.8439,1.8663,1.8877,1.8995,1.9046,1.9167,1.9351,1.9449,1.9581,1.9695,1.9811,2.0211,2.0634,2.0285,2.066,2.0863,2.0925,2.092,2.1305,2.1214,2.1461,2.2405,2.1007,2.0834,2.0937,2.0586,2.0311,2.0294,2.0289,2.0286,2.0314,2.0396,2.0959,2.1444,2.1211,2.1912,2.2888,2.2844,2.2772,2.3208,2.3005,2.2664,2.2395,2.2023,2.1947,2.2161,2.2205,2.2284,2.2398,2.3041,2.3345,2.3461,2.42,2.4398,2.4353,2.4275,2.41,2.3928,2.3741,2.3552,2.3464,2.345,2.333,2.3164,2.3042,2.301,2.3015,2.284,2.2932,2.2901,2.2864,2.2765,2.2698,2.1972,2.1325,2.1119,2.0941,2.0941,2.0941,2.0893,2.0827,2.0711,2.0577,2.0339,2.0304,2.027,2.015,1.9995,1.9654,1.9325,1.8988,1.876,1.8595,1.8478,1.8478,1.8268,1.7948,1.7868,1.7908,1.7256,1.6527,1.6207,1.5856,1.5367,1.4606,1.4247,1.3579,1.2609,1.8753,1.8789,1.9136,1.9097,1.885,1.8984,1.905,1.9099,1.9291,1.9411,1.9481,1.9505,1.9551,1.9692,1.9888,2.0037,2.003,2.0125,2.0547,2.0671,2.042,2.0511,2.0789,2.1121,2.1099,2.1032,2.0975,2.0957,2.1111,2.0555,2.0497,2.0572,2.0527,2.0356,2.0311,2.0296,2.0301,2.0298,2.0394,2.0694,2.1389,2.1205,2.1665,2.328,2.2917,2.3094,2.374,2.3391,2.3097,2.2952,2.2626,2.2447,2.2746,2.2877,2.3023,2.3226,2.3731,2.3546,2.3408,2.3599,2.3853,2.3911,2.3891,2.3687,2.3581,2.3369,2.3194,2.3077,2.3165,2.2989,2.2615,2.2596,2.2607,2.2844,2.2886,2.3187,2.3245,2.3159,2.308,2.3046,2.2567,2.1782,2.1368,2.1036,2.0957,2.0657,2.0595,2.0561,2.0475,2.0441,2.0304,2.0304,2.027,2.0065,1.9854,1.9508,1.9228,1.8912,1.8697,1.8556,1.8478,1.8478,1.8386,1.8147,1.8068,1.7988,1.738,1.685,1.6436,1.6044,1.5546,1.5051,1.449,1.392,1.3208,1.9204,1.9198,1.9471,1.9782,1.9964,1.9681,1.9524,1.9544,1.9688,1.9778,1.9877,2.0164,2.0413,2.0561,2.0873,2.0809,2.0723,2.0774,2.083,2.0834,2.0519,2.0751,2.1053,2.1132,2.0836,2.0708,2.0811,2.0873,2.0542,2.0361,2.0297,2.0257,2.0188,2.01,2.0118,2.0159,2.0218,2.025,2.0387,2.0803,2.1243,2.1521,2.218,2.3118,2.3503,2.3731,2.4223,2.4158,2.3668,2.3433,2.3182,2.2893,2.3285,2.3436,2.3529,2.3719,2.3684,2.3476,2.3275,2.3199,2.3418,2.3476,2.3472,2.3338,2.3171,2.3025,2.3136,2.3102,2.303,2.3061,2.2982,2.289,2.2949,2.3172,2.3225,2.3555,2.344,2.3349,2.3329,2.3304,2.3092,2.2337,2.1595,2.1317,2.1038,2.0663,2.0304,2.0304,2.0304,2.0304,2.027,2.022,2.0115,1.9925,1.966,1.9362,1.9064,1.8812,1.8659,1.8517,1.8478,1.8478,1.8411,1.8397,1.8293,1.8121,1.7639,1.7144,1.6595,1.6132,1.5691,1.5187,1.4686,1.4258,1.3779,1.9707,1.9738,1.9855,2.0437,2.1022,2.0358,1.9972,1.9945,1.9926,2.0011,2.0216,2.1039,2.1287,2.1675,2.2454,2.2294,2.1625,2.1624,2.1479,2.1308,2.0683,2.0991,2.1024,2.0957,2.0714,2.0476,2.0492,2.0712,2.0321,2.0171,2.0088,2.0012,1.9963,1.9893,1.9914,1.9984,2.005,2.0096,2.0557,2.0854,2.1104,2.183,2.2505,2.3191,2.3481,2.3841,2.4215,2.4241,2.4099,2.3952,2.3795,2.3587,2.3468,2.3333,2.3305,2.3259,2.3236,2.3093,2.3021,2.2981,2.2853,2.2822,2.2834,2.2721,2.2738,2.2832,2.3069,2.3356,2.3431,2.3854,2.4059,2.3986,2.3879,2.3852,2.3719,2.3715,2.3571,2.3529,2.351,2.3451,2.328,2.267,2.1842,2.143,2.1291,2.0613,2.0304,2.0304,2.0304,2.0304,2.022,2.01,1.9945,1.9696,1.9442,1.9176,1.895,1.8697,1.8634,1.8478,1.8478,1.8478,1.8464,1.8464,1.8478,1.8228,1.7679,1.7144,1.6595,1.6175,1.5957,1.5603,1.5187,1.496,1.4582,1.9903,1.9943,2.0114,2.0708,2.1501,2.1828,2.1993,2.1957,2.1397,2.1109,2.1203,2.1473,2.1683,2.1756,2.2605,2.2421,2.2011,2.1615,2.1173,2.0848,2.0542,2.0581,2.0772,2.1002,2.0768,2.0656,2.0619,2.0598,2.0152,1.9974,1.9874,1.979,1.9774,1.9726,1.9738,1.9809,1.9804,2.0075,2.0678,2.1014,2.1433,2.2256,2.2848,2.312,2.3493,2.386,2.3987,2.4022,2.3903,2.384,2.3756,2.3588,2.3369,2.3259,2.3165,2.289,2.2747,2.2598,2.2544,2.2537,2.2473,2.24,2.2538,2.2574,2.2643,2.2869,2.3173,2.3489,2.3829,2.4175,2.4265,2.4199,2.4194,2.4113,2.4051,2.4003,2.3909,2.3923,2.3901,2.3923,2.374,2.3188,2.2308,2.187,2.1661,2.0798,2.0304,2.0304,2.0304,2.0304,2.0185,2.005,1.9839,1.9551,1.9273,1.8988,1.8774,1.8581,1.8517,1.8478,1.8478,1.8478,1.8478,1.8478,1.8464,1.8175,1.772,1.7269,1.6892,1.6595,1.638,1.6032,1.5691,1.5424,1.5198,2.0112,2.0139,2.0246,2.0817,2.1784,2.2935,2.3456,2.3242,2.2191,2.1662,2.172,2.2101,2.2063,2.193,2.2889,2.2935,2.1698,2.1614,2.1223,2.0541,2.0283,2.0634,2.0908,2.1128,2.1062,2.0955,2.0766,2.0614,2.0039,1.979,1.9701,1.9619,1.9625,1.9599,1.9572,1.9564,1.9773,2.0234,2.0844,2.1365,2.2086,2.2858,2.3198,2.3267,2.3635,2.3681,2.3649,2.361,2.3566,2.3513,2.3405,2.3271,2.3049,2.295,2.2849,2.2581,2.248,2.2405,2.2377,2.2366,2.2274,2.2322,2.2566,2.2698,2.2972,2.3264,2.3487,2.372,2.4083,2.4346,2.427,2.4216,2.4249,2.4293,2.4327,2.4343,2.4373,2.4358,2.443,2.448,2.4151,2.3643,2.3102,2.264,2.1993,2.1152,2.0535,2.0304,2.0304,2.0304,2.0115,1.9909,1.9696,1.9457,1.9124,1.8836,1.8659,1.8556,1.8517,1.8478,1.8478,1.8478,1.8478,1.8464,1.845,1.8121,1.7841,1.7679,1.738,1.7047,1.668,1.625,1.5913,1.5647,1.5468,2.0308,2.0321,2.0405,2.0889,2.1784,2.3433,2.4118,2.3979,2.2586,2.1998,2.2216,2.2636,2.2418,2.227,2.3193,2.2893,2.1973,2.1561,2.1272,2.0366,2.0217,2.0546,2.1058,2.1283,2.1004,2.0998,2.0891,2.054,1.9876,1.9593,1.9559,1.9485,1.9472,1.9415,1.9316,1.9507,1.9913,2.0598,2.1362,2.2076,2.2776,2.3527,2.4034,2.3699,2.3649,2.3606,2.3432,2.3294,2.32,2.306,2.2935,2.2859,2.2668,2.2579,2.246,2.2405,2.2338,2.231,2.231,2.2327,2.2513,2.2623,2.2834,2.3046,2.334,2.367,2.388,2.3964,2.4272,2.4523,2.4527,2.4455,2.4469,2.4422,2.4405,2.4371,2.4343,2.4343,2.4385,2.441,2.4333,2.381,2.324,2.2701,2.204,2.1337,2.0736,2.0381,2.0304,2.0304,2.008,1.9803,1.9603,1.9362,1.895,1.8697,1.8595,1.8478,1.8478,1.8478,1.8478,1.8478,1.8478,1.8478,1.8464,1.824,1.8002,1.7868,1.7666,1.7256,1.6837,1.6466,1.6175,1.5957,1.5748,2.0381,2.046,2.1143,2.1243,2.1139,2.3354,2.3611,2.2558,2.3455,2.3628,2.3429,2.2578,2.2286,2.2702,2.3091,2.2693,2.1791,2.1642,2.1382,2.0886,2.0489,2.0766,2.1096,2.1138,2.0812,2.0495,2.0376,2.0345,1.9643,1.9419,1.9409,1.9346,1.9331,1.9243,1.9244,1.9556,2.0228,2.1022,2.1652,2.2292,2.2801,2.3199,2.3495,2.3353,2.3277,2.3277,2.3157,2.3133,2.3084,2.3003,2.2935,2.2721,2.2405,2.2366,2.2338,2.231,2.2282,2.2254,2.2259,2.2315,2.2508,2.2828,2.3063,2.3372,2.3719,2.4075,2.4265,2.4281,2.4401,2.4618,2.4721,2.4648,2.4599,2.4517,2.4436,2.4385,2.4317,2.4317,2.4302,2.4302,2.4302,2.3917,2.3363,2.2717,2.204,2.1399,2.072,2.032,2.0304,2.027,2.001,1.9747,1.9581,1.9265,1.8851,1.8659,1.8595,1.8517,1.8478,1.8478,1.8478,1.8478,1.8478,1.8478,1.8439,1.8293,1.8201,1.8201,1.7948,1.7462,1.7214,1.6921,1.6595,1.638,1.6088,2.0444,2.0529,2.1004,2.1189,2.1426,2.3065,2.3431,2.3171,2.3914,2.4239,2.4049,2.3187,2.2804,2.303,2.318,2.2562,2.1765,2.1884,2.1665,2.1263,2.1083,2.132,2.1308,2.0929,2.0639,2.0279,2.0043,1.9804,1.9357,1.9193,1.9162,1.9198,1.9168,1.925,1.9363,1.9937,2.0652,2.1572,2.1941,2.2318,2.2722,2.3132,2.3289,2.3175,2.3095,2.3045,2.2893,2.2868,2.279,2.2738,2.2685,2.2561,2.2377,2.2366,2.2338,2.2254,2.218,2.2077,2.212,2.2265,2.2481,2.2867,2.3326,2.365,2.3998,2.4272,2.4272,2.4311,2.4586,2.4831,2.4527,2.4451,2.4426,2.4385,2.4385,2.4343,2.4317,2.4302,2.4302,2.4302,2.4302,2.421,2.3579,2.2809,2.2194,2.1793,2.1106,2.0424,2.0377,2.043,2.0106,1.9801,1.9664,1.9346,1.8912,1.8721,1.8697,1.8581,1.8517,1.8478,1.8478,1.8478,1.8478,1.8478,1.8478,1.8464,1.8411,1.8372,1.8161,1.776,1.7598,1.7421,1.7102,1.6816,1.6541,2.0483,2.0486,2.0507,2.0897,2.1702,2.2674,2.3341,2.3847,2.4231,2.4127,2.3904,2.4114,2.3636,2.3262,2.3304,2.2527,2.2085,2.2136,2.1907,2.1733,2.1559,2.1469,2.1035,2.0508,2.0229,2.001,1.9789,1.9564,1.9305,1.9178,1.9134,1.9088,1.9201,1.9324,1.9818,2.0276,2.0894,2.1653,2.2119,2.2433,2.2828,2.3194,2.3133,2.3077,2.302,2.2868,2.2676,2.2542,2.2487,2.2432,2.2432,2.2304,2.222,2.2163,2.2106,2.2049,2.1827,2.1834,2.1941,2.2196,2.2602,2.3044,2.3522,2.3912,2.4234,2.4313,2.4297,2.442,2.4704,2.4719,2.441,2.4302,2.4302,2.4302,2.4302,2.4302,2.4302,2.4302,2.4302,2.4302,2.4302,2.4287,2.3794,2.3025,2.2532,2.2132,2.1639,2.0993,2.0569,2.0721,2.0609,2.0235,1.9916,1.9514,1.9046,1.8879,1.8817,1.8697,1.8581,1.8556,1.8478,1.8478,1.8478,1.8478,1.8478,1.8478,1.8478,1.8478,1.8214,1.8044,1.7908,1.7814,1.7659,1.7349,1.7068,2.0469,2.043,2.0431,2.0527,2.0856,2.2266,2.2656,2.2527,2.4277,2.4384,2.3486,2.4175,2.4066,2.2602,2.2608,2.2303,2.2235,2.2275,2.223,2.2077,2.158,2.1306,2.0863,2.0108,1.969,1.9619,1.9623,1.9415,1.965,1.9488,1.9496,1.9867,1.9921,2.0109,2.0565,2.0995,2.1458,2.201,2.2277,2.26,2.2583,2.2799,2.279,2.2738,2.2685,2.2623,2.2542,2.2497,2.246,2.2422,2.231,2.2106,2.1974,2.1886,2.1811,2.1661,2.1462,2.171,2.1876,2.2181,2.2614,2.3585,2.4008,2.4116,2.43,2.4369,2.4369,2.4287,2.4451,2.4451,2.4302,2.4302,2.4302,2.4302,2.4302,2.4302,2.4302,2.4302,2.4302,2.4302,2.4302,2.4287,2.4194,2.3548,2.3071,2.2671,2.227,2.1664,2.1347,2.1243,2.1144,2.0775,2.034,1.9842,1.9419,1.9094,1.8979,1.8831,1.8758,1.8824,1.8745,1.8506,1.8492,1.8647,1.8562,1.8506,1.8492,1.8675,1.8663,1.8545,1.8309,1.8137,1.8098,1.7991,1.777]}]]